[[{"header":{"parameterUnit":"m.s-1","parameterCategory":1,"la1":30.6,"la2":28.766,"lo1":-90.7593,"lo2":-88.6598,"dy":0.0162,"dx":0.0183,"nx":116,"ny":114,"refTime":"2024-04-04T12:00:00:Z","depth":0,"parameterNumber":2,"parameterNumberName":"U-component_of_WINDS"},"data":[0.0,0.0,0.0,0.0,0.0,0.0,0.0,0.0,0.0,0.0,0.0,0.0,0.0,0.0,0.0,0.0,0.0,0.0,0.0,0.0,0.0,0.0,0.0,0.0,0.0,0.0,0.0,0.0,0.0,0.0,0.0,0.0,0.0,0.0,0.0,0.0,0.0,0.0,0.0,0.0,0.0,0.0,0.0,0.0,0.0,0.0,0.0,0.0,0.0,0.0,0.0,0.0,0.0,0.0,0.0,0.0,0.0,0.0,0.0,0.0,0.0,0.0,0.0,0.0,0.0,0.0,0.0,0.0,0.0,0.0,0.0,0.0,0.0,0.0,0.0,0.0,0.0,0.0,0.0,0.0,0.0,0.0,0.0,0.0,0.0,0.0,0.0,0.0,0.0,0.0,0.0,0.0,0.0,0.0,0.0,0.0,0.0,0.0,0.0,0.0,0.0,0.0,0.0,0.0,0.0,0.0,0.0,0.0,0.0,0.0,0.0,0.0,0.0,0.0,0.0,0.0,0.0,0.0,0.0,0.0,0.0,0.0,0.0,0.0,0.0,0.0,0.0,0.0,0.0,0.0,0.0,0.0,0.0,0.0,0.0,0.0,0.0,0.0,0.0,0.0,0.0,0.0,0.0,0.0,0.0,0.0,0.0,0.0,0.0,0.0,0.0,0.0,0.0,0.0,0.0,0.0,0.0,0.0,0.0,0.0,0.0,0.0,0.0,0.0,0.0,0.0,0.0,0.0,0.0,0.0,0.0,0.0,0.0,0.0,0.0,0.0,0.0,0.0,0.0,0.0,0.0,0.0,0.0,0.0,0.0,0.0,0.0,0.0,0.0,0.0,0.0,0.0,0.0,0.0,0.0,0.0,0.0,0.0,0.0,0.0,0.0,0.0,0.0,0.0,0.0,0.0,0.0,0.0,0.0,0.0,0.0,0.0,0.0,0.0,0.0,0.0,0.0,0.0,0.0,0.0,0.0,0.0,0.0,0.0,0.0,0.0,0.0,0.0,0.0,0.0,0.0,0.0,0.0,0.0,0.0,0.0,0.0,0.0,0.0,0.0,0.0,0.0,0.0,0.0,0.0,0.0,0.0,0.0,0.0,0.0,0.0,0.0,0.0,0.0,0.0,0.0,0.0,0.0,0.0,0.0,0.0,0.0,0.0,0.0,0.0,0.0,0.0,0.0,0.0,0.0,0.0,0.0,0.0,0.0,0.0,0.0,0.0,0.0,0.0,0.0,0.0,0.0,0.0,0.0,0.0,0.0,0.0,0.0,0.0,0.0,0.0,0.0,0.0,0.0,0.0,0.0,0.0,0.0,0.0,0.0,0.0,0.0,0.0,0.0,0.0,0.0,0.0,0.0,0.0,0.0,0.0,0.0,0.0,0.0,0.0,0.0,0.0,0.0,0.0,0.0,0.0,0.0,0.0,0.0,0.0,0.0,0.0,0.0,0.0,0.0,0.0,0.0,0.0,0.0,0.0,0.0,0.0,0.0,0.0,0.0,0.0,0.0,0.0,0.0,0.0,0.0,0.0,0.0,0.0,0.0,0.0,0.0,0.0,0.0,0.0,0.0,0.0,0.0,0.0,0.0,0.0,0.0,0.0,0.0,0.0,0.0,0.0,0.0,0.0,0.0,0.0,0.0,0.0,0.0,0.0,0.0,0.0,0.0,0.0,0.0,0.0,0.0,0.0,0.0,0.0,0.0,0.0,0.0,0.0,0.0,0.0,0.0,0.0,0.0,0.0,0.0,0.0,0.0,0.0,0.0,0.0,0.0,0.0,0.0,0.0,0.0,0.0,0.0,0.0,0.0,0.0,0.0,0.0,0.0,0.0,0.0,0.0,0.0,0.0,0.0,0.0,0.0,0.0,0.0,0.0,0.0,0.0,0.0,0.0,0.0,0.0,0.0,0.0,0.0,0.0,0.0,0.0,0.0,0.0,0.0,0.0,0.0,0.0,0.0,0.0,0.0,0.0,0.0,0.0,0.0,0.0,0.0,0.0,0.0,0.0,0.0,0.0,0.0,0.0,0.0,0.0,0.0,0.0,0.0,0.0,0.0,0.0,0.0,0.0,0.0,0.0,0.0,0.0,0.0,0.0,0.0,0.0,0.0,0.0,0.0,0.0,0.0,0.0,0.0,0.0,0.0,0.0,0.0,0.0,0.0,0.0,0.0,0.0,0.0,0.0,0.0,0.0,0.0,0.0,0.0,0.0,0.0,0.0,0.0,0.0,0.0,0.0,0.0,0.0,0.0,0.0,0.0,0.0,0.0,0.0,0.0,0.0,0.0,0.0,0.0,0.0,0.0,0.0,0.0,0.0,0.0,0.0,0.0,0.0,0.0,0.0,0.0,0.0,0.0,0.0,0.0,0.0,0.0,0.0,0.0,0.0,0.0,0.0,0.0,0.0,0.0,0.0,0.0,0.0,0.0,0.0,0.0,0.0,0.0,0.0,0.0,0.0,0.0,0.0,0.0,0.0,0.0,0.0,0.0,0.0,0.0,0.0,0.0,0.0,0.0,0.0,0.0,0.0,0.0,0.0,0.0,0.0,0.0,0.0,0.0,0.0,0.0,0.0,0.0,0.0,0.0,0.0,0.0,0.0,0.0,0.0,0.0,0.0,0.0,0.0,0.0,0.0,0.0,0.0,0.0,0.0,0.0,0.0,0.0,0.0,0.0,0.0,0.0,0.0,0.0,0.0,0.0,0.0,0.0,0.0,0.0,0.0,0.0,0.0,0.0,0.0,0.0,0.0,0.0,0.0,0.0,0.0,0.0,0.0,0.0,0.0,0.0,0.0,0.0,0.0,0.0,0.0,0.0,0.0,0.0,0.0,0.0,0.0,0.0,0.0,0.0,0.0,0.0,0.0,0.0,0.0,0.0,0.0,0.0,0.0,0.0,0.0,0.0,0.0,0.0,0.0,0.0,0.0,0.0,0.0,0.0,0.0,0.0,0.0,0.0,0.0,0.0,0.0,0.0,0.0,0.0,0.0,0.0,0.0,0.0,0.0,0.0,0.0,0.0,0.0,0.0,0.0,0.0,0.0,0.0,0.0,0.0,0.0,0.0,0.0,0.0,0.0,0.0,0.0,0.0,0.0,0.0,0.0,0.0,0.0,0.0,0.0,0.0,0.0,0.0,0.0,0.0,0.0,0.0,0.0,0.0,0.0,0.0,0.0,0.0,0.0,0.0,0.0,0.0,0.0,0.0,0.0,0.0,0.0,0.0,0.0,0.0,0.0,0.0,0.0,0.0,0.0,0.0,0.0,0.0,0.0,0.0,0.0,0.0,0.0,0.0,0.0,0.0,0.0,0.0,0.0,0.0,0.0,0.0,0.0,0.0,0.0,0.0,0.0,0.0,0.0,0.0,0.0,0.0,0.0,0.0,0.0,0.0,0.0,0.0,0.0,0.0,0.0,0.0,0.0,0.0,0.0,0.0,0.0,0.0,0.0,0.0,0.0,0.0,0.0,0.0,0.0,0.0,0.0,0.0,0.0,0.0,0.0,0.0,0.0,0.0,0.0,0.0,0.0,0.0,0.0,0.0,0.0,0.0,0.0,0.0,0.0,0.0,0.0,0.0,0.0,0.0,0.0,0.0,0.0,0.0,0.0,0.0,0.0,0.0,0.0,0.0,0.0,0.0,0.0,0.0,0.0,0.0,0.0,0.0,0.0,0.0,0.0,0.0,0.0,0.0,0.0,0.0,0.0,0.0,0.0,0.0,0.0,0.0,0.0,0.0,0.0,0.0,0.0,0.0,0.0,0.0,0.0,0.0,0.0,0.0,0.0,0.0,0.0,0.0,0.0,0.0,0.0,0.0,0.0,0.0,0.0,0.0,0.0,0.0,0.0,0.0,0.0,0.0,0.0,0.0,0.0,0.0,0.0,0.0,0.0,0.0,0.0,0.0,0.0,0.0,0.0,0.0,0.0,0.0,0.0,0.0,0.0,0.0,0.0,0.0,0.0,0.0,0.0,0.0,0.0,0.0,0.0,0.0,0.0,0.0,0.0,0.0,0.0,0.0,0.0,0.0,0.0,0.0,0.0,0.0,0.0,0.0,0.0,0.0,0.0,0.0,0.0,0.0,0.0,0.0,0.0,0.0,0.0,0.0,0.0,0.0,0.0,0.0,0.0,0.0,0.0,0.0,0.0,0.0,0.0,0.0,0.0,0.0,0.0,0.0,0.0,0.0,0.0,0.0,0.0,0.0,0.0,0.0,0.0,0.0,0.0,0.0,0.0,0.0,0.0,0.0,0.0,0.0,0.0,0.0,0.0,0.0,0.0,0.0,0.0,0.0,0.0,0.0,0.0,0.0,0.0,0.0,0.0,0.0,0.0,0.0,0.0,0.0,0.0,0.0,0.0,0.0,0.0,0.0,0.0,0.0,0.0,0.0,0.0,0.0,0.0,0.0,0.0,0.0,0.0,0.0,0.0,0.0,0.0,0.0,0.0,0.0,0.0,0.0,0.0,0.0,0.0,0.0,0.0,0.0,0.0,0.0,0.0,0.0,0.0,0.0,0.0,0.0,0.0,0.0,0.0,0.0,0.0,0.0,0.0,0.0,0.0,0.0,0.0,0.0,0.0,0.0,0.0,0.0,0.0,0.0,0.0,0.0,0.0,0.0,0.0,0.0,0.0,0.0,0.0,0.0,0.0,0.0,0.0,0.0,0.0,0.0,0.0,0.0,0.0,0.0,0.0,0.0,0.0,0.0,0.0,0.0,0.0,0.0,0.0,0.0,0.0,0.0,0.0,0.0,0.0,0.0,0.0,0.0,0.0,0.0,0.0,0.0,0.0,0.0,0.0,0.0,0.0,0.0,0.0,0.0,0.0,0.0,0.0,0.0,0.0,0.0,0.0,0.0,0.0,0.0,0.0,0.0,0.0,0.0,0.0,0.0,0.0,0.0,0.0,0.0,0.0,0.0,0.0,0.0,0.0,0.0,0.0,0.0,0.0,0.0,0.0,0.0,0.0,0.0,0.0,0.0,0.0,0.0,0.0,0.0,0.0,0.0,0.0,0.0,0.0,0.0,0.0,0.0,0.0,0.0,0.0,0.0,0.0,0.0,0.0,0.0,0.0,0.0,0.0,0.0,0.0,0.0,0.0,0.0,0.0,0.0,0.0,0.0,0.0,0.0,0.0,0.0,0.0,0.0,0.0,0.0,0.0,0.0,0.0,0.0,0.0,0.0,0.0,0.0,0.0,0.0,0.0,0.0,0.0,0.0,0.0,0.0,0.0,0.0,0.0,0.0,0.0,0.0,0.0,0.0,0.0,0.0,0.0,0.0,0.0,0.0,0.0,0.0,0.0,0.0,0.0,0.0,0.0,0.0,0.0,0.0,0.0,0.0,0.0,0.0,0.0,0.0,0.0,0.0,0.0,0.0,0.0,0.0,0.0,0.0,0.0,0.0,0.0,0.0,0.0,0.0,0.0,0.0,0.0,0.0,0.0,0.0,0.0,0.0,0.0,0.0,0.0,0.0,0.0,0.0,0.0,0.0,0.0,0.0,0.0,0.0,0.0,0.0,0.0,0.0,0.0,0.0,0.0,0.0,0.0,0.0,0.0,0.0,0.0,0.0,0.0,0.0,0.0,0.0,0.0,0.0,0.0,0.0,0.0,0.0,0.0,0.0,0.0,0.0,0.0,0.0,0.0,0.0,0.0,0.0,0.0,0.0,0.0,0.0,0.0,0.0,0.0,0.0,0.0,0.0,0.0,0.0,0.0,0.0,0.0,0.0,0.0,0.0,0.0,0.0,0.0,0.0,0.0,0.0,0.0,0.0,0.0,0.0,0.0,0.0,0.0,0.0,0.0,0.0,0.0,0.0,0.0,0.0,0.0,0.0,0.0,0.0,0.0,0.0,0.0,0.0,0.0,0.0,0.0,0.0,0.0,0.0,0.0,0.0,0.0,0.0,0.0,0.0,0.0,0.0,0.0,0.0,0.0,0.0,0.0,0.0,0.0,0.0,0.0,0.0,0.0,0.0,0.0,0.0,0.0,0.0,0.0,0.0,0.0,0.0,0.0,0.0,0.0,0.0,0.0,0.0,0.0,0.0,0.0,0.0,0.0,0.0,0.0,0.0,0.0,0.0,0.0,0.0,1.4103,1.3759,0.0,0.0,0.0,0.0,0.0,0.0,0.0,0.0,0.0,0.0,0.0,0.0,0.0,0.0,0.0,0.0,0.0,0.0,0.0,0.0,0.0,0.0,0.0,2.1123,2.0387,2.0387,1.9844,1.9497,1.9497,0.0,0.0,0.0,0.0,0.0,1.5832,1.5832,1.5832,1.5832,1.5832,1.5752,1.5605,1.5752,1.5912,1.6046,0.0,0.0,0.0,0.0,0.0,0.0,0.0,0.0,0.0,0.0,0.0,0.0,0.0,0.0,0.0,0.0,0.0,0.0,0.0,0.0,0.0,0.0,0.0,0.0,0.0,0.0,0.0,0.0,0.0,0.0,0.0,0.0,0.0,0.0,0.0,0.0,0.0,0.0,0.0,0.0,0.0,0.0,0.0,0.0,0.0,0.0,0.0,0.0,0.0,0.0,0.0,0.0,0.0,0.0,0.0,0.0,0.0,0.0,0.0,0.0,0.0,0.0,0.0,0.0,0.0,0.0,0.0,0.0,0.0,0.0,1.2636,1.2781,0.0,0.0,0.0,0.0,0.0,0.0,0.0,0.0,0.0,0.0,0.0,0.0,0.0,0.0,0.0,0.0,0.0,0.0,0.0,0.0,0.0,2.3144,2.3144,2.2208,2.1569,2.1569,2.0674,2.0133,2.0133,1.9951,1.9405,1.8411,1.8149,1.7498,1.6466,1.6197,1.6103,1.6103,1.5967,1.5952,1.6059,1.6112,1.6299,1.658,1.6567,0.0,0.0,0.0,0.0,0.0,0.0,0.0,0.0,0.0,0.0,0.0,0.0,0.0,0.0,0.0,0.0,0.0,0.0,0.0,0.0,0.0,0.0,0.0,0.0,0.0,0.0,0.0,0.0,0.0,0.0,0.0,0.0,0.0,0.0,0.0,0.0,0.0,0.0,0.0,0.0,0.0,0.0,0.0,0.0,0.0,0.0,0.0,0.0,0.0,0.0,0.0,0.0,0.0,0.0,0.0,0.0,0.0,0.0,0.0,0.0,0.0,0.0,0.0,1.1234,1.0933,1.106,1.0799,1.0235,0.9393,1.0558,1.1292,1.1678,1.2068,0.0,0.0,0.0,0.0,0.0,0.0,0.0,0.0,0.0,0.0,0.0,0.0,0.0,0.0,0.0,0.0,0.0,0.0,0.0,2.3144,2.3144,2.295,2.2862,2.2862,2.2687,2.2599,2.2599,2.1658,2.1016,2.0836,1.9861,1.9222,1.9039,1.7948,1.7404,1.7404,1.6649,1.6473,1.6981,1.7235,0.0,1.7756,1.65,1.6353,1.6994,0.0,0.0,0.0,0.0,0.0,0.0,0.0,0.0,0.0,0.0,0.0,0.0,0.0,0.0,0.0,0.0,0.0,0.0,0.0,0.0,0.0,0.0,0.0,0.0,0.0,0.0,0.0,0.0,0.0,0.0,0.0,0.0,0.0,0.0,0.0,0.0,0.0,0.0,0.0,0.0,0.0,1.8116,1.8624,0.0,0.0,0.0,0.0,0.0,0.0,0.0,0.0,0.0,0.0,0.0,0.0,0.0,1.2909,1.3252,1.2145,1.1423,1.0896,1.1315,1.1534,1.1586,1.174,0.9751,0.6005,0.6176,0.0,1.0135,1.0518,0.0,0.0,0.0,0.0,0.0,0.0,0.0,0.0,0.0,0.0,0.0,0.0,0.0,0.0,0.0,0.0,0.0,0.0,0.0,0.0,0.0,2.3574,2.3867,2.3867,2.4746,2.4619,2.2887,2.3466,2.2723,2.0439,2.0387,2.0206,1.9497,1.8948,1.8412,1.7953,1.7218,1.6901,1.7257,0.0,0.0,1.7996,1.7341,1.7088,1.7128,1.6874,0.0,0.0,0.0,0.0,0.0,0.0,0.0,0.0,0.0,0.0,0.0,0.0,0.0,0.0,0.0,0.0,0.0,0.0,0.0,0.0,0.0,0.0,0.0,0.0,0.0,0.0,0.0,0.0,0.0,0.0,0.0,0.0,0.0,0.0,0.0,0.0,0.0,0.0,0.0,1.7903,1.8637,1.8223,1.8651,1.8433,0.0,0.0,0.0,0.0,0.0,0.0,0.0,0.0,0.0,1.4083,1.3035,1.2462,1.2698,1.2223,1.1854,1.1638,0.9407,0.8433,0.8666,1.1464,1.1694,0.9331,-0.1166,-0.4872,-0.2925,0.6909,0.7115,0.0831,0.0,0.0,0.0,0.0,-0.2016,-0.2035,0.0,0.0,0.0,0.0,0.0,0.0,0.0,0.0,0.0,0.0,0.0,0.0,2.3349,2.3847,2.4294,2.4902,2.6113,2.5891,2.3743,2.4737,2.4032,2.0933,2.141,2.1302,2.0404,1.9853,1.902,1.7848,1.7585,1.7448,0.0,0.0,0.0,0.0,0.0,0.0,1.7702,1.7395,1.7048,0.0,0.0,0.0,0.0,0.0,0.0,0.0,0.0,0.0,0.0,0.0,0.0,0.0,0.0,0.0,0.0,0.0,0.0,0.0,0.0,0.0,0.0,0.0,0.0,0.0,0.0,0.0,0.0,0.0,0.0,0.0,0.0,0.0,0.0,0.0,0.0,0.0,0.0,1.7942,1.8416,1.7585,1.8096,1.7766,0.0,0.0,0.0,0.0,0.0,0.0,1.3963,1.3246,1.313,1.3544,1.2806,1.244,1.2644,1.2595,1.2651,1.2649,0.9282,0.5461,0.1206,0.454,0.6845,0.7352,-0.6507,-1.3235,-1.3382,0.0958,0.3064,-0.3464,-1.0686,-1.1402,-0.8479,-0.879,-0.8877,-0.8943,0.0,0.0,0.0,0.0,0.0,0.0,0.0,0.0,0.0,0.0,0.0,2.1725,2.4127,2.3786,2.4175,2.6112,2.6367,2.6387,2.619,2.5156,2.4341,2.4171,2.3396,2.295,2.295,2.0933,1.9012,1.7203,0.0,0.0,0.0,0.0,0.0,0.0,0.0,0.0,0.0,1.8036,1.7716,1.7876,0.0,0.0,0.0,0.0,0.0,0.0,0.0,0.0,0.0,0.0,0.0,0.0,0.0,0.0,0.0,0.0,0.0,0.0,0.0,0.0,0.0,0.0,0.0,0.0,0.0,0.0,0.0,0.0,0.0,0.0,0.0,0.0,0.0,0.0,0.0,0.0,0.0,0.0,0.0,1.7043,1.638,0.0,0.0,0.0,0.0,1.3093,1.3177,1.2936,1.2025,1.2065,1.2429,1.3034,1.3037,1.3275,1.3263,1.3586,1.3594,1.3267,1.3104,0.3712,-1.3324,-1.3655,-1.087,-0.6071,-0.7467,-1.0436,-1.415,-0.845,-0.635,-0.7233,-1.2004,-1.3565,-1.3406,-1.3428,-1.3692,-1.4011,0.0,0.0,0.0,0.0,0.0,0.0,0.0,1.9159,2.0145,2.0885,2.0953,2.1915,2.4594,2.4609,2.5303,2.7435,2.8359,2.8153,2.6586,2.6237,2.5429,2.4178,2.3775,2.3313,2.2649,2.0457,1.9115,1.8654,0.0,0.0,0.0,0.0,0.0,0.0,0.0,0.0,0.0,1.8584,1.8009,1.7689,1.6981,1.67,0.0,0.0,0.0,0.0,0.0,0.0,0.0,0.0,0.0,0.0,0.0,0.0,0.0,0.0,0.0,0.0,0.0,0.0,0.0,0.0,0.0,0.0,0.0,0.0,0.0,0.0,0.0,0.0,0.0,0.0,0.0,0.0,0.0,0.0,0.0,0.0,0.0,1.6043,1.6489,0.0,1.4613,1.4354,1.3776,1.2415,1.2575,1.2813,1.2671,1.2935,1.3268,1.3695,1.3851,1.3874,1.3932,1.4088,1.0916,0.4529,-0.1982,-0.6693,-1.0058,-1.3449,-1.3997,-1.2267,-1.2335,-1.3279,-1.4713,-1.2722,-1.1986,-1.2044,-1.3743,-1.4323,-1.414,-1.4238,-1.4309,-1.4379,0.0,0.0,0.0,0.0,1.49,1.5383,1.6427,1.7531,1.8611,1.9449,1.9744,2.094,2.373,2.4445,2.5649,2.7952,2.9234,2.8991,2.6793,2.656,2.5633,2.3717,2.3243,2.241,2.0976,1.9713,1.9067,0.0,0.0,0.0,0.0,0.0,0.0,0.0,0.0,0.0,0.0,0.0,1.8437,1.7836,1.7248,1.7181,1.7341,0.0,0.0,0.0,0.0,0.0,0.0,0.0,0.0,0.0,0.0,0.0,0.0,0.0,0.0,0.0,0.0,0.0,0.0,0.0,0.0,0.0,0.0,0.0,0.0,0.0,0.0,0.0,0.0,0.0,0.0,0.0,0.0,0.0,0.0,0.0,1.5208,1.4864,1.5611,1.5472,1.3714,1.3679,1.3398,1.2656,1.2786,1.3112,1.3471,1.3736,1.4,1.4108,1.261,1.1071,0.9317,0.9152,0.5134,-0.314,-1.1279,-1.334,-1.0193,-1.3437,-1.4916,-1.5011,-1.5135,-1.495,-1.4855,-1.4882,-1.4841,-1.476,-1.4805,-1.4695,-1.4468,-1.4611,-1.4665,-1.4679,0.0,0.0,0.0,1.3213,1.344,1.3954,1.5057,1.5487,1.6338,1.8153,1.7825,1.8712,2.1832,2.3303,2.5076,2.7508,2.8766,2.8687,2.6918,2.6058,2.4811,2.2991,2.2178,2.0577,1.8237,1.8977,0.0,0.0,0.0,0.0,0.0,0.0,0.0,0.0,0.0,0.0,0.0,0.0,1.9038,1.8477,1.7862,1.7809,1.8009,0.0,0.0,0.0,0.0,0.0,0.0,0.0,0.0,0.0,0.0,0.0,0.0,0.0,0.0,0.0,0.0,0.0,0.0,0.0,0.0,0.0,0.0,0.0,0.0,0.0,0.0,0.0,0.0,0.0,0.0,0.0,0.0,0.0,1.3933,1.3935,1.3705,1.3552,1.3392,1.303,1.2603,1.2956,1.3275,1.3424,1.3702,1.3946,1.3954,1.4108,1.409,1.4276,0.9377,0.442,-0.092,-0.1125,-0.3584,-0.8244,-1.2981,-1.5259,-1.5231,-1.5375,-1.5259,-1.4787,-1.5221,-1.5248,-1.4997,-1.5126,-1.5181,-1.5167,-1.5031,-1.4889,-1.4774,-1.4923,-1.4977,-1.4977,0.0,0.0,1.3213,1.3213,1.328,1.3481,1.4007,1.4822,1.5831,1.7085,1.7567,1.895,2.2192,2.2672,2.3721,2.6217,2.6076,2.5735,2.5292,2.3462,2.208,2.1315,2.0394,1.9791,1.9583,0.0,0.0,0.0,0.0,0.0,0.0,0.0,0.0,0.0,0.0,0.0,0.0,0.0,1.9399,1.9386,1.8798,1.8611,1.8611,0.0,0.0,0.0,0.0,0.0,0.0,0.0,0.0,0.0,0.0,0.0,0.0,0.0,0.0,0.0,0.0,0.0,0.0,0.0,0.0,0.0,0.0,0.0,0.0,0.0,0.0,0.0,0.0,0.0,0.0,0.0,1.2783,1.298,1.337,1.302,1.2842,1.3255,1.3686,1.3831,1.3844,1.3953,1.3928,1.4102,1.4182,1.4123,1.4276,1.0866,1.0761,1.4235,0.581,-0.2831,-1.1678,-1.1641,-1.2259,-1.3746,-1.5017,-1.5533,-1.5309,-1.5459,-1.5418,-1.5235,-1.5357,-1.5364,-1.5282,-1.5215,-1.5181,-1.5181,-1.514,-1.5099,-1.5065,-1.5106,-1.5126,-1.5113,0.0,1.3056,1.2979,1.3362,1.3242,1.312,1.3414,1.4114,1.4932,1.5965,1.6842,1.8196,2.0453,2.1496,2.2659,2.4086,2.4138,2.3723,2.2824,2.1187,2.0126,1.9937,1.9603,1.9435,0.0,0.0,0.0,0.0,0.0,0.0,0.0,0.0,0.0,0.0,0.0,0.0,0.0,0.0,1.9679,2.012,1.9653,1.9546,1.9455,1.8058,1.7028,1.6113,1.441,1.3881,1.3577,1.223,0.0,0.0,0.0,0.0,0.0,0.0,0.0,0.0,0.0,0.0,0.0,0.0,0.0,0.0,0.0,0.0,0.0,0.0,0.0,0.0,0.0,0.0,0.0,0.0,1.262,1.2698,1.2875,1.2852,1.2789,1.3417,1.3912,1.4278,1.4269,1.2495,1.1299,1.1242,1.1299,1.2135,1.4196,1.1574,0.9547,0.8292,-0.2131,-1.0374,-1.6251,-1.5986,-1.5986,-1.5852,-1.5897,-1.5815,-1.5601,-1.5689,-1.5649,-1.5506,-1.5506,-1.5472,-1.5398,-1.5248,-1.5181,-1.5187,0.0,0.0,0.0,0.0,-1.5235,-1.5167,0.0,1.3098,1.2879,1.3593,1.3252,1.2952,1.3106,1.34,1.3908,1.4803,1.5939,1.6981,1.7822,2.0014,2.1511,2.1472,2.2435,2.2092,1.9879,1.9125,1.8803,1.8906,1.9535,0.0,0.0,0.0,0.0,0.0,0.0,0.0,0.0,0.0,0.0,0.0,0.0,0.0,0.0,0.0,1.9933,2.0655,2.0143,2.0318,2.0465,1.7853,1.7121,1.6931,1.3305,1.2741,1.3389,1.0524,0.0,0.0,0.0,0.0,0.0,0.0,0.0,0.0,0.0,0.0,0.0,0.0,0.0,0.0,0.0,0.0,0.0,0.0,0.0,0.0,0.0,0.0,0.0,0.0,1.2345,1.1735,1.2117,1.2843,1.3193,1.2866,1.318,1.3611,1.4302,1.0514,0.7435,0.6386,0.6255,0.8248,1.2482,0.0,0.0,0.0,0.0,-1.6904,-1.646,-1.6543,-1.6293,-1.6103,-1.5967,-1.5886,-1.5852,-1.5872,-1.5798,-1.5662,-1.5662,-1.5588,-1.5445,-1.5276,-1.5201,-1.5201,-1.535,-1.5316,-1.5201,-1.5357,-1.5316,-1.5181,0.0,1.4243,1.4458,1.381,1.3579,1.3372,1.2939,1.3093,1.3614,1.4496,1.5631,1.6607,1.7248,1.8428,1.9275,1.9768,1.9417,1.8763,1.8122,0.0,1.788,0.0,0.0,0.0,0.0,0.0,0.0,0.0,0.0,0.0,0.0,0.0,0.0,0.0,0.0,0.0,0.0,0.0,2.0307,2.0544,1.9088,1.9349,2.0531,1.8593,1.6965,1.5443,1.3072,1.1861,1.1235,1.0074,1.0143,1.0644,0.9964,0.0,0.0,0.0,0.0,0.0,0.0,0.0,0.0,0.0,0.0,0.0,0.0,0.0,0.0,0.0,0.0,0.0,0.0,0.0,0.0,1.1151,1.1826,1.1244,0.8333,1.1475,1.2636,0.855,0.8387,1.005,1.3895,1.3439,0.975,0.1942,0.1364,0.1769,0.2802,-0.6047,-1.1792,-1.37,-1.5647,-1.6735,-1.6728,-1.6503,-1.6415,-1.6266,0.0,0.0,-1.5859,-1.5981,-1.5954,-1.5811,-1.5811,-1.5798,-1.5744,-1.5479,-1.5296,-1.5201,-1.535,-1.5316,-1.5201,-1.5357,-1.5316,-1.5181,0.0,1.3976,1.4458,1.4458,1.4027,1.3492,1.2934,1.2879,1.3293,1.4188,1.507,1.5845,1.642,1.7021,1.7435,1.7582,1.7194,1.7128,0.0,0.0,0.0,0.0,0.0,0.0,0.0,0.0,0.0,0.0,0.0,0.0,0.0,0.0,0.0,0.0,0.0,0.0,0.0,0.0,1.9898,1.9275,1.8512,1.8207,1.8059,1.6392,1.5169,1.4034,1.2083,1.1106,1.0663,1.0283,1.0358,1.0555,1.0256,1.0012,0.9694,0.0,0.0,0.0,0.0,0.0,0.0,0.0,0.0,0.0,0.0,0.0,0.0,0.0,0.0,0.7,0.6725,0.0,0.7636,0.814,1.0605,1.2113,1.0659,1.2668,1.331,1.0855,0.6383,0.4561,0.6963,0.7197,0.5109,0.0401,-0.0,-0.0,-0.0,-0.5386,-1.105,-1.6829,-1.6842,-1.6836,-1.6815,-1.6693,-1.6598,-1.653,-1.6449,-1.6334,-1.6185,-1.6191,-1.6151,-1.6076,-1.592,-1.5852,-1.5832,-1.5533,-1.5323,-1.5201,-1.535,-1.5364,-1.5296,-1.5296,-1.5296,-1.5262,0.0,1.3469,1.395,1.5013,1.453,1.3755,1.3064,1.2858,1.3131,1.3895,1.4509,1.5084,1.5605,1.5925,1.6005,1.5765,1.5899,0.0,0.0,0.0,0.0,0.0,0.0,0.0,0.0,0.0,0.0,0.0,0.0,0.0,0.0,0.0,0.0,0.0,0.0,0.0,0.0,2.0441,1.961,1.8151,1.7943,1.6894,1.5202,1.3507,1.2988,1.3112,1.1387,1.0683,1.0622,1.0561,1.0561,1.0568,1.0446,1.0371,1.027,0.964,0.936,0.0,0.0,0.0,0.0,0.0,0.0,0.0,0.0,0.0,0.9514,0.9406,0.7558,0.5484,0.395,0.3561,0.3848,0.4474,0.7756,1.1003,1.3879,1.2748,1.1619,1.1466,0.4678,-0.0,-0.0,-0.0,-0.0,-0.0,-0.0,-0.0,-0.0,-0.0,-0.4231,-1.3466,-1.5811,-1.7073,-1.7032,-1.6876,-1.6781,-1.6748,-1.6625,-1.6551,-1.6517,-1.6374,-1.6307,-1.6293,-1.5988,-1.5839,-1.5791,-1.552,-1.5323,-1.5194,-1.533,-1.5398,-1.5404,-1.5276,-1.5289,-1.5316,0.0,1.3289,1.3746,1.4964,1.5084,1.4673,1.3725,1.3173,1.2973,1.3614,1.4202,1.4696,1.503,1.5324,1.5484,1.5444,1.6152,0.0,0.0,0.0,0.0,0.0,0.0,0.0,0.0,0.0,0.0,0.0,0.0,0.0,0.0,0.0,0.0,0.0,0.0,0.0,0.0,2.1189,2.0361,1.8569,1.7331,1.5567,1.3578,1.1851,1.212,1.3286,1.1423,1.0555,1.0365,1.0616,1.0439,1.0209,1.0717,1.0683,1.046,1.0297,0.0,0.9724,1.1033,1.0605,0.9759,0.9883,0.9985,1.0243,0.0,0.0,0.9905,0.666,0.8549,0.8676,0.171,0.0529,0.0546,0.0565,0.1156,0.4326,1.3117,0.691,0.1642,0.1666,0.0616,-0.0,-0.0,-0.0,-0.0,-0.0,-0.0,-0.0,-0.0,-0.0,-0.0637,-0.1913,-1.1685,-1.7039,-1.7032,-1.6978,-1.689,-1.6748,-1.6734,-1.6653,-1.6517,-1.6374,-1.6307,-1.6293,-1.5988,-1.5778,-1.5649,-1.5479,-1.5323,-1.5187,-1.5248,-1.535,-1.5452,-1.5404,-1.5309,-1.5201,0.0,0.0,1.3492,1.4706,1.46,1.4027,1.3025,1.2695,1.2639,1.3066,1.3333,1.3601,1.3908,1.4202,1.4442,1.4616,0.0,0.0,0.0,0.0,0.0,0.0,0.0,0.0,0.0,0.0,0.0,0.0,0.0,0.0,0.0,0.0,0.0,0.0,0.0,0.0,0.0,2.1697,2.0191,1.7395,1.682,1.4711,1.188,1.1219,1.1178,1.159,1.0836,1.0507,0.0,0.0,1.0317,1.0337,1.0507,1.0527,1.0473,1.0392,1.0075,0.0,1.044,1.0334,0.0,0.0,1.0568,1.0995,1.1777,1.1951,1.0987,0.7386,0.562,0.3878,0.0547,-0.0,-0.0,0.0,-0.0,0.1427,0.5377,0.2492,-0.0,-0.0,-0.0,-0.0,-0.0,-0.0,-0.0,-0.0,-0.0,-0.0,-0.0,-0.0,-0.0,-0.0,-0.4668,-1.0196,-1.6855,-1.706,-1.6965,-1.6788,-1.6788,-1.6693,-1.6517,-1.6374,-1.6212,-1.6042,-1.6001,-1.5805,-1.5506,-1.5533,-1.5398,-1.5174,-1.5113,-1.5174,-1.5303,-1.5337,-1.5309,-1.5423,0.0,0.0,0.0,1.3598,1.3584,1.3472,1.3491,1.3302,1.3198,1.3525,1.3554,1.362,1.3553,1.3628,1.3734,1.3948,0.0,0.0,0.0,0.0,0.0,0.0,0.0,0.0,0.0,0.0,0.0,0.0,0.0,0.0,0.0,0.0,0.0,0.0,0.0,0.0,0.0,2.2071,2.0342,1.7495,1.7559,1.5517,1.2473,1.2246,1.1957,1.1614,1.0841,1.0331,0.0,0.0,1.0148,1.0202,1.0304,1.0412,1.0466,1.0324,1.0163,1.0029,0.9969,0.0,0.0,1.0622,1.1165,1.1742,1.2306,1.2841,1.2408,0.9983,0.6728,0.3832,0.2462,0.213,0.1778,0.0203,-0.0,-0.0,-0.0,-0.0,-0.0,-0.0,-0.0,-0.0,-0.0,-0.0,-0.0,-0.0,-0.0,-0.0,-0.0,-0.0,-0.0,-0.0,-0.0,-0.4036,-1.2142,-1.3819,-1.4598,-1.4481,-1.5937,-1.648,-1.653,-1.6334,-1.6103,-1.5852,-1.5886,-1.571,-1.5411,-1.5445,-1.5323,-1.5113,-1.4977,-1.4984,-1.5079,-1.4966,-1.5194,-1.5368,0.0,0.0,0.0,0.0,1.2187,1.3551,1.6104,1.572,1.5215,1.5503,1.5553,1.5237,1.4602,1.4017,1.3559,0.0,0.0,0.0,0.0,1.7689,0.0,0.0,0.0,0.0,0.0,0.0,0.0,0.0,0.0,0.0,0.0,0.0,0.0,0.0,0.0,0.0,2.2004,2.2285,2.1302,1.9539,1.9795,1.8627,1.6395,1.5833,1.5535,1.4944,1.1637,0.0,0.0,0.0,0.989,0.9537,1.0256,1.0487,0.0,1.0324,1.0073,0.9869,0.0,0.0,1.0726,1.1036,1.1708,1.2413,1.2996,1.3505,1.3814,1.409,1.4517,1.3264,0.8626,0.7766,0.613,0.0822,-0.0,-0.0,-0.0,-0.0,-0.0,-0.0,-0.0,-0.0,0.0,-0.0,-0.0,-0.0,-0.0,-0.0,-0.0,-0.0,-0.0,-0.0,-0.0,-0.0212,-0.0425,-0.61,-0.8796,-0.8793,-1.3962,-1.642,-1.6366,-1.6239,-1.6001,-1.5839,-1.5554,-1.5425,-1.5391,-1.5106,-1.4984,-1.4964,-1.4848,-1.4801,-1.4624,-1.4671,-1.4916,-1.4957,0.0,0.0,0.0,0.0,0.0,1.3854,1.6278,1.5514,1.4854,1.5287,1.5551,0.0,0.0,0.0,0.0,0.0,0.0,0.0,0.0,1.7181,0.0,0.0,0.0,0.0,0.0,0.0,0.0,0.0,0.0,0.0,0.0,0.0,0.0,0.0,0.0,0.0,2.2579,2.2672,2.1594,1.9922,1.9828,1.8494,1.655,1.6125,1.5513,1.4831,0.0,0.0,0.0,0.0,0.0,0.9557,0.9707,0.989,1.0039,0.9992,0.9971,1.0025,1.0276,0.0,1.1207,1.1619,1.2325,1.2983,1.3383,1.3831,1.4231,1.4303,1.4263,1.3528,1.2278,1.25,1.2167,1.0656,0.7566,0.4072,0.0412,-0.0,-0.0,-0.0,-0.0,0.0,0.0,0.0,0.0,-0.0,-0.0,-0.0,-0.0,-0.0,-0.0,-0.0,-0.0,-0.0,-0.0,-0.1894,-0.2919,-0.2878,-0.8308,-1.2706,-1.6178,-1.5934,-1.5744,-1.5594,-1.5574,-1.5391,-1.512,-1.5327,-1.5217,-1.4841,-1.4733,-1.4746,-1.4618,-1.4443,-1.4638,-1.474,0.0,0.0,0.0,0.0,0.0,0.0,0.0,0.0,0.0,0.0,0.0,0.0,0.0,0.0,0.0,0.0,0.0,0.0,0.0,0.0,0.0,0.0,0.0,0.0,0.0,0.0,0.0,0.0,0.0,0.0,0.0,0.0,0.0,0.0,0.0,0.0,2.2552,2.2552,2.1797,2.0589,2.0306,1.9172,1.777,1.7345,1.6697,0.0,0.0,0.0,0.0,0.0,0.0,1.135,1.1302,1.1438,1.139,1.0852,1.0863,1.0966,1.0747,1.1056,1.1558,1.2216,1.2861,1.3417,1.3715,1.4055,1.4292,1.4272,1.3914,1.3601,1.382,1.415,1.4551,1.5077,1.25,0.935,0.6185,0.3987,0.1974,0.0194,-0.0,-0.0,0.0,0.0,0.0,-0.0,-0.0,-0.0,-0.0,-0.0,-0.0,-0.0,-0.0,-0.0,-0.0,-0.0,-0.0,-0.0,-0.359,-0.6931,-1.0478,-1.2288,-1.3926,-1.5602,-1.5568,-1.5382,-1.5121,-1.5183,-1.4145,-1.2295,-1.2006,-1.2012,-1.1875,-1.1721,-1.1894,-1.2153,0.0,0.0,0.0,0.0,0.0,0.0,0.0,0.0,0.0,0.0,0.0,0.0,0.0,0.0,0.0,0.0,0.0,0.0,0.0,0.0,0.0,0.0,0.0,0.0,0.0,0.0,0.0,0.0,0.0,0.0,0.0,0.0,0.0,0.0,0.0,2.2119,2.2133,2.2002,2.184,2.1558,2.1149,2.0695,2.0094,1.9265,0.0,0.0,0.0,0.0,0.0,0.0,0.0,0.0,0.0,1.4619,1.4321,1.2961,1.2781,1.2722,1.1711,1.1667,1.2189,1.2793,1.3315,1.3715,1.3994,1.417,1.419,1.3871,1.3668,1.3498,0.0,0.0,1.3336,1.4146,1.4604,1.5202,1.5997,1.1317,0.6297,0.0,0.0,0.0,0.0,0.0,0.0,-0.0,0.0,-0.0,-0.0,-0.0,-0.0,-0.0,-0.0,-0.0,-0.0,-0.0,-0.0,-0.0,-0.0,-0.0,-0.0195,-0.5356,-1.0262,-1.4884,-1.4785,-1.4841,-1.4828,-1.4692,-1.2034,-0.7798,-0.6998,-0.679,-0.679,-0.6971,-0.7149,-0.7691,0.0,0.0,0.0,0.0,0.0,0.0,0.0,0.0,0.0,0.0,0.0,0.0,0.0,0.0,0.0,0.0,0.0,0.0,0.0,0.0,0.0,0.0,0.0,0.0,0.0,0.0,0.0,0.0,0.0,0.0,0.0,0.0,0.0,0.0,0.0,2.2955,2.3184,2.2122,2.1704,2.1632,0.0,1.992,1.9559,0.0,0.0,0.0,0.0,0.0,0.0,0.0,0.0,0.0,0.0,1.4952,1.5258,1.5107,1.5317,1.5271,1.4164,1.4179,1.4306,1.345,1.3539,1.381,1.4057,1.4112,1.4194,1.3424,1.2874,1.2386,0.0,0.0,0.0,1.303,1.3966,0.0,1.4871,1.4391,0.0,1.1818,0.0,-0.0,-0.0,-0.0,0.0,0.0,-0.0,-0.0,-0.0,-0.0,-0.0,-0.0,-0.0,-0.0,-0.0,-0.0,-0.0,-0.0,-0.0,-0.0,-0.0,-0.1507,-0.2799,-0.4131,-0.7973,-0.9556,-0.9858,-1.3556,-1.4049,-1.1922,-0.4666,-0.1793,-0.2151,-0.5744,-0.7187,-0.7187,0.0,0.0,0.0,0.0,0.0,0.0,0.0,0.0,0.0,0.0,0.0,0.0,0.0,0.0,0.0,0.0,0.0,0.0,0.0,0.0,0.0,0.0,0.0,0.0,0.0,0.0,0.0,0.0,0.0,0.0,0.0,0.0,0.0,0.0,0.0,2.2704,2.3007,0.0,0.0,0.0,0.0,0.0,0.0,0.0,0.0,0.0,0.0,0.0,0.0,0.0,0.0,1.7101,1.7556,1.7894,1.8117,1.8038,0.0,1.8015,1.586,1.5666,1.5721,1.4055,1.377,1.379,1.4112,1.4187,1.3945,1.2943,1.2359,0.0,1.1192,0.0,0.0,0.0,0.0,0.0,1.4461,1.5255,1.5725,0.0,1.0578,0.0,0.3709,0.3515,0.2557,0.0,-0.0,-0.0,-0.0,-0.0,-0.0,-0.0,-0.0,-0.0,-0.0,-0.0,-0.0,-0.0,-0.0,-0.0,-0.0,-0.0,-0.0,-0.0185,-0.3108,-0.4355,-0.4514,-0.7425,-0.8316,-0.7549,-0.2154,-0.0,-0.0359,-0.3053,-0.3953,-0.3953,0.0,0.0,0.0,0.0,0.0,0.0,0.0,0.0,0.0,0.0,1.791,1.8262,0.0,0.0,0.0,0.0,0.0,0.0,0.0,0.0,0.0,0.0,0.0,0.0,0.0,0.0,0.0,0.0,0.0,0.0,0.0,0.0,0.0,0.0,0.0,0.0,0.0,0.0,0.0,0.0,0.0,0.0,0.0,0.0,0.0,0.0,0.0,0.0,0.0,0.0,1.9666,2.016,2.1269,2.1697,2.174,2.1303,2.1366,2.0897,1.7842,1.7396,1.7312,1.5466,1.46,1.4189,1.4208,1.396,1.3389,1.2135,0.0,1.1163,1.048,1.067,1.1063,1.1592,0.0,1.3342,1.4367,1.4794,1.5341,1.5973,1.5805,1.4114,0.9534,0.9138,0.7184,0.2421,0.0801,-0.0,-0.0,-0.0,-0.0,-0.0,-0.0,-0.0,-0.0,-0.0,-0.0,-0.0,-0.0,-0.0,-0.0,-0.0,-0.0,-0.0,-0.0,-0.0,-0.0,-0.0,-0.0,-0.0,-0.0,-0.0,-0.0,-0.0,-0.0,-0.0,0.0,0.0,0.0,0.0,0.0,0.0,0.0,0.0,0.0,0.0,1.8711,1.8691,0.0,0.0,0.0,0.0,0.0,0.0,0.0,0.0,0.0,0.0,0.0,0.0,0.0,0.0,0.0,0.0,0.0,0.0,0.0,0.0,0.0,0.0,0.0,0.0,0.0,0.0,0.0,0.0,0.0,0.0,0.0,0.0,0.0,0.0,0.0,0.0,0.0,0.0,2.0241,2.1002,2.1697,2.2418,2.3067,2.3694,2.4166,2.3971,2.2303,2.2095,2.1894,2.0041,1.7944,1.6121,1.4283,1.3077,0.0,0.0,0.9869,0.979,0.9848,1.0283,0.0,1.183,0.0,0.0,0.0,0.0,1.5181,0.0,0.0,0.0,0.0,0.0,0.0,0.0,0.0,-0.0,-0.0,-0.0,-0.0,-0.0,-0.0,-0.0,-0.0,-0.0,-0.0,-0.0,-0.0,-0.0,-0.0,-0.0,-0.0,-0.0,-0.0,-0.0,-0.0,-0.0,-0.0,-0.0,-0.0,-0.0,-0.0,-0.0,-0.0,-0.0,0.0,0.0,0.0,0.0,0.0,0.0,0.0,1.6526,1.8064,2.0391,2.0449,2.0234,1.998,1.9961,2.0039,0.0,0.0,0.0,0.0,0.0,0.0,0.0,0.0,0.0,0.0,0.0,0.0,0.0,0.0,0.0,0.0,0.0,0.0,0.0,0.0,0.0,0.0,0.0,0.0,0.0,0.0,0.0,0.0,0.0,0.0,0.0,0.0,0.0,0.0,0.0,1.9907,2.1096,2.2298,2.3193,2.3981,2.5024,2.5638,2.5636,2.3896,2.3833,2.3649,2.1387,1.9638,1.7773,1.4908,0.0,0.0,0.0,1.1526,1.071,1.0654,0.0,0.0,0.0,0.0,0.0,0.0,0.0,0.0,0.0,0.0,0.0,0.0,0.0,0.0,0.0,0.0,0.382,0.0202,-0.0,-0.0,-0.0,-0.0,-0.0,-0.0,-0.0,-0.0,-0.0,-0.0,-0.0,-0.0,-0.0,-0.0,-0.0,-0.0,-0.0,-0.0,-0.0,-0.0,-0.0,-0.0,-0.0,-0.0,-0.0,-0.0,-0.0,0.0,0.0,0.0,0.0,0.0,0.0,1.5242,1.6392,1.8253,2.1024,2.1702,2.164,2.079,2.0779,2.082,0.0,0.0,0.0,0.0,0.0,0.0,0.0,0.0,0.0,0.0,0.0,0.0,1.6303,0.0,0.0,0.0,0.0,0.0,0.0,0.0,0.0,0.0,0.0,0.0,0.0,0.0,0.0,0.0,0.0,0.0,0.0,0.0,0.0,0.0,0.0,1.9105,2.0401,2.2058,2.3273,2.4315,2.5371,2.6172,2.6479,2.4997,2.4975,2.502,2.306,2.1482,1.9707,1.7039,1.5165,0.0,0.0,1.4015,1.2918,1.1509,0.0,0.0,0.0,0.0,0.0,0.0,0.0,0.0,0.0,0.0,0.0,0.0,0.0,0.0,0.0,0.0,0.0,0.201,0.0593,-0.0,-0.0,-0.0,-0.0,-0.0,-0.0,-0.0,-0.0,-0.0,-0.0,-0.0,-0.0,-0.0,-0.0,-0.0,-0.0,-0.0,-0.0,-0.0,-0.0,-0.0,-0.0,-0.0,-0.0,-0.0,-0.0,0.0,0.0,0.0,0.0,0.0,0.0,1.4525,1.606,1.7796,1.9379,2.0993,2.1771,2.1121,2.1513,2.1602,0.0,0.0,0.0,0.0,0.0,0.0,0.0,0.0,0.0,0.0,0.0,0.0,1.9082,1.9356,0.0,0.0,0.0,0.0,0.0,0.0,1.9679,0.0,0.0,0.0,0.0,0.0,0.0,0.0,0.0,0.0,0.0,0.0,0.0,0.0,0.0,0.0,1.8504,1.9733,2.1817,2.3941,2.4569,0.0,0.0,2.6945,2.735,2.7733,2.7289,2.4864,2.2484,2.1753,0.0,0.0,1.4778,1.5979,1.592,1.2033,0.0,0.0,0.0,0.0,1.1477,0.0,0.0,0.0,0.0,0.0,0.0,0.0,0.0,0.0,0.0,0.0,0.0,0.7135,0.2536,-0.0,-0.0,-0.0,-0.0,-0.0,-0.0,-0.0,-0.0,-0.0,-0.0,-0.0,-0.0,-0.0,-0.0,-0.0,-0.0,-0.0,-0.0,-0.0,-0.0,-0.0,-0.0,-0.0,-0.0,-0.0,-0.0,0.0,0.0,0.0,0.0,0.0,0.0,1.4319,1.5529,1.71,1.9471,2.0408,2.0891,2.0992,2.1499,2.1776,2.1617,0.0,0.0,0.0,0.0,0.0,0.0,0.0,0.0,0.0,0.0,1.9255,1.8503,1.9642,0.0,0.0,0.0,0.0,0.0,0.0,1.8411,1.8503,0.0,0.0,0.0,0.0,0.0,0.0,0.0,0.0,0.0,0.0,0.0,0.0,0.0,0.0,0.0,1.917,2.1003,0.0,0.0,2.4409,2.5545,2.648,2.7295,2.7843,2.7722,2.5766,2.3651,2.2618,0.0,0.0,1.6648,1.706,1.6845,1.4266,1.2302,0.0,0.0,0.0,0.0,0.0,0.0,0.0,0.0,0.0,0.0,0.0,0.0,0.0,0.0,0.0,0.0,1.194,1.0,0.7504,0.4291,0.4277,0.4252,0.4207,0.1464,-0.0,-0.0,-0.0,-0.0,-0.0,-0.0,-0.0,-0.0,-0.0,-0.0,-0.0,-0.0,-0.0,-0.0,-0.0,-0.0,-0.0,-0.0,-0.0,-0.0,0.0,0.0,0.0,0.0,0.0,1.197,1.3667,1.4506,1.586,1.8364,1.9159,1.9668,2.0181,2.0881,2.1301,2.1281,2.1033,0.0,0.0,0.0,0.0,0.0,0.0,0.0,0.0,0.0,2.0341,1.9124,2.0407,2.0727,0.0,0.0,1.7493,1.6936,0.0,0.0,0.0,0.0,0.0,0.0,0.0,0.0,0.0,0.0,0.0,0.0,0.0,0.0,0.0,0.0,0.0,0.0,0.0,0.0,0.0,0.0,2.3774,2.5496,2.6184,2.7203,2.8125,2.8221,2.6411,2.4142,0.0,0.0,0.0,1.7943,1.7556,1.7145,1.5648,1.3696,1.2192,1.1515,0.0,1.0244,1.0683,0.0,0.0,0.0,0.0,0.0,0.0,0.0,0.0,0.0,0.0,0.0,1.4611,1.4665,1.3035,0.9364,0.9343,0.9299,0.923,0.5968,0.3602,0.2145,0.2148,0.1434,-0.0,-0.0,0.1614,0.4128,0.1256,0.0718,0.1971,0.0538,-0.0,-0.0,-0.0,-0.0,-0.0,-0.0,-0.0,-0.0,0.0,0.0,0.0,0.0,0.0,1.1623,1.2211,1.3066,1.4068,1.5244,1.6843,1.8127,1.8483,1.9495,2.0025,1.9915,1.9991,0.0,0.0,0.0,0.0,0.0,0.0,0.0,0.0,0.0,2.2301,2.1933,2.2025,2.2574,2.3699,2.0041,1.8722,1.9314,0.0,0.0,0.0,0.0,0.0,0.0,0.0,0.0,0.0,0.0,0.0,0.0,0.0,0.0,0.0,0.0,0.0,0.0,0.0,0.0,0.0,0.0,2.3856,2.6851,2.6664,2.7821,2.9086,2.9567,2.6847,2.3888,0.0,0.0,0.0,1.7836,1.7582,1.7147,1.5636,1.5423,1.4526,1.1784,1.1578,1.1487,1.067,0.0,0.0,0.0,0.0,0.0,0.0,0.0,0.0,0.0,0.0,0.0,1.4312,1.4306,1.4387,1.4563,1.4283,1.4229,1.4222,1.4222,1.1665,0.6968,0.6968,0.4646,-0.0,-0.0,0.5194,1.3541,0.4128,0.2687,0.6611,0.1971,-0.0,-0.0,-0.0,-0.0,-0.0,-0.0,-0.0,-0.0,0.0,0.0,0.0,0.0,0.0,0.0,1.2211,1.2893,1.3774,1.495,1.5718,1.648,1.7202,1.8163,1.8354,1.7505,1.8541,0.0,0.0,0.0,0.0,0.0,0.0,0.0,0.0,0.0,2.3248,2.2822,2.3692,2.3539,2.2442,2.0981,1.9202,1.7251,1.6512,1.6019,0.0,0.0,0.0,0.0,0.0,0.0,0.0,0.0,0.0,0.0,0.0,0.0,0.0,0.0,0.0,0.0,0.0,0.0,0.0,2.0032,2.2288,2.4492,2.5282,2.6346,2.7262,2.7509,2.5308,2.2964,2.2124,0.0,0.0,0.0,0.0,1.712,1.6897,1.6062,1.5286,1.4869,1.4164,1.3168,1.2101,0.0,0.0,0.0,0.0,0.0,0.0,0.0,0.0,0.0,0.0,1.4346,1.4299,1.4299,1.4326,1.438,1.4353,1.4333,1.4333,1.436,1.3458,1.1999,1.2016,1.1083,0.9401,0.6237,0.6387,0.9127,0.9378,0.8505,0.7244,0.8799,0.5632,-0.0,-0.0,-0.0,-0.0,-0.0,-0.0,-0.0,0.0,0.0,0.0,0.0,0.0,0.0,1.2064,1.2652,1.3387,1.4335,1.4816,1.5404,1.6273,1.687,1.7007,1.6357,1.7124,0.0,0.0,0.0,0.0,0.0,0.0,0.0,2.0517,2.2674,2.3706,2.342,2.4268,2.3962,2.2689,2.1452,1.9598,1.7107,1.663,1.6206,0.0,0.0,0.0,0.0,0.0,0.0,1.5757,0.0,0.0,0.0,0.0,0.0,0.0,0.0,0.0,0.0,0.0,0.0,0.0,0.0,2.0456,2.2429,0.0,2.5774,2.6504,2.676,2.4727,0.0,0.0,0.0,0.0,0.0,0.0,0.0,1.7542,1.6817,1.6233,1.6057,1.5434,1.452,1.3416,0.0,0.0,0.0,0.0,0.0,0.0,0.0,0.0,0.0,0.0,1.4129,1.4129,1.4075,1.4048,1.4048,1.4156,1.4183,1.4129,1.415,1.4156,1.4156,1.4177,1.3974,1.3713,1.0936,0.9472,0.9534,1.2445,1.2114,0.0,1.257,1.0468,0.5063,0.3297,0.156,-0.0,-0.0,-0.0,-0.0,0.0,0.0,0.0,0.0,0.0,0.0,0.0,1.2459,1.2959,1.3561,1.4162,1.4843,1.5712,1.5818,1.5939,1.6219,1.5992,0.0,0.0,0.0,0.0,0.0,0.0,0.0,2.0195,2.2592,2.3897,2.4035,2.4115,2.4128,2.4146,2.1767,1.9941,1.8489,1.7327,1.6393,0.0,0.0,0.0,0.0,1.6166,1.6126,0.0,0.0,0.0,0.0,0.0,0.0,0.0,0.0,0.0,0.0,0.0,0.0,0.0,0.0,0.0,0.0,0.0,2.5415,2.6303,2.6902,2.4918,2.2625,0.0,0.0,0.0,0.0,0.0,0.0,0.0,1.7569,1.716,1.5791,1.5802,1.5601,1.4719,0.0,0.0,0.0,0.0,0.0,0.0,0.0,0.0,0.0,1.381,1.381,1.381,1.3682,1.3607,1.36,1.3865,1.3946,1.381,1.3817,1.3817,1.381,1.381,1.3824,1.4016,1.368,1.3673,1.3653,1.3528,1.3515,1.3797,1.37,1.3707,1.3317,0.8805,0.4659,0.0863,0.0173,-0.0,-0.0,0.0,0.0,0.0,0.0,0.0,0.0,0.0,0.0,0.0,0.0,1.4162,1.4763,1.5431,1.5698,1.5858,0.0,0.0,0.0,0.0,0.0,0.0,0.0,0.0,0.0,2.1529,2.335,2.4808,2.5814,2.6136,2.5947,2.5162,2.3544,2.1439,1.913,1.7747,1.6593,0.0,0.0,0.0,0.0,1.6339,1.6366,0.0,0.0,0.0,0.0,1.5832,1.5832,0.0,0.0,0.0,0.0,0.0,0.0,0.0,0.0,1.8009,1.8613,2.0329,0.0,2.3746,2.4843,2.3754,2.242,0.0,0.0,0.0,0.0,0.0,0.0,0.0,0.0,1.7623,1.7746,1.7948,1.7754,1.6854,0.0,0.0,0.0,0.0,0.0,0.0,0.0,0.0,0.0,1.3505,1.3505,1.3505,1.3471,1.3403,1.3281,1.3349,1.3424,1.3505,1.362,1.362,1.3505,1.3505,1.3444,1.3349,1.3464,1.339,1.3186,1.3137,1.3342,1.3329,1.3349,1.337,1.3383,1.2032,1.1037,0.9378,0.2527,-0.0,-0.0,0.0,0.0,0.0,0.0,0.0,0.0,0.0,0.0,0.0,0.0,1.3961,1.4549,1.5137,1.5578,1.5832,0.0,0.0,0.0,0.0,0.0,0.0,0.0,0.0,2.0459,2.1142,2.2778,2.4183,2.5528,2.5928,2.6101,2.5829,2.42,2.2124,1.9547,1.7468,1.6273,0.0,0.0,0.0,0.0,1.6286,0.0,0.0,0.0,0.0,0.0,1.5832,1.5832,0.0,1.5832,1.5832,1.5832,0.0,0.0,0.0,0.0,1.6857,1.7124,1.8319,2.0002,2.1567,2.2222,2.224,2.1866,2.0718,0.0,0.0,0.0,0.0,0.0,0.0,0.0,0.0,1.7996,1.833,1.8564,0.0,0.0,0.0,0.0,0.0,0.0,0.0,0.0,1.32,1.32,1.3132,1.3125,1.3193,1.3064,1.2949,1.2868,1.2868,1.2976,1.32,1.3281,1.3281,1.32,1.32,1.3159,1.3078,1.3159,1.3112,1.2963,1.3044,1.3078,1.3078,1.3078,1.3085,1.3267,1.3105,1.3125,1.2501,0.7917,0.3481,-0.0,0.0,0.0,0.0,0.0,0.0,0.0,0.0,0.0,0.0,0.0,0.0,0.0,0.0,0.0,0.0,0.0,0.0,0.0,0.0,0.0,0.0,0.0,1.8611,1.9418,1.9903,2.1414,2.2919,2.4481,2.4945,2.5504,2.6299,2.4693,2.2505,1.9671,1.7302,1.6103,0.0,0.0,0.0,0.0,1.6179,0.0,0.0,0.0,0.0,0.0,0.0,0.0,0.0,1.5832,1.5832,1.5832,1.5832,0.0,0.0,0.0,0.0,0.0,1.7196,1.8486,1.9589,1.9805,2.061,2.0905,1.8752,0.0,0.0,0.0,0.0,0.0,0.0,0.0,0.0,0.0,0.0,0.0,0.0,0.0,0.0,0.0,0.0,0.0,0.0,1.3027,1.2827,1.2827,1.2705,1.2684,1.2813,1.2576,1.2433,1.2433,1.2433,1.2562,1.282,1.2895,1.2901,1.2861,1.2881,1.2881,1.2861,1.2861,1.2847,1.2827,1.2827,1.2827,1.2827,1.2847,1.2847,1.2827,1.2847,1.2874,1.2742,1.3123,0.808,0.097,0.0,0.0,0.0,0.0,0.0,0.0,0.0,0.0,0.0,0.0,0.0,0.0,0.0,0.0,0.0,0.0,0.0,0.0,0.0,0.0,0.0,1.6483,1.7457,1.8236,1.8941,1.9955,2.1769,2.4361,2.4488,2.5581,2.7439,2.6226,2.3584,1.9789,1.8835,1.7423,1.5845,1.6152,1.6246,1.6206,1.6357,0.0,0.0,0.0,0.0,0.0,0.0,0.0,0.0,1.5832,1.5832,1.5832,1.5832,0.0,0.0,0.0,0.0,0.0,1.6415,1.709,1.791,1.9252,1.9671,1.9762,0.0,0.0,0.0,0.0,0.0,0.0,0.0,0.0,0.0,0.0,0.0,0.0,0.0,0.0,0.0,0.0,0.0,0.0,1.4188,1.2947,1.2203,1.2203,1.2176,1.2176,1.2203,1.2155,1.2128,1.2128,1.2128,1.2149,1.2203,1.2576,1.2644,1.2393,1.2515,1.2508,1.2393,1.2393,1.2325,1.2203,1.2203,1.2203,1.221,1.2338,1.2318,1.2216,1.2345,1.2393,1.242,1.2576,0.9667,0.5117,0.0,0.0,0.0,0.0,0.0,0.0,0.0,0.0,0.0,0.0,0.0,0.0,0.0,0.0,0.0,0.0,0.0,0.0,0.0,0.0,1.5965,1.6259,1.6718,1.7049,1.7428,1.8874,2.0436,2.21,2.3419,2.4558,2.5559,2.4561,2.2804,2.0628,1.9161,1.7558,1.5832,1.5979,1.6032,1.6032,0.0,0.0,0.0,0.0,0.0,0.0,0.0,0.0,0.0,0.0,1.5832,1.5832,1.5832,0.0,0.0,0.0,0.0,0.0,1.5992,1.6233,1.666,1.7538,1.8753,1.9444,0.0,0.0,0.0,0.0,0.0,0.0,0.0,0.0,0.0,0.0,0.0,0.0,0.0,0.0,0.0,0.0,0.0,1.5696,1.4728,1.2838,1.1857,1.1932,1.1864,1.1857,1.1932,1.1864,1.1857,1.1932,1.1864,1.1823,1.1823,1.2101,1.2216,1.2169,1.223,1.223,1.2169,1.2169,1.2128,1.206,1.206,1.206,1.2067,1.2135,1.2128,1.2067,1.2142,1.2169,1.2182,1.2277,0.8473,0.279,0.0,0.0,0.0,0.0,0.0,0.0,0.0,0.0,0.0,0.0,0.0,0.0,0.0,0.0,0.0,0.0,0.0,0.0,0.0,1.5872,1.5992,1.6366,1.6313,1.6339,1.6473,1.801,1.9258,2.0227,2.2041,2.3213,2.3805,2.3004,2.2022,2.0899,1.9326,1.7558,1.5832,1.5832,1.5832,1.5832,0.0,0.0,0.0,0.0,0.0,0.0,0.0,0.0,0.0,0.0,0.0,0.0,0.0,0.0,0.0,1.5832,1.5832,1.5845,1.5912,1.5979,1.6072,1.6233,0.0,0.0,0.0,0.0,0.0,0.0,0.0,0.0,0.0,0.0,0.0,0.0,0.0,2.0468,2.1122,2.0029,1.9316,1.9644,1.6818,1.4832,1.4694,1.2775,1.1558,1.1667,1.1572,1.1558,1.1667,1.1572,1.1558,1.1674,1.1565,1.1511,1.1511,1.1619,1.1769,1.1959,1.1959,1.1938,1.1904,1.1904,1.1884,1.185,1.185,1.185,1.185,1.185,1.185,1.185,1.185,1.1898,1.1965,1.2006,0.8117,0.257,0.0,0.0,0.0,0.0,0.0,0.0,0.0,0.0,0.0,0.0,0.0,0.0,0.0,0.0,0.0,0.0,0.0,0.0,0.0,1.5979,1.6086,1.6647,1.642,1.6526,1.7074,1.723,1.8254,2.0121,2.0602,2.1853,2.3822,2.3519,2.2118,1.9876,1.9527,1.7978,1.5832,1.5832,1.5832,1.5832,1.5832,0.0,0.0,0.0,0.0,0.0,0.0,0.0,0.0,0.0,0.0,0.0,0.0,0.0,1.5832,1.5832,1.5832,1.5885,1.6166,1.6433,1.658,1.6339,0.0,0.0,0.0,0.0,0.0,0.0,0.0,0.0,0.0,0.0,0.0,0.0,0.0,2.0535,2.1403,0.0,2.085,1.9444,1.7577,1.5827,1.4087,1.2298,1.1199,1.1212,1.1199,1.1199,1.1212,1.1199,1.1199,1.1212,1.1199,1.1199,1.1199,1.1206,1.1362,1.1653,1.1653,1.1579,1.1436,1.1436,1.1362,1.1226,1.1226,1.1226,1.1226,1.1226,1.1226,1.1226,1.1226,1.1402,1.166,1.1569,1.1462,1.0156,0.0,0.0,0.0,0.0,0.0,0.0,0.0,0.0,0.0,0.0,0.0,0.0,0.0,0.0,0.0,0.0,0.0,0.0,0.0,1.5792,1.6005,1.642,1.6326,1.646,1.686,1.7422,1.8198,1.9334,1.9752,2.09,2.2658,2.1899,2.091,1.9804,1.9175,1.7934,1.6086,1.5912,1.5939,1.6086,1.5899,1.5832,0.0,0.0,0.0,0.0,0.0,0.0,0.0,0.0,1.5832,1.5832,1.5832,1.5832,1.5832,1.5832,1.5832,1.5858,1.5965,1.5511,0.0,0.0,0.0,0.0,0.0,0.0,0.0,0.0,0.0,0.0,0.0,0.0,0.0,0.0,2.0134,2.0695,2.1203,2.143,2.1397,2.1002,1.9287,1.7534,1.5769,1.3773,1.224,1.1029,1.1029,1.1029,1.1029,1.1029,1.107,1.1158,1.1077,1.107,1.1165,1.1077,1.1084,1.1206,1.1294,1.1307,1.1246,1.1246,1.1219,1.1165,1.1165,1.1165,1.1165,1.1165,1.1165,1.1165,1.1165,1.1246,1.1375,1.1396,1.164,1.1345,0.0,0.0,0.0,0.0,0.0,0.0,0.0,0.0,0.0,0.0,0.0,0.0,0.0,0.0,0.0,0.0,0.0,0.0,1.5391,1.5578,1.5858,1.6259,1.6273,1.646,1.6834,1.7448,1.805,1.8651,1.9132,1.9979,2.096,2.0312,1.9664,1.924,1.86,1.7696,1.6526,1.6139,1.6086,1.6246,1.5952,1.5832,0.0,0.0,0.0,0.0,0.0,0.0,0.0,0.0,1.5832,1.5832,1.5832,1.5832,1.5832,1.5832,1.5832,1.5724,1.5343,1.4594,1.3947,0.0,0.0,0.0,0.0,0.0,0.0,0.0,0.0,0.0,0.0,0.0,0.0,0.0,1.853,1.8989,1.9261,1.9586,1.9799,1.9943,1.8387,1.6828,1.5701,1.372,1.2067,1.0873,1.0873,1.0853,1.0806,1.0806,1.0833,1.088,1.0792,1.0785,1.0887,1.0785,1.0738,1.0738,1.0839,1.0934,1.1023,1.1023,1.1023,1.1023,1.1023,1.1023,1.1023,1.1023,1.1029,1.1036,1.1036,1.1084,1.1151,1.1165,1.1372,1.1314,0.0,0.0,0.0,0.0,0.0,0.0,0.0,0.0,1.4629,1.4923,1.471,0.0,0.0,0.0,0.0,0.0,0.0,0.0,1.5364,1.5391,1.5658,1.6246,1.6259,1.654,1.7128,1.7141,1.7435,1.805,1.8918,1.9199,1.8918,1.8918,1.8597,1.7996,1.7716,1.7422,1.7203,1.6526,1.6273,1.6246,1.5952,1.5832,1.5832,0.0,0.0,0.0,0.0,0.0,0.0,0.0,1.5832,1.5832,1.5832,1.5832,1.5832,1.5832,1.5832,1.5534,1.4268,1.3872,0.0,0.0,0.0,0.0,0.0,0.0,0.0,0.0,0.0,0.0,0.0,0.0,0.0,1.4269,1.4759,1.5126,1.5474,1.5515,1.5587,1.5676,1.418,1.3113,1.3299,1.1762,1.0717,1.0717,1.0717,1.0649,1.05,1.0487,1.0426,1.0283,1.0283,1.0283,1.0283,1.0283,1.0283,1.0283,1.0283,1.0432,1.0717,1.0717,1.0717,1.0717,1.0717,1.0717,1.0717,1.0717,1.0731,1.0751,1.0751,1.0725,1.0736,1.0633,1.1027,1.0436,0.0,0.0,0.0,0.0,0.0,0.0,0.0,0.0,1.4629,1.4923,1.471,0.0,0.0,0.0,0.0,0.0,0.0,0.0,1.4776,1.4977,1.5257,1.5645,1.5658,1.5832,1.6219,1.662,1.7235,1.805,1.8317,1.8504,1.8611,1.8384,1.8076,1.7702,1.7622,1.7301,1.6807,1.6433,1.6273,1.6246,1.5952,1.5832,1.5832,0.0,0.0,0.0,0.0,0.0,0.0,0.0,0.0,0.0,1.5832,1.5832,1.5832,1.5832,1.5832,1.5534,1.4268,1.3322,0.0,0.0,0.0,0.0,0.0,0.0,0.0,0.0,0.0,0.0,0.0,0.0,0.0,1.4245,1.4639,1.5075,1.5136,1.5412,1.5535,1.5597,1.5107,1.4313,1.3234,1.2636,1.1721,1.0678,1.0466,1.0392,1.0344,1.0344,1.0324,1.0283,1.0283,1.0283,1.0283,1.0283,1.0283,1.0283,1.0283,1.0324,1.0412,1.0412,1.0412,1.0412,1.0412,1.0412,1.0419,1.0521,1.0575,1.0733,1.0733,1.0656,1.0738,1.0744,0.756,0.3135,0.0,0.0,0.0,0.0,0.0,0.0,0.0,0.0,1.4629,1.4923,1.4603,1.4509,0.0,0.0,0.0,0.0,0.0,0.0,0.0,1.4683,1.4923,1.5217,1.5337,1.5538,1.5818,1.6286,1.6807,1.7341,1.7689,1.7956,1.813,1.8183,1.8116,1.7943,1.8063,1.7796,1.7208,1.6794,1.6486,1.6246,1.5952,1.5832,1.5832,0.0,0.0,0.0,0.0,0.0,0.0,0.0,0.0,0.0,1.5832,1.5832,1.5832,1.5832,1.536,1.4716,1.3465,0.0,0.0,0.0,0.0,0.0,0.0,0.0,0.0,0.0,0.0,0.0,1.2697,1.2566,0.0,1.2407,1.2662,1.2959,1.2888,1.3039,1.3251,1.3179,1.3304,1.2949,1.1933,1.1925,1.1449,1.0527,1.0331,1.0256,1.0188,1.0134,1.0073,1.0019,0.9951,0.9924,0.9924,0.9924,0.9924,0.9924,0.9985,1.0012,1.0019,1.0202,1.0283,1.0283,1.0283,1.0283,1.029,1.0385,1.0568,1.0725,1.0732,0.8903,0.6423,0.6456,0.3711,-0.0,0.0,0.0,1.038,1.2035,0.0,0.0,0.0,0.0,1.4475,1.4923,1.4456,1.4295,0.0,0.0,0.0,0.0,0.0,0.0,0.0,1.4482,1.4629,1.495,1.5297,1.5618,1.5899,1.6152,1.6273,1.6273,1.7074,1.7475,1.7515,1.8103,1.8384,1.8424,1.8691,1.849,1.7929,1.7328,1.674,1.6206,1.5939,1.5832,1.5832,1.5832,0.0,0.0,0.0,0.0,0.0,0.0,0.0,0.0,1.5832,1.5832,1.5737,1.5642,1.4666,1.3379,1.2083,0.0,0.0,0.0,0.0,0.0,0.0,0.0,0.0,0.0,0.0,0.9686,0.9802,0.9605,0.9469,0.9612,0.9747,0.9781,0.9652,0.9747,0.9781,0.9652,0.9869,0.9908,0.9908,1.0154,1.0236,1.0236,1.0236,1.0175,1.0032,0.9883,0.9741,0.9612,0.9462,0.9381,0.9381,0.9381,0.9381,0.9381,0.9523,0.9598,0.9625,1.0046,1.0236,1.0236,1.0236,1.0249,1.0263,1.029,1.031,1.0203,1.0621,0.6319,-0.0,-0.0,-0.0,-0.0,0.0,0.0,0.9762,1.1958,0.0,0.0,0.0,0.0,0.0,0.0,0.0,0.0,0.0,0.0,0.0,0.0,0.0,0.0,0.0,1.4175,1.4416,1.4937,1.5685,1.6219,1.6513,1.6353,1.6273,1.6273,1.646,1.6673,1.6901,1.7261,1.7555,1.7782,1.7849,1.7675,1.7301,1.6714,1.6259,1.5912,1.5858,1.5832,1.5832,1.5832,1.5832,0.0,0.0,0.0,0.0,0.0,0.0,0.0,1.5832,1.5832,1.5629,1.4555,1.3992,1.3191,0.0,0.0,0.0,0.0,0.0,0.0,0.0,0.0,0.0,0.9768,0.9863,0.993,0.9863,0.9795,0.9774,0.9714,0.9747,0.9754,0.9727,0.9619,0.9503,0.9721,0.9625,0.9645,0.9645,0.9787,0.9917,0.9917,0.9917,0.9903,0.9869,0.9734,0.9639,0.9612,0.9462,0.9381,0.9381,0.9381,0.9381,0.9381,0.9415,0.9496,0.9618,0.9822,0.9917,0.9917,0.9917,0.9992,1.01,1.0127,0.8729,0.6827,0.9551,0.6353,-0.0,-0.0,-0.0,-0.0,0.0,0.0,0.0,0.0,0.0,0.0,0.0,0.0,0.0,0.0,0.0,0.0,0.0,0.0,0.0,0.0,0.0,0.0,0.0,0.0,1.4202,1.4937,1.5671,1.6126,1.6286,1.6139,1.6059,1.6059,1.6059,1.6206,1.65,1.6794,1.7088,1.7382,1.7515,1.7341,1.6914,1.6607,1.6233,1.5832,1.5832,1.5832,1.5832,1.5832,1.5832,1.5832,1.5832,0.0,0.0,0.0,0.0,0.0,0.0,0.0,1.4758,1.4076,1.2936,1.1562,0.0,0.0,0.0,0.0,0.0,0.0,0.0,0.0,0.0,0.9727,0.9842,0.9937,0.9869,0.8494,0.7505,0.7398,0.7474,0.7443,0.7443,0.7317,0.7296,0.724,0.7271,0.7889,0.93,0.952,0.9506,0.9625,0.9618,0.9612,0.9612,0.9469,0.9395,0.9395,0.9245,0.9171,0.9171,0.9171,0.9171,0.9171,0.9239,0.9354,0.951,0.972,0.9822,0.9822,0.9822,0.9869,0.9937,0.991,0.8049,0.5218,0.5447,0.3351,-0.0,-0.0,-0.0,-0.0,0.0,0.0,0.0,0.0,0.0,0.0,0.0,0.0,0.0,0.0,0.0,0.0,0.0,0.0,0.0,0.0,0.0,0.0,0.0,0.0,0.0,1.5003,1.5591,1.5912,1.5912,1.5858,1.5832,1.5832,1.5778,0.0,0.0,1.6513,1.6794,1.7088,1.7275,1.7114,1.67,1.6593,1.6273,1.5832,1.5832,1.5832,1.5832,1.5832,1.5832,1.5832,1.5832,1.5832,1.5832,1.5832,0.0,0.0,0.0,0.0,1.3776,1.3335,1.1527,0.9706,0.0,0.0,0.0,0.0,0.0,0.0,0.0,0.0,0.9822,0.9822,0.9842,0.9605,0.9111,0.7138,0.5414,0.4183,0.4007,0.4085,0.4085,0.4085,0.3945,0.3774,0.3931,0.5015,0.7551,0.8236,0.869,0.9381,0.9381,0.9381,0.9381,0.9239,0.915,0.915,0.9015,0.8927,0.8899,0.8899,0.8886,0.8859,0.9035,0.9198,0.9354,0.9625,0.9747,0.9747,0.9747,0.9747,0.9741,0.9792,0.7867,0.4629,0.1326,-0.0,-0.0,-0.0,-0.0,-0.0,0.0,0.0,0.0,0.0,0.0,0.0,0.0,0.0,0.0,0.0,1.3655,1.4202,0.0,0.0,0.0,0.0,0.0,0.0,1.3546,0.0,0.0,1.5324,1.5899,1.6219,1.6219,1.5965,1.5832,1.5832,1.5578,0.0,0.0,0.0,0.0,1.6754,1.654,1.654,1.6673,1.6166,1.5899,1.5832,1.5832,1.5832,1.5832,1.5832,1.5832,1.5832,1.5832,1.5832,1.5832,1.5832,1.5832,0.0,0.0,0.0,1.3442,1.1039,0.9991,0.9324,0.0,0.0,0.0,0.0,0.0,0.0,0.0,0.0,0.9822,0.0,0.9842,0.8983,0.6023,0.7536,0.7301,0.1604,0.0609,0.0603,0.0603,0.0603,0.0602,0.0601,0.0601,0.0836,0.1175,0.3869,0.6415,0.8762,0.9103,0.9278,0.9381,0.9239,0.915,0.915,0.9015,0.8872,0.8743,0.8743,0.8676,0.8547,0.8832,0.9042,0.9191,0.9361,0.9442,0.9442,0.9442,0.9442,0.9442,0.971,0.7808,0.4601,0.1299,-0.0,-0.0,-0.0,-0.0,-0.0,0.0,0.0,0.0,0.0,0.0,0.0,0.0,0.0,0.0,0.0,0.0,1.4135,0.0,0.0,0.0,1.2973,1.2799,1.2906,1.3373,1.4082,1.4603,1.4897,1.5311,1.5538,1.5538,1.5418,1.5351,1.5351,0.0,0.0,0.0,1.6192,1.6433,0.0,0.0,0.0,1.6531,0.0,0.0,1.5913,1.7296,1.7483,1.6936,1.7576,1.7483,1.6936,1.7669,1.703,1.5927,1.6669,1.6386,1.5534,1.4268,0.0,0.0,0.0,0.918,0.8497,0.7993,0.0,0.0,0.0,0.0,0.0,0.0,0.0,0.9822,0.9822,0.9842,0.8738,0.5533,0.4561,0.3325,0.0488,-0.0,-0.0,-0.0,-0.0,-0.0,-0.0,-0.0,-0.0,-0.0,0.1263,0.2616,0.3836,0.7059,0.9044,0.915,0.9076,0.9035,0.9035,0.8886,0.8777,0.871,0.8628,0.8554,0.8611,0.8762,0.8981,0.9043,0.8982,0.9076,0.9381,0.9381,0.9388,0.9518,0.9578,0.8781,0.7184,0.1981,-0.0,-0.0,-0.0,-0.0,-0.0,0.0,0.0,0.0,0.0,0.0,0.0,0.0,0.0,0.0,0.0,0.0,0.0,0.0,0.0,0.0,0.0,1.2478,1.2532,1.3053,1.3641,1.4108,1.4402,1.4696,1.4856,1.4856,1.4856,1.4856,0.0,0.0,0.0,1.5832,1.6206,1.654,0.0,1.6433,0.0,0.0,0.0,0.0,0.0,1.8057,1.8362,1.7642,1.891,1.8664,1.7995,1.9066,1.8057,1.6275,1.7375,1.6655,1.5045,1.3776,1.248,0.0,0.0,0.0,0.7726,0.0,0.0,0.0,0.0,0.0,0.0,0.0,0.0,0.9774,0.0,0.9842,0.9111,0.6639,0.2831,-0.0,-0.0,-0.0,-0.0,-0.0,-0.0,-0.0,-0.0,-0.0,-0.0,-0.0,-0.0,-0.0,-0.0,0.4129,0.726,0.8692,0.8789,0.8866,0.8825,0.871,0.8635,0.8601,0.8459,0.8086,0.7392,0.762,0.7651,0.7787,0.7663,0.8094,0.9171,0.9198,0.9205,0.9184,0.8433,0.8723,0.8948,0.2511,-0.0,-0.0,-0.0,-0.0,-0.0,0.0,0.0,0.0,0.0,0.0,0.0,0.0,0.0,0.0,0.0,0.0,0.0,1.4055,1.3561,1.308,1.2849,1.2478,1.2438,1.2822,1.3333,1.3801,1.4095,1.4389,0.0,1.4549,1.4549,1.4549,0.0,0.0,0.0,1.5845,1.642,1.6847,1.7101,1.6526,1.6273,1.6259,0.0,0.0,0.0,1.6907,1.71,1.7191,1.8345,1.8594,1.8311,1.9159,1.836,1.7054,1.7579,1.6062,1.3776,1.2425,1.1028,0.9602,0.0,0.0,0.0,0.0,0.7719,0.0,0.0,0.0,0.0,0.0,0.0,0.9659,0.9795,0.9842,0.9734,0.9605,0.43,-0.0,-0.0,-0.0,-0.0,-0.0,-0.0,-0.0,-0.0,-0.0,-0.0,-0.0,-0.0,-0.0,-0.0,0.0335,0.2881,0.8323,0.8642,0.8568,0.8513,0.8499,0.8431,0.8309,0.8079,0.6732,0.424,0.424,0.4382,0.4774,0.4669,0.6071,0.8601,0.8703,0.8676,0.8468,0.5863,0.6364,0.8401,0.2306,-0.0,-0.0,-0.0,-0.0,-0.0,0.0,0.0,0.0,0.0,0.0,0.0,0.0,0.0,0.0,0.0,0.0,0.0,0.0,1.3561,1.316,1.3053,1.2759,1.2719,1.3026,1.3427,1.3774,1.4068,1.4188,1.4242,1.4242,1.4242,0.0,0.0,0.0,1.48,1.4509,1.5862,1.6486,1.6593,1.6567,1.6553,1.6612,1.688,0.0,0.0,1.772,1.7881,1.7311,1.902,1.9127,1.844,1.9575,0.0,1.6904,1.6366,1.5136,1.3488,1.1356,1.0255,0.9465,0.7894,0.7346,0.7244,0.7346,0.0,0.0,0.0,0.0,0.8587,0.8886,0.9137,0.9334,0.9381,0.9557,0.97,0.97,0.7643,0.5339,0.3512,0.2949,0.289,0.289,0.2849,0.2143,0.0226,-0.0,-0.0,-0.0,-0.0,0.1569,0.5382,0.2215,0.252,0.8304,0.8434,0.8461,0.8611,0.8411,0.7449,0.5583,0.7202,0.7522,0.6535,0.3053,0.1531,0.1644,0.3597,0.5975,0.8392,0.649,0.6879,0.868,0.7754,0.5642,0.2957,0.0876,-0.0,-0.0,-0.0,-0.0,-0.0,0.0,0.0,0.0,0.0,0.0,1.2256,1.3873,1.3736,1.3485,1.3904,0.0,0.0,0.0,0.0,1.332,1.3213,1.3026,1.2986,1.32,1.3387,1.3627,1.3921,1.4041,1.4135,1.4229,1.4229,0.0,0.0,0.0,0.0,0.0,1.5166,1.5972,1.5673,1.6275,1.6567,0.0,0.0,0.0,1.613,1.7705,1.7881,1.7311,0.0,1.911,1.8456,1.9557,0.0,1.6239,1.5572,1.4129,1.2193,1.0404,0.949,0.873,0.764,0.7217,0.7163,0.7265,0.7333,0.0,0.0,0.0,0.8282,0.8628,0.0,0.9035,0.913,0.9354,0.953,0.953,0.9439,0.8741,0.6727,0.6206,0.6075,0.5961,0.5994,0.5262,0.324,0.2122,0.1115,0.0111,-0.0,0.1663,0.5634,0.3926,0.432,0.8181,0.8295,0.789,0.7096,0.7757,0.7256,0.534,0.5354,0.5363,0.5262,0.1716,-0.0,0.0101,0.2118,0.3937,0.5569,0.4497,0.57,0.8654,0.8815,0.535,-0.0,-0.0,-0.0,-0.0,-0.0,-0.0,-0.0,0.0,0.0,0.8364,0.9706,1.0974,1.2159,1.3251,1.3988,1.4449,1.4536,0.0,0.0,0.0,0.0,0.0,1.3267,1.324,1.324,1.3253,1.324,1.336,1.3572,1.3948,1.4229,1.4422,1.4435,0.0,0.0,0.0,0.0,0.0,0.0,1.5185,1.4248,1.555,1.6162,1.6246,0.0,1.5992,1.6303,0.0,1.698,1.707,0.0,0.0,0.0,1.9036,1.7477,1.5114,1.5284,1.2879,0.9784,0.9486,0.849,0.7346,0.719,0.7143,0.7143,0.0,0.0,0.0,0.0,0.0,0.0,0.8581,0.8689,0.8777,0.9069,0.9259,0.9367,0.9367,0.9374,0.9312,0.9235,0.9278,0.9218,0.899,0.8871,0.8897,0.8897,0.6386,0.3442,0.0547,0.0109,0.0108,0.0214,0.5018,0.7973,0.804,0.7904,0.668,0.4221,0.6469,0.7717,0.7717,0.2624,-0.0,-0.0,-0.0,-0.0,-0.0,-0.0,-0.0,0.0101,0.273,0.5367,0.7831,0.8405,0.5256,-0.0,-0.0,-0.0,-0.0,-0.0,-0.0,-0.0,0.0,0.6721,0.8079,0.852,0.9682,1.1191,1.3145,1.3552,1.3956,0.0,0.0,0.0,1.4416,1.4135,1.3935,1.3854,1.3841,1.3935,1.4148,1.3961,1.3975,1.4269,1.4362,1.3996,1.3173,1.3355,1.273,0.0,0.0,0.0,0.0,1.2405,0.0,0.0,1.2921,1.3699,1.4666,1.5478,0.0,1.5912,1.591,1.5837,0.0,0.0,0.0,0.0,0.0,1.554,1.4746,1.2047,1.0656,0.9769,0.8532,0.7858,0.7403,0.7148,0.7231,0.7285,0.717,0.0,0.0,0.0,0.0,0.0,0.8011,0.8235,0.8418,0.8499,0.8804,0.9062,0.9062,0.9144,0.9232,0.9164,0.9137,0.9096,0.9191,0.9004,0.8856,0.887,0.8183,0.7382,0.6463,0.2527,0.174,0.5962,0.734,0.8066,0.8193,0.623,0.567,0.6882,0.3836,0.2221,0.2221,0.0707,-0.0,-0.0,-0.0,-0.0,-0.0,-0.0,-0.0,-0.0,0.0808,0.1515,0.2225,0.2371,0.1468,-0.0,-0.0,-0.0,-0.0,-0.0,-0.0,-0.0,0.2014,0.4459,0.6737,0.7918,0.9207,1.0591,1.1923,1.2437,1.3119,0.0,0.0,0.0,0.0,1.4656,1.4589,1.4469,1.4456,1.4295,1.3798,1.3646,1.3311,1.2916,1.3045,1.2808,1.2081,1.2768,1.2551,1.1222,0.0,0.0,1.1517,1.2731,1.2822,1.195,1.2522,1.3199,0.0,0.0,0.0,0.0,1.5645,0.0,0.0,1.6099,1.591,0.0,1.4603,1.3743,1.2682,1.0428,0.9364,0.8875,0.7855,0.7516,0.7389,0.7139,0.723,0.7362,0.7282,0.0,0.0,0.7435,0.0,0.0,0.7875,0.8045,0.8174,0.8174,0.8479,0.875,0.875,0.8872,0.8988,0.9055,0.894,0.8927,0.9164,0.9049,0.8947,0.885,0.885,0.8947,0.8906,0.5669,0.4404,0.651,0.7516,0.8018,0.8194,0.4444,0.3017,0.4649,0.1615,-0.0,-0.0,-0.0,-0.0,-0.0,-0.0,-0.0,-0.0,-0.0,-0.0,-0.0,-0.0,-0.0,-0.0,-0.0,-0.0,-0.0,-0.0,-0.0,-0.0,-0.0,-0.0,-0.0,0.0,0.2221,0.4981,0.7872,0.9305,1.0145,1.031,1.1061,1.2021,0.0,1.3297,1.3652,1.4787,1.5232,1.5351,1.5124,1.5057,1.4449,1.304,1.288,1.2224,1.0727,1.1101,1.1221,1.1139,1.2461,1.2758,1.1701,1.3676,0.0,0.0,0.0,1.3862,1.195,1.3102,1.3776,1.3872,0.0,0.0,1.5832,1.5832,1.5832,0.0,0.0,1.5045,1.3872,1.368,1.216,1.0079,0.9761,0.8703,0.7651,0.755,0.7537,0.753,0.7259,0.7259,0.0,0.0,0.0,0.0,0.7359,0.7635,0.0,0.7898,0.7945,0.7965,0.7945,0.8262,0.8459,0.8459,0.8581,0.873,0.8866,0.8784,0.8771,0.894,0.8947,0.894,0.894,0.894,0.8893,0.8893,0.8742,0.7515,0.4663,0.6721,0.7972,0.7992,0.3218,0.0302,-0.0,-0.0,-0.0,-0.0,-0.0,-0.0,-0.0,-0.0,-0.0,-0.0,-0.0,-0.0,-0.0,-0.0,-0.0,-0.0,-0.0,-0.0,-0.0,-0.0,-0.0,-0.0,-0.0,-0.0,-0.0,-0.0,0.2394,0.526,0.7954,0.8668,0.9168,1.0231,1.0587,1.1205,1.2615,1.3532,0.0,0.0,1.5306,1.5818,1.6005,1.5578,1.481,1.3732,1.3262,1.245,1.1394,1.1392,1.0971,0.9854,1.1384,1.198,1.1502,1.2225,0.0,0.0,0.0,0.0,1.195,1.2145,1.2909,1.3872,0.0,0.0,1.5832,1.5832,1.5832,1.5832,1.5832,1.5045,1.3776,1.2716,1.1287,0.9846,0.8696,0.8181,0.7957,0.7938,0.7801,0.7677,0.7583,0.7528,0.7183,0.4961,0.4518,0.5147,0.7062,0.7596,0.0,0.7635,0.7679,0.7801,0.7992,0.8194,0.8309,0.8309,0.8431,0.8533,0.8567,0.8648,0.8804,0.9076,0.9015,0.894,0.894,0.894,0.8927,0.8906,0.8893,0.8521,0.7706,0.7883,0.7959,0.7992,0.4926,0.2211,0.0101,-0.0,-0.0,-0.0,-0.0,-0.0,-0.0,-0.0,-0.0,-0.0,-0.0,-0.0,-0.0,-0.0,-0.0,-0.0,-0.0,-0.0,-0.0,-0.0,-0.0,-0.0,-0.0,-0.0,-0.0,0.3843,0.4519,0.5443,0.8285,0.8669,0.8855,0.9652,0.9715,1.0115,1.1594,1.2896,0.0,0.0,0.0,1.5464,1.6273,1.5872,1.5136,1.3886,1.3543,1.2466,1.0594,1.0603,0.9992,0.8668,1.0766,1.1793,1.1672,1.3143,0.0,0.0,0.0,0.0,0.0,0.0,1.3132,0.0,0.0,1.4663,1.5832,1.5832,0.0,1.5832,1.5832,1.4567,1.2813,1.2145,1.0681,0.8931,0.8327,0.8113,0.8045,0.7984,0.795,0.7831,0.7784,0.6911,0.5241,0.2545,0.187,0.2281,0.3474,0.4802,0.0,0.0,0.5847,0.6194,0.7502,0.7985,0.818,0.818,0.8241,0.8206,0.8267,0.834,0.8461,0.8784,0.8886,0.894,0.894,0.894,0.894,0.894,0.8743,0.8625,0.8275,0.8133,0.7965,0.7992,0.6765,0.4135,0.0101,-0.0,-0.0,-0.0,-0.0,-0.0,-0.0,-0.0,-0.0,-0.0,-0.0,-0.0,-0.0,-0.0,-0.0,-0.0,-0.0,-0.0,-0.0,-0.0,-0.0,-0.0,-0.0,-0.0,-0.0,0.7723,0.6868,0.6129,0.8613,0.892,0.8825,0.9035,0.8994,0.9272,1.0382,1.1845,0.0,0.0,0.0,0.0,0.0,1.6219,1.5369,1.41,1.3862,1.2631,1.0099,1.0156,0.9669,0.8624,1.0979,1.2328,1.2328,1.4663,0.0,0.0,0.0,0.0,0.0,0.0,0.0,0.0,0.0,0.0,1.5832,0.0,1.5832,1.5737,1.5534,1.398,1.1853,1.1365,0.9797,0.8058,0.818,0.814,0.8045,0.7959,0.8072,0.8092,0.8026,0.6486,0.4045,0.0914,-0.0,-0.0,-0.0,0.164,0.3245,0.0,0.0,0.0,0.5743,0.6697,0.7272,0.7272,0.7272,0.7196,0.719,0.7642,0.8117,0.8327,0.8575,0.8756,0.8893,0.8866,0.8866,0.8893,0.8621,0.8343,0.8106,0.7979,0.7979,0.7999,0.8012,0.5564,0.0202,-0.0,-0.0,-0.0,-0.0,-0.0,-0.0,-0.0,-0.0,-0.0,-0.0,-0.0,-0.0,-0.0,-0.0,-0.0,-0.0,-0.0,-0.0,-0.0,-0.0,-0.0,-0.0,-0.0,-0.0,0.7504,0.8229,0.836,0.8368,0.8649,0.8879,0.8777,0.8859,0.8981,0.0,0.0,0.0,0.0,0.0,0.0,0.0,1.7007,1.5927,1.5053,1.4323,1.3239,1.1676,1.1609,1.1619,1.1424,1.2898,1.368,1.368,1.514,1.5832,0.0,0.0,0.0,0.0,1.5351,0.0,0.0,0.0,1.5498,0.0,1.5832,1.5832,1.5629,1.4555,1.3199,1.156,0.9312,0.8237,0.8045,0.8058,0.8052,0.8038,0.8045,0.8133,0.8248,0.8071,0.7769,0.6437,0.137,-0.0,-0.0,-0.0,0.021,0.042,0.0407,0.0,0.0513,0.0805,0.0,0.4422,0.4422,0.0,0.0,0.4429,0.6455,0.8001,0.8097,0.8243,0.8495,0.8723,0.8615,0.8587,0.8723,0.8465,0.8282,0.8262,0.8147,0.7985,0.8019,0.8026,0.5564,0.0202,-0.0,-0.0,-0.0,-0.0,-0.0,-0.0,-0.0,-0.0,-0.0,-0.0,-0.0,-0.0,-0.0,-0.0,-0.0,-0.0,-0.0,-0.0,-0.0,-0.0,-0.0,-0.0,-0.0,-0.0,0.7994,0.8441,0.8723,0.8535,0.8615,0.8811,0.8838,0.9042,0.9218,0.0,0.0,0.0,0.0,0.0,0.0,0.0,0.0,1.6605,1.6062,1.5579,1.4692,1.3313,1.318,1.278,1.2241,1.3277,1.3872,1.3872,1.514,1.5832,1.5832,1.5832,0.0,0.0,1.5631,0.0,1.5578,0.0,1.5712,0.0,0.0,1.5343,1.4663,1.4076,1.2619,1.0583,0.8627,0.8038,0.8038,0.8038,0.8038,0.8038,0.7952,0.8059,0.8186,0.8213,0.8123,0.751,0.5248,0.2402,-0.0,-0.0,-0.0,-0.0,-0.0,-0.2455,-0.4685,-0.4649,0.0,0.0,0.0,0.0,0.0,0.0,0.1915,0.3742,0.4798,0.6765,0.8255,0.854,0.852,0.8479,0.8465,0.835,0.8248,0.818,0.8032,0.8012,0.8026,0.5056,0.2322,0.0101,-0.0,-0.0,-0.0,-0.0,-0.0,-0.0,-0.0,-0.0,-0.0,-0.0,-0.0,-0.0,-0.0,-0.0,-0.0,-0.0,-0.0,-0.0,-0.0,-0.0,-0.0,-0.0,-0.0,-0.0,0.8221,0.8361,0.8535,0.8547,0.8594,0.8703,0.8852,0.9062,0.9239,0.0,0.0,0.0,1.3953,1.4312,0.0,0.0,1.7996,1.7462,1.7328,1.674,1.5947,1.4863,1.4667,1.4146,1.338,1.4146,1.4533,1.4459,1.5343,1.5832,1.5832,1.5439,1.5334,0.0,0.0,1.5321,1.5524,0.0,1.5832,1.5737,1.5439,1.4268,1.2813,1.2813,1.1453,0.9312,0.8343,0.8045,0.8052,0.7952,0.7952,0.7959,0.7972,0.7459,0.7044,0.8117,0.8343,0.7943,0.6287,0.2928,-0.0,-0.0,-0.1146,-0.219,-0.2168,-0.485,-0.7437,-0.7991,-0.6589,0.0,0.0,0.0,-0.5124,-0.4253,0.0,-0.1411,0.0884,0.3834,0.6415,0.813,0.8411,0.8384,0.8248,0.7502,0.7363,0.8006,0.8012,0.7409,0.5871,0.212,-0.0707,-0.212,-0.2221,-0.1515,-0.0,-0.0,-0.0,-0.0,-0.0,-0.0,-0.0,-0.0,-0.0,-0.0,-0.0,-0.0,-0.0,-0.0,-0.0,-0.0,-0.0,-0.0,-0.0,-0.0,-0.0,-0.0,0.8045,0.8289,0.8397,0.8113,0.8296,0.854,0.8696,0.8723,0.8886,0.0,0.0,0.0,0.0,0.0,1.7946,2.0385,1.9279,1.8557,1.8838,1.7488,1.6567,1.6286,1.6259,1.6029,1.5655,1.6016,1.6016,1.5737,1.5737,1.5832,1.5737,1.4555,1.4651,1.5724,1.4555,1.4651,1.5818,1.5832,1.5832,1.5737,1.4459,1.2425,1.0092,1.0092,0.9312,0.8038,0.8065,0.7972,0.7972,0.7985,0.7992,0.7992,0.7992,0.6225,0.4652,0.7285,0.846,0.7644,0.1803,0.0107,-0.0,-0.0,-0.3893,-0.7744,-0.7788,-0.6521,-0.6032,-0.8053,-0.8441,-0.831,-0.8368,-0.8541,-0.8541,-0.7936,-0.7792,0.0,0.0,-0.09,0.2204,0.7384,0.8343,0.8371,0.8012,0.5641,0.524,0.7818,0.8026,0.577,0.0505,0.0101,-0.2423,-0.761,-0.7717,-0.5253,-0.0101,-0.0,-0.0,-0.0,-0.0,-0.0,-0.0,-0.0,-0.0,-0.0,-0.0,-0.0,-0.0,-0.0,-0.0,-0.0,-0.0,-0.0,-0.0,-0.0,-0.0,-0.0,0.8194,0.0,0.8391,0.0,0.0,0.8391,0.8533,0.8811,0.9164,0.0,1.0144,0.0,0.0,1.5742,1.7154,2.0381,1.9867,1.9239,1.8945,1.8277,1.7756,1.7462,1.7248,1.7088,1.6994,1.67,1.642,1.6126,1.5925,1.5434,1.4631,1.4148,1.3773,1.3434,0.0,1.3295,0.0,0.0,0.0,0.0,0.0,1.0852,1.0062,0.9061,0.8443,0.7965,0.7972,0.6848,0.5327,0.5331,0.5331,0.5636,0.739,0.7388,0.6132,0.3529,0.2826,0.2541,0.0533,-0.0,-0.0,-0.0,-0.1403,-0.3717,-0.7744,-0.8347,-0.815,-0.8513,-0.8716,-0.8783,-0.8696,-0.8696,-0.8662,-0.8354,-0.8157,-0.7535,0.0,-0.4139,-0.197,-0.0197,0.1699,0.2823,0.2704,0.1978,0.1185,0.01,0.0099,-0.0694,-0.2511,-0.2615,-0.3519,-0.534,-0.7077,-0.7178,-0.534,-0.3516,-0.2611,-0.2615,-0.2615,-0.1709,-0.0,-0.0,-0.0,-0.0,-0.0,-0.0,-0.0,-0.0,-0.0,-0.0,-0.0,-0.0,-0.0,-0.0,-0.2225,-0.5302,0.8343,0.8377,0.0,0.0,0.0,0.0,0.0,0.8913,0.0,0.0,1.0535,0.0,1.4894,1.5375,1.652,1.8915,1.915,1.8987,1.8326,1.8617,1.8624,1.8223,1.8009,1.7809,1.7582,1.7315,1.6941,1.6433,1.5836,1.5035,1.419,1.3139,1.2418,1.2164,0.0,1.2304,1.3884,1.3978,1.3955,0.0,0.0,0.978,0.9276,0.8385,0.8092,0.8147,0.8006,0.6865,0.5135,0.3218,0.2613,0.2917,0.4645,0.5124,0.4468,0.1038,-0.0,-0.0,-0.0,-0.0,-0.0557,-0.2925,-0.2647,-0.3022,-0.7828,-0.9127,-0.9286,-0.8907,-0.8974,-0.9164,-0.9117,-0.9022,-0.8879,-0.8676,-0.8395,-0.8216,0.0,-0.653,-0.5438,-0.5438,-0.3884,-0.2804,-0.2804,-0.2773,-0.3352,-0.4976,-0.5259,-0.5452,-0.5381,-0.5413,-0.5432,-0.5427,-0.7059,-0.7985,-0.7985,-0.6242,-0.5432,-0.5432,-0.5432,-0.4526,-0.2816,-0.1808,-0.0905,-0.0,-0.0,-0.0,-0.0,-0.0,-0.0,-0.0,-0.0,-0.0,-0.0202,-0.2124,-0.4989,-0.8057,0.8486,0.8384,0.0,0.0,0.8289,0.0,0.0,0.0,0.9557,0.0,1.1751,1.3244,1.3738,1.5128,1.5981,1.6175,1.738,1.784,1.7225,1.8382,1.8942,1.8486,1.8348,1.818,1.7689,1.7822,1.753,1.6767,1.5548,1.4791,1.4355,1.1567,1.086,0.0,1.0759,0.0,1.3692,1.3935,1.39,1.3488,1.0974,0.9137,0.7985,0.7979,0.7958,0.7955,0.7958,0.7818,0.6793,0.1716,-0.0202,-0.0404,-0.0404,-0.0307,-0.0208,-0.0208,-0.021,-0.0214,-0.0214,-0.011,-0.1454,-0.7737,-0.7203,-0.5808,-0.8401,-0.9222,-0.9361,-0.9198,-0.9408,-0.9659,-0.9774,-0.9571,-0.9279,-0.8981,-0.8784,-0.8533,-0.8026,-0.7972,-0.7979,-0.7985,-0.7985,-0.7992,-0.7992,-0.7979,-0.772,-0.7198,-0.77,-0.8024,-0.8,-0.8018,-0.7985,-0.7972,-0.7979,-0.7979,-0.7972,-0.7979,-0.7985,-0.7992,-0.7992,-0.7992,-0.7892,-0.5331,-0.2812,-0.0402,-0.0101,-0.0,-0.0,-0.0,-0.0,-0.0,-0.0,-0.0,-0.0606,-0.5684,-0.782,-0.8046,0.8526,0.8635,0.8764,0.0,0.8581,0.852,0.0,0.0,0.0,0.0,1.127,1.2579,1.4324,1.4656,1.519,1.6479,1.6655,1.6546,1.6074,1.6338,1.6943,1.7853,1.6616,1.6866,1.8918,1.7303,1.6807,1.7702,1.5634,1.4299,1.3351,1.1225,0.0,0.0,0.0,0.9549,1.0974,1.1021,1.1021,1.0877,0.9137,0.8428,0.8221,0.8039,0.5708,0.2878,0.6619,0.5464,0.1817,0.0505,-0.2624,-0.5987,-0.6487,-0.5064,-0.3316,-0.3362,-0.3313,-0.3358,-0.3358,-0.1681,-0.0462,-0.2046,-0.559,-0.8704,-0.9442,-0.9523,-0.9427,-0.9381,-0.9557,-0.9707,-0.953,-0.9449,-0.9273,-0.8838,-0.8459,-0.8174,-0.8065,-0.8045,-0.8092,-0.8208,-0.8119,-0.7952,-0.7952,-0.795,-0.7818,-0.7793,-0.7825,-0.7916,-0.7997,-0.8031,-0.7952,-0.8045,-0.816,-0.8167,-0.8052,-0.816,-0.8174,-0.7979,-0.7979,-0.7992,-0.8012,-0.7296,-0.6586,-0.5679,-0.1716,-0.0,-0.0,-0.0,-0.0,-0.0,-0.0,-0.0,-0.0202,-0.1516,-0.4568,-0.7998,0.8716,0.8927,0.0,0.9218,0.0,0.0,0.9306,0.9537,0.0,1.0514,1.1056,1.1875,1.3182,1.3313,1.3578,1.4437,1.4882,1.4939,1.4651,1.5287,1.6012,1.6669,1.5773,1.5979,1.7446,1.6098,1.5613,1.6151,1.419,1.2846,1.2103,1.0277,0.0,0.0,0.0,0.8829,1.0112,1.0112,1.0228,1.0237,0.8692,0.8032,0.0,0.5464,0.1314,-0.2959,-0.0203,-0.0407,-0.1936,-0.1936,-0.4,-0.6741,-0.8203,-0.762,-0.6378,-0.644,-0.6572,-0.6589,-0.6482,-0.5184,-0.3317,-0.0704,-0.2749,-0.5835,-0.7282,-0.8696,-0.9513,-0.9394,-0.9566,-0.9647,-0.9795,-0.9598,-0.9279,-0.8689,-0.8397,-0.814,-0.814,-0.8079,-0.8072,-0.816,-0.8153,-0.8113,-0.8045,-0.7963,-0.7916,-0.7936,-0.7923,-0.7923,-0.7936,-0.8004,-0.8038,-0.8038,-0.8248,-0.8296,-0.8052,-0.8267,-0.8307,-0.7968,-0.6856,-0.622,-0.6235,-0.6284,-0.6888,-0.7837,-0.4855,-0.212,-0.0,-0.0,-0.0,-0.0,-0.0,-0.0,-0.0,-0.0,-0.1917,-0.4653,0.8967,0.0,0.0,0.0,0.0,0.0,0.0,1.0012,0.0,1.0765,0.0,1.1531,1.1511,1.1837,1.1952,1.1674,1.2749,1.3366,1.2905,1.4286,1.5216,1.5258,1.4993,1.4896,1.5057,1.4508,1.4173,1.3956,1.2163,1.1193,1.1059,0.919,0.0,0.0,0.0,0.0,0.0,0.9928,1.0155,1.0382,0.8729,0.7591,0.629,0.0906,-0.4045,-0.8093,-0.8412,-0.6964,-0.5068,-0.5081,-0.503,-0.5417,-0.7806,-0.8669,-0.8886,-0.8913,-0.9106,-0.9312,-0.8983,-0.8968,-0.76,-0.2519,-0.0607,-0.0736,-0.3625,-0.652,-0.8515,-0.8751,-0.8806,-0.8952,-0.9545,-0.9176,-0.8692,-0.8736,-0.8526,-0.833,-0.833,-0.8194,-0.8106,-0.8126,-0.8228,0.0,-0.8113,-0.8079,-0.8011,-0.7855,-0.797,-0.7984,-0.7855,-0.7977,-0.8045,-0.8045,-0.8336,-0.8334,-0.8123,-0.8062,-0.8031,-0.793,-0.5656,-0.4147,-0.352,-0.3456,-0.4758,-0.694,-0.6911,-0.4351,-0.0,-0.0,-0.0,-0.0,-0.0,-0.0,-0.0,-0.0,-0.0,-0.0303,0.0,0.0,0.0,0.0,0.0,1.0527,1.0873,1.1036,1.1199,1.143,1.1952,1.2264,1.2149,1.2088,1.1986,1.1809,1.1803,1.1685,1.1502,1.1639,1.2288,1.3674,1.2374,1.2808,1.5403,1.3615,1.3193,1.442,1.2235,1.1133,1.1087,0.9139,0.0,0.0,0.0,0.0,0.8371,0.8392,0.8407,0.8514,0.8113,0.5187,0.041,-0.5158,-0.7833,-0.8452,-0.8584,-0.8203,-0.7814,-0.804,-0.7973,-0.7998,-0.8669,-0.8824,-0.875,-0.8899,-0.8974,-0.9022,-0.9279,-0.9164,-0.8679,-0.7595,-0.3625,-0.0123,-0.0736,-0.1348,-0.2452,-0.5161,-0.5647,-0.575,-0.5847,-0.555,-0.618,-0.8883,-0.8907,-0.8548,-0.8635,-0.8499,-0.8452,-0.8581,-0.8414,-0.8354,-0.8438,-0.8309,-0.8174,-0.7939,-0.7952,-0.7959,-0.7945,-0.7965,-0.7979,-0.7979,-0.8059,-0.8309,-0.873,-0.6378,-0.6112,-0.7985,-0.7517,-0.499,-0.0742,-0.0728,-0.0937,-0.1371,-0.1433,-0.0916,-0.0,-0.0,-0.0,-0.0,-0.0,-0.0,-0.0,-0.0,-0.0,-0.0103,0.0,0.0,0.0,0.0,0.0,0.0,0.0,1.1769,1.1884,1.1647,1.1864,1.202,1.1952,1.2013,1.2033,1.1959,1.1606,1.1362,1.1287,1.1145,1.1396,1.2029,1.1234,1.1556,1.2938,1.183,1.1565,1.2239,1.0823,1.0029,0.9892,0.8834,0.8201,0.7972,0.0,0.8126,0.0,0.8213,0.833,0.8233,0.4973,0.0208,-0.5147,-0.7694,-0.8689,-0.8646,-0.8682,-0.8696,-0.8749,-0.8749,-0.8838,-0.8955,-0.8845,-0.8893,-0.896,-0.8937,-0.9024,-0.9111,-0.9109,-0.9301,-0.8492,-0.5075,-0.2076,-0.0,-0.0,-0.0,-0.0493,-0.2093,-0.2339,-0.2328,-0.2413,-0.224,-0.2669,-0.4303,-0.7022,-0.9037,-0.8943,-0.8709,-0.8521,-0.8615,-0.8461,-0.7824,-0.6313,-0.6298,-0.6777,-0.7892,-0.6748,-0.5937,-0.5942,-0.5942,-0.5942,-0.5942,-0.5898,-0.6776,-0.8461,-0.7633,-0.6154,-0.388,-0.3817,-0.2486,-0.0,-0.0,-0.0,-0.0,-0.0,-0.0,-0.0,-0.0,-0.0,-0.0,-0.0,-0.0,-0.0,-0.0,-0.0,-0.0,0.0,1.012,0.0,0.0,1.1118,1.1497,1.1789,1.2237,1.2372,1.187,1.1809,1.1809,1.1809,1.1986,1.2108,1.2108,1.1755,1.1504,1.1443,1.1328,1.1185,1.0873,1.0866,1.0812,1.0699,1.0541,1.0304,1.0114,0.9544,0.9089,0.8858,0.7824,0.731,0.7172,0.0,0.7258,0.7575,0.8156,0.8528,0.8132,0.2145,-0.3769,-0.8939,-0.879,-0.879,-0.8838,-0.8954,-0.9035,-0.9015,-0.8893,-0.9008,-0.9184,-0.9069,-0.9117,-0.9205,-0.8964,-0.9069,-0.8857,-0.7401,-0.7412,-0.6526,-0.1352,-0.0,-0.0,-0.0,-0.0,-0.0,-0.0,-0.0,-0.0,-0.0,-0.0,-0.0,-0.0,-0.4199,-0.7606,-0.8171,-0.8533,-0.8497,-0.7837,-0.8181,-0.7651,-0.5284,-0.472,-0.5449,-0.7811,-0.6052,-0.4325,-0.3215,-0.3115,-0.3115,-0.3115,-0.3168,-0.4216,-0.6236,-0.7192,-0.5127,-0.0,-0.0,-0.0,-0.0,-0.0,-0.0,-0.0,-0.0,-0.0,-0.0,-0.0,-0.0,-0.0,-0.0,-0.0,-0.0,-0.0,-0.0,-0.0,0.0,0.0,0.0,0.0,0.0,1.2108,1.1864,1.2332,1.2637,1.2447,1.242,1.242,1.242,1.2332,1.2271,1.2271,1.2101,1.1884,1.1613,1.1586,1.1457,1.1054,1.1047,1.0908,1.0631,1.0637,1.0616,1.0586,0.9734,0.9218,0.8886,0.5776,0.4364,0.4325,0.4378,0.4344,0.457,0.7061,0.8084,0.7633,0.2121,-0.3824,-0.9398,-0.9277,-0.9332,-0.9306,-0.9327,-0.934,-0.9334,-0.932,-0.934,-0.9361,-0.9347,-0.9245,-0.9129,-0.9017,-0.8865,-0.7774,-0.2317,-0.0827,-0.0726,-0.0121,-0.0,-0.0,-0.0,-0.0,-0.0,-0.0,-0.0,-0.0,-0.0,-0.0,-0.0,-0.0,-0.048,-0.1924,-0.4847,-0.7668,-0.8178,-0.5251,-0.7199,-0.8702,-0.8481,-0.6034,-0.548,-0.7857,-0.7724,-0.5459,-0.0605,-0.0404,-0.0404,-0.0404,-0.0419,-0.0538,-0.0764,-0.089,-0.0566,-0.0,-0.0,-0.0,-0.0,-0.0,-0.0,-0.0,-0.0,-0.0,-0.0,-0.0,-0.0,-0.0,-0.0,-0.0,-0.0,-0.0,-0.0,-0.0,0.0,0.0,0.0,0.0,0.0,0.0,0.0,1.2712,1.2813,1.2657,1.2556,1.2501,1.2501,1.2372,1.2298,1.2305,1.2155,1.2026,1.1938,1.1777,1.1683,1.1358,0.9136,0.7764,0.7504,0.7566,0.7505,0.7567,0.7117,0.7669,0.8843,0.7517,0.5022,0.1564,0.1619,0.1654,0.1673,0.2756,0.3246,0.3007,0.0816,-0.1516,-0.4187,-0.7939,-0.9388,-0.9435,-0.9406,-0.9439,-0.9453,-0.9546,-0.9506,-0.9406,-0.9312,-0.9359,-0.9446,-0.9045,-0.8959,-0.7557,-0.168,-0.0,-0.0,-0.0,-0.0,-0.0,-0.0,-0.0,-0.0,-0.0,-0.0,-0.0,-0.0,-0.0,-0.0,-0.0,-0.0,-0.0484,-0.1796,-0.296,-0.4739,-0.7385,-0.5239,-0.4935,-0.8589,-0.461,-0.215,-0.3086,-0.3152,-0.2221,-0.0101,-0.0,-0.0,-0.0,-0.0,-0.0,-0.0,-0.0,-0.0,-0.0,-0.0,-0.0,-0.0,-0.0,-0.0,-0.0,-0.0,-0.0,-0.0,-0.0,-0.0,-0.0,-0.0,-0.0,-0.0,-0.0,-0.0,-0.0,1.1735,0.0,1.1864,0.0,1.244,1.2569,1.2908,1.2996,1.2969,1.282,1.2705,1.2617,1.2576,1.2481,1.2447,1.236,1.2332,1.223,1.2277,1.0981,1.0595,1.156,0.8969,0.636,0.3914,0.3756,0.3808,0.377,0.3833,0.4712,0.6262,0.623,0.4024,-0.0,-0.0,-0.0,-0.0,-0.0,-0.0,-0.0,-0.0,-0.0,-0.0479,-0.4892,-0.7282,-0.8135,-0.8108,-0.8136,-0.8153,-0.8244,-0.8952,-0.9346,-0.8254,-0.8791,-0.9754,-0.9232,-0.7774,-0.5358,-0.1101,-0.0,-0.0,-0.0,-0.0,-0.0,-0.0,-0.0,-0.0,-0.0,-0.0,-0.0,-0.0,-0.0,-0.0,-0.0,-0.0,-0.0,-0.0,-0.0,-0.1745,-0.6404,-0.2826,-0.1707,-0.5858,-0.2447,-0.0,-0.0,-0.0,-0.0,-0.0,-0.0,-0.0,-0.0,-0.0,-0.0,-0.0,-0.0,-0.0,-0.0,-0.0,-0.0,-0.0,-0.0,-0.0,-0.0,-0.0,-0.0,-0.0,-0.0,-0.0,-0.0,-0.0,-0.0,-0.0,-0.0,-0.0,-0.0,1.1999,1.2291,1.2535,1.2698,1.3091,1.3288,1.3003,1.3078,1.3119,1.2976,1.2956,1.2895,1.2745,1.2725,1.28,1.2822,1.2568,1.2562,1.244,0.8674,0.796,1.1428,1.1579,0.7889,0.0303,-0.0,-0.0,-0.0,-0.0,0.0134,0.0126,0.0122,0.0119,-0.0,-0.0,-0.0,-0.0,-0.0,-0.0,-0.0,-0.0,-0.0,-0.0,-0.0124,-0.2089,-0.4916,-0.4916,-0.4916,-0.4916,-0.4916,-0.7158,-0.918,-0.6031,-0.7158,-0.9787,-0.9761,-0.5251,-0.0123,-0.0,-0.0,-0.0,-0.0,-0.0,-0.0,-0.0,-0.0,-0.0,-0.0,-0.0,-0.0,-0.0,-0.0,-0.0,-0.0,-0.0,-0.0,-0.0,-0.0,-0.0,-0.011,-0.0,-0.0,-0.0104,-0.0,-0.0,-0.0,-0.0,-0.0,-0.0,-0.0,-0.0,-0.0,-0.0,-0.0,-0.0,-0.0,-0.0,-0.0,-0.0,-0.0,-0.0,-0.0,-0.0,-0.0,-0.0,-0.0,-0.0,-0.0,-0.0,-0.0,-0.0,-0.0,-0.0,-0.0,-0.0,-0.0,1.2325,1.2603,1.2827,1.2881,1.3173,1.337,1.3275,1.3302,1.3275,1.3125,1.32,1.32,1.3051,1.2942,1.2915,1.2829,1.2661,1.015,0.4433,0.8011,0.8425,0.3882,0.3727,0.2474,-0.0,-0.0,-0.0,-0.0,-0.0,-0.0,-0.0,-0.0,-0.0,-0.0,-0.0,-0.0,-0.0,-0.0,-0.0,-0.0,-0.0,-0.0,-0.0,-0.0,-0.0626,-0.15,-0.1608,-0.1602,-0.1848,-0.4198,-0.7064,-0.9588,-0.857,-0.5937,-0.3083,-0.3069,-0.1598,-0.0,-0.0,-0.0,-0.0,-0.0,-0.0,-0.0,-0.0,-0.0,-0.0,-0.0,-0.0,-0.0,-0.0,-0.0,-0.0,-0.0,-0.0,-0.0,-0.0,-0.0,-0.0,-0.0,-0.0,-0.0,-0.0,-0.0,-0.0,-0.0,-0.0,-0.0,-0.0,-0.0,-0.0,-0.0,-0.0,-0.0,-0.0,-0.0,-0.0,-0.0,-0.0,-0.0,-0.0,-0.0,-0.0,-0.0,-0.0,-0.0,-0.0,-0.0,-0.0,-0.0,-0.0,-0.0,-0.0,-0.0,-0.0,-0.0,1.2474,1.2705,1.2895,1.2949,1.3159,1.3315,1.3315,1.3315,1.3281,1.3186,1.3207,1.322,1.318,1.3044,1.2996,1.2909,1.2901,0.9882,0.2865,0.7287,0.7884,0.2665,0.0784,-0.0,-0.0,-0.0,-0.0,-0.0,-0.0,-0.0,-0.0,-0.0,-0.0,-0.0,-0.0,-0.0,-0.0,-0.0,-0.0,-0.0,-0.0,-0.0,-0.0,-0.0,-0.0,-0.0,-0.0,-0.0,-0.0374,-0.2368,-0.4368,-0.6127,-0.6127,-0.3242,-0.0,-0.0,-0.0,-0.0,-0.0,-0.0,-0.0,-0.0,-0.0,-0.0,-0.0,-0.0,-0.0,-0.0,-0.0,-0.0,-0.0,-0.0,-0.0,-0.0,-0.0,-0.0,-0.0,-0.0,-0.0,-0.0,-0.0,-0.0,-0.0,-0.0,-0.0,-0.0,-0.0,-0.0,-0.0,-0.0,-0.0,-0.0,-0.0,-0.0,-0.0,-0.0,-0.0,-0.0,-0.0,-0.0,-0.0,-0.0,-0.0,-0.0,-0.0,-0.0,-0.0,-0.0,-0.0,-0.0,-0.0,-0.0,-0.0,-0.0,-0.0,-0.0,1.2474,1.2623,1.2779,1.2935,1.3071,1.3159,1.3173,1.3166,1.3159,1.3159,1.3044,1.301,1.3146,1.303,1.301,1.301,1.3102,1.133,0.7009,0.668,0.6799,0.6729,0.297,0.0782,0.0469,0.0157,-0.0,-0.0,-0.0,-0.0,-0.0,-0.0,-0.0,-0.0,-0.0,-0.0,-0.0,-0.0,-0.0,-0.0,-0.0,-0.0,-0.0,-0.0,-0.0,-0.0,-0.0,-0.0,-0.0,-0.0,-0.0,-0.0,-0.0,-0.0,-0.0,-0.0,-0.0,-0.0,-0.0,-0.0,-0.0,-0.0,-0.0,-0.0,-0.0,-0.0,-0.0,-0.0,-0.0,-0.0,-0.0,-0.0,-0.0,-0.0,-0.0,-0.0,-0.0,-0.0,-0.0,-0.0,-0.0,-0.0,-0.0,-0.0,-0.0,-0.0,-0.0,-0.0,-0.0,-0.0,-0.0,-0.0,-0.0,-0.0,-0.0,-0.0,-0.0,-0.0,-0.0,-0.0,-0.0,-0.0,-0.0,-0.0,-0.0,-0.0,-0.0,-0.0,-0.0,-0.0,-0.0,-0.0,-0.0,-0.0,-0.0,-0.0,1.2447,1.2623,1.2779,1.2935,1.299,1.3051,1.3159,1.3078,1.301,1.301,1.2983,1.2976,1.301,1.2874,1.28,1.284,1.2807,1.2463,1.1494,1.1252,1.1035,1.1005,1.0052,0.7994,0.4847,0.1706,-0.0,-0.0,-0.0,-0.0,-0.0,-0.0,-0.0,-0.0,-0.0,-0.0,-0.0,-0.0,-0.0,-0.0,-0.0,-0.0,-0.0,-0.0,-0.0,-0.0,-0.0,-0.0,-0.0,-0.0,-0.0,-0.0,-0.0,-0.0,-0.0,-0.0,-0.0,-0.0,-0.0,-0.0,-0.0,-0.0,-0.0,-0.0,-0.0,-0.0,-0.0,-0.0,-0.0,-0.0,-0.0,-0.0,-0.0,-0.0,-0.0,-0.0,-0.0,-0.0,-0.0,-0.0,-0.0,-0.0,-0.0,-0.0,-0.0,-0.0,-0.0,-0.0,-0.0,-0.0,-0.0,-0.0,-0.0,-0.0,-0.0,-0.0,-0.0,-0.0,-0.0,-0.0,-0.0,-0.0,-0.0,-0.0,-0.0,-0.0,-0.0,-0.0,-0.0,-0.0,-0.0,-0.0,-0.0,-0.0,-0.0,-0.0,1.2359,1.2522,1.2671,1.2827,1.2854,1.2881,1.2956,1.2908,1.2854,1.2854,1.2793,1.2779,1.2847,1.2718,1.2623,1.2623,1.2705,1.2732,1.2821,1.2664,1.263,1.2562,1.2569,1.146,0.9236,0.6848,0.3833,-0.0,-0.0,-0.0,-0.0,-0.0,-0.0,-0.0,-0.0,-0.0,-0.0,-0.0,-0.0,-0.0,-0.0,-0.0,-0.0,-0.0,-0.0,-0.0,-0.0,-0.0,-0.0,-0.0,-0.0,-0.0,-0.0,-0.0,-0.0,-0.0,-0.0,-0.0,-0.0,-0.0,-0.0,-0.0,-0.0,-0.0,-0.0,-0.0,-0.0,-0.0,-0.0,-0.0,-0.0,-0.0,-0.0,-0.0,-0.0,-0.0,-0.0,-0.0,-0.0,-0.0,-0.0,-0.0,-0.0,-0.0,-0.0,-0.0,-0.0,-0.0,-0.0,-0.0,-0.0,-0.0,-0.0,-0.0,-0.0,-0.0,-0.0,-0.0,-0.0,-0.0,-0.0,-0.0,-0.0,-0.0,-0.0,-0.0,-0.0,-0.0,-0.0,-0.0,-0.0,-0.0,-0.0,-0.0,-0.0,-0.0,1.2257,1.2386,1.2522,1.2698,1.2712,1.2705,1.2725,1.2712,1.2698,1.2698,1.2583,1.2549,1.2678,1.2576,1.2501,1.2501,1.2623,1.2637,1.2508,1.2623,1.2637,1.2508,1.2528,1.2542,1.2542,1.2535,0.8952,0.1806,0.1176,0.0574,-0.0,-0.0,-0.0,-0.0,-0.0,-0.0,-0.0,-0.0,-0.0,-0.0,-0.0,-0.0,-0.0,-0.0,-0.0,-0.0,-0.0,-0.0,-0.0,-0.0,-0.0,-0.0,-0.0,-0.0,-0.0,-0.0,-0.0,-0.0,-0.0,-0.0,-0.0,-0.0,-0.0,-0.0,-0.0,-0.0,-0.0,-0.0,-0.0,-0.0,-0.0,-0.0,-0.0,-0.0,-0.0,-0.0,-0.0,-0.0,-0.0,-0.0,-0.0,-0.0,-0.0,-0.0,-0.0,-0.0,-0.0,-0.0,-0.0,-0.0,-0.0,-0.0,-0.0,-0.0,-0.0,-0.0,-0.0,-0.0,-0.0,-0.0,-0.0,-0.0,-0.0,-0.0,-0.0,-0.0,-0.0,-0.0,-0.0,-0.0,-0.0,-0.0,-0.0,-0.0,-0.0,-0.0,1.2237,1.2311,1.2413,1.2684,1.2623,1.2583,1.2712,1.2617,1.2535,1.2535,1.2515,1.2508,1.2535,1.2515,1.2501,1.2501,1.2522,1.2528,1.2501,1.2522,1.2528,1.2501,1.2508,1.2508,1.2508,1.2291,1.1489,0.9848,0.6443,0.3152,-0.0,-0.0,-0.0,-0.0,-0.0,-0.0,-0.0,-0.0,-0.0,-0.0,-0.0,-0.0,-0.0,-0.0,-0.0,-0.0,-0.0,-0.0,-0.0,-0.0,-0.0,-0.0,-0.0,-0.0,-0.0,-0.0,-0.0,-0.0,-0.0,-0.0,-0.0,-0.0,-0.0,-0.0,-0.0,-0.0,-0.0,-0.0,-0.0,-0.0,-0.0,-0.0,-0.0,-0.0,-0.0,-0.0,-0.0,-0.0,-0.0,-0.0,-0.0,-0.0,-0.0,-0.0,-0.0,-0.0,-0.0,-0.0,-0.0,-0.0,-0.0,-0.0,-0.0,-0.0,-0.0,-0.0,-0.0,-0.0,-0.0,-0.0,-0.0,-0.0,-0.0,-0.0,-0.0,-0.0,-0.0,-0.0,-0.0,-0.0,-0.0,-0.0,-0.0,-0.0,-0.0,-0.0,1.3777,1.3925,1.3945,1.2769,1.2494,1.2528,1.2596,1.2549,1.2501,1.2501,1.2501,1.2501,1.2501,1.2501,1.2501,1.2501,1.2501,1.2501,1.2501,1.2501,1.2501,1.2501,1.2501,1.2467,1.2386,1.2182,1.202,1.1757,0.9814,0.8064,0.6222,0.3925,0.1935,-0.0,-0.0,-0.0,-0.0,-0.0,-0.0,-0.0,-0.0,-0.0,-0.0,-0.0,-0.0,-0.0,-0.0,-0.0,-0.0,-0.0,-0.0,-0.0,-0.0,-0.0,-0.0,-0.0,-0.0,-0.0,-0.0,-0.0,-0.0,-0.0,-0.0,-0.0,-0.0,-0.0,-0.0,-0.0,-0.0,-0.0,-0.0,-0.0,-0.0,-0.0,-0.0,-0.0,-0.0,-0.0,-0.0,-0.0,-0.0,-0.0,-0.0,-0.0,-0.0,-0.0,-0.0,-0.0,-0.0,-0.0,-0.0,-0.0,-0.0,-0.0,-0.0,-0.0,-0.0,-0.0,-0.0,-0.0,-0.0,-0.0,-0.0,-0.0,-0.0,-0.0,-0.0,-0.0,-0.0,-0.0,-0.0,-0.0,-0.0,-0.0,-0.0,-0.0,1.5561,1.5922,1.5824,1.386,1.371,1.3662,1.3209,1.3084,1.2958,1.2501,1.2501,1.2501,1.2501,1.2501,1.2501,1.2501,1.2501,1.2501,1.2501,1.2501,1.2501,1.2501,1.2467,1.2386,1.2244,1.2088,1.1945,1.1823,1.1701,1.1586,1.1463,0.8329,0.5282,0.2463,0.1625,0.0808,-0.0,-0.0,-0.0,-0.0,-0.0,-0.0,-0.0,-0.0,-0.0,-0.0,-0.0,-0.0,-0.0,-0.0,-0.0,-0.0,-0.0,-0.0,-0.0,-0.0,-0.0,-0.0,-0.0,-0.0,-0.0,-0.0,-0.0,-0.0,-0.0,-0.0,-0.0,-0.0,-0.0,-0.0,-0.0,-0.0,-0.0,-0.0,-0.0,-0.0,-0.0,-0.0,-0.0,-0.0,-0.0,-0.0,-0.0,-0.0,-0.0,-0.0,-0.0,-0.0,-0.0,-0.0,-0.0,-0.0,-0.0,-0.0,-0.0,-0.0,-0.0,-0.0,-0.0,-0.0,-0.0,-0.0,-0.0,-0.0,-0.0,-0.0,-0.0,-0.0,-0.0,-0.0,-0.0,-0.0,-0.0,-0.0,-0.0,-0.0,1.7205,1.7305,1.7394,1.7311,1.7527,1.7067,1.5136,1.5126,1.4629,1.2804,1.2501,1.2501,1.2501,1.2501,1.2501,1.2501,1.2501,1.2501,1.2501,1.2501,1.2501,1.2501,1.2379,1.2237,1.2081,1.1925,1.1782,1.164,1.1626,1.1558,1.1578,1.1275,1.0702,0.9763,0.6425,0.3119,-0.0,-0.0,-0.0,-0.0,-0.0,-0.0,-0.0,-0.0,-0.0,-0.0,-0.0,-0.0,-0.0,-0.0,-0.0,-0.0,-0.0,-0.0,-0.0,-0.0,-0.0,-0.0,-0.0,-0.0,-0.0,-0.0,-0.0,-0.0,-0.0,-0.0,-0.0,-0.0,-0.0,-0.0,-0.0,-0.0,-0.0,-0.0,-0.0,-0.0,-0.0,-0.0,-0.0,-0.0,-0.0,-0.0,-0.0,-0.0,-0.0,-0.0,-0.0,-0.0,-0.0,-0.0,-0.0,-0.0,-0.0,-0.0,-0.0,-0.0,-0.0,-0.0,-0.0,-0.0,-0.0,-0.0,-0.0,-0.0,-0.0,-0.0,-0.0,-0.0,-0.0,-0.0,-0.0,-0.0,-0.0,-0.0,-0.0,-0.0,1.8943,1.9947,2.0134,1.795,1.8238,1.8404,1.7168,1.6861,1.6328,1.4597,1.4236,1.3755,1.2642,1.2501,1.2501,1.2501,1.2501,1.2501,1.2501,1.2501,1.2501,1.2501,1.2366,1.2216,1.2067,1.1911,1.1762,1.1619,1.1619,1.1592,1.1545,1.145,1.1362,1.1121,0.9394,0.7922,0.6525,0.4308,0.2012,-0.0,-0.0,-0.0,-0.0,-0.0,-0.0,-0.0,-0.0,-0.0,-0.0,-0.0,-0.0,-0.0,-0.0,-0.0,-0.0,-0.0,-0.0,-0.0,-0.0,-0.0,-0.0,-0.0,-0.0,-0.0,-0.0,-0.0,-0.0,-0.0,-0.0,-0.0,-0.0,-0.0,-0.0,-0.0,-0.0,-0.0,-0.0,-0.0,-0.0,-0.0,-0.0,-0.0,-0.0,-0.0,-0.0,-0.0,-0.0,-0.0,-0.0,-0.0,-0.0,-0.0,-0.0,-0.0,-0.0,-0.0,-0.0,-0.0,-0.0,-0.0,-0.0,-0.0,-0.0,-0.0,-0.0,-0.0,-0.0,-0.0,-0.0,-0.0,-0.0,-0.0,-0.0,-0.0,-0.0,-0.0,2.0736,2.1752,2.1971,1.956,2.0002,2.0186,1.902,1.8696,1.8016,1.6382,1.5604,1.4565,1.3479,1.2776,1.2501,1.2501,1.2501,1.2481,1.244,1.2393,1.2386,1.2433,1.2298,1.2149,1.1993,1.1843,1.1714,1.1619,1.1619,1.1619,1.1619,1.1511,1.145,1.155,1.1013,1.075,1.0581,0.8107,0.5633,0.322,0.2146,0.1074,-0.0,-0.0,-0.0,-0.0,-0.0,-0.0,-0.0,-0.0,-0.0,-0.0,-0.0,-0.0,-0.0,-0.0,-0.0,-0.0,-0.0,-0.0,-0.0,-0.0,-0.0,-0.0,-0.0,-0.0,-0.0,-0.0,-0.0,-0.0,-0.0,-0.0,-0.0,-0.0,-0.0,-0.0,-0.0,-0.0,-0.0,-0.0,-0.0,-0.0,-0.0,-0.0,-0.0,-0.0,-0.0,-0.0,-0.0,-0.0,-0.0,-0.0,-0.0,-0.0,-0.0,-0.0,-0.0,-0.0,-0.0,-0.0,-0.0,-0.0,-0.0,-0.0,-0.0,-0.0,-0.0,-0.0,-0.0,-0.0,-0.0,-0.0,-0.0,-0.0,-0.0,-0.0,2.2298,2.2418,2.2512,2.2806,2.3113,2.26,2.0592,2.0519,1.9949,1.8061,1.6184,1.511,1.511,1.3617,1.2501,1.2501,1.2501,1.244,1.2298,1.2149,1.2128,1.2277,1.2142,1.1986,1.1837,1.1694,1.1619,1.1619,1.1619,1.1619,1.1619,1.1619,1.1538,1.1389,1.1233,1.096,1.0697,1.0685,1.0638,1.0398,0.6849,0.3352,0.0134,-0.0,-0.0,-0.0,-0.0,-0.0,-0.0,-0.0,-0.0,-0.0,-0.0,-0.0,-0.0,-0.0,-0.0,-0.0,-0.0,-0.0,-0.0,-0.0,-0.0,-0.0,-0.0,-0.0,-0.0,-0.0,-0.0,-0.0,-0.0,-0.0,-0.0,-0.0,-0.0,-0.0,-0.0,-0.0,-0.0,-0.0,-0.0,-0.0,-0.0,-0.0,-0.0,-0.0,-0.0,-0.0,-0.0,-0.0,-0.0,-0.0,-0.0,-0.0,-0.0,-0.0,-0.0,-0.0,-0.0,-0.0,-0.0,-0.0,-0.0,-0.0,-0.0,-0.0,-0.0,-0.0,-0.0,-0.0,-0.0,-0.0,-0.0,-0.0,-0.0,-0.0,2.2044,2.2271,2.2512,2.2806,2.2939,2.2935,2.2434,2.2357,2.1695,2.0048,1.9289,1.8006,1.5214,1.4635,1.3793,1.2354,1.2196,1.2176,1.2135,1.2088,1.2033,1.1972,1.1925,1.1932,1.1993,1.1748,1.1619,1.1619,1.1619,1.1619,1.1619,1.1619,1.1592,1.1545,1.1389,1.124,1.1097,1.0955,1.0846,1.0632,0.954,0.8467,0.7263,0.4693,0.3754,0.3756,0.3756,0.2147,-0.0,-0.0,-0.0,-0.0,-0.0,-0.0,-0.0,-0.0,-0.0,-0.0,-0.0,-0.0,-0.0,-0.0,-0.0,-0.0,-0.0,-0.0,-0.0,-0.0,-0.0,-0.0,-0.0,-0.0,-0.0,-0.0,-0.0,-0.0,-0.0,-0.0,-0.0,-0.0,-0.0,-0.0,-0.0,-0.0,-0.0,-0.0,-0.0,-0.0,-0.0,-0.0,-0.0,-0.0,-0.0,-0.0,-0.0,-0.0,-0.0,-0.0,-0.0,-0.0,-0.0,-0.0,-0.0,-0.0,-0.0,-0.0,-0.0,-0.0,-0.0,-0.0,-0.0,-0.0,-0.0,-0.0,-0.0,-0.0,2.1764,2.1951,2.2205,2.2619,2.2686,2.2792,2.31,2.2979,2.2566,2.1629,2.09,1.9659,1.7339,1.5919,1.4662,1.3386,1.2444,1.1999,1.206,1.1952,1.1898,1.1925,1.1809,1.1789,1.1884,1.1714,1.1619,1.1619,1.1619,1.1619,1.1619,1.1619,1.1619,1.1613,1.1457,1.1307,1.1151,1.1009,1.09,1.0833,1.0833,1.0712,1.0463,0.8262,0.7555,0.7526,0.7526,0.6042,0.4029,0.2697,0.2163,0.2169,0.2188,0.1087,-0.0,-0.0,-0.0,-0.0,-0.0,-0.0,-0.0,-0.0,-0.0,-0.0,-0.0,-0.0,-0.0,-0.0,-0.0,-0.0,-0.0,-0.0,-0.0,-0.0,-0.0,-0.0,-0.0,-0.0,-0.0,-0.0,-0.0,-0.0,-0.0,-0.0,-0.0,-0.0,-0.0,-0.0,-0.0,-0.0,-0.0,-0.0,-0.0,-0.0,-0.0,-0.0,-0.0,-0.0,-0.0,-0.0,-0.0,-0.0,-0.0,-0.0,-0.0,-0.0,-0.0,-0.0,-0.0,-0.0,-0.0,-0.0,-0.0,-0.0,-0.0,-0.0,2.1496,2.1577,2.1764,2.2285,2.2418,2.2539,2.2779,2.2846,2.2859,2.2859,2.1558,2.0439,2.0274,1.7309,1.5389,1.5078,1.319,1.2017,1.2013,1.1769,1.1742,1.2013,1.1762,1.1619,1.1619,1.1619,1.1619,1.1619,1.1619,1.1619,1.1619,1.1619,1.1619,1.1613,1.147,1.1328,1.1172,1.1029,1.0968,1.0968,1.0955,1.0833,1.0717,1.071,1.0772,1.0685,1.0672,1.0665,1.0277,0.7364,0.6157,0.588,0.5888,0.3663,0.0941,0.0538,0.0538,0.0538,0.0538,0.0269,-0.0,-0.0,-0.0,-0.0,-0.0,-0.0,-0.0,-0.0,-0.0,-0.0,-0.0,-0.0,-0.0,-0.0,-0.0,-0.0,-0.0,-0.0,-0.0,-0.0,-0.0,-0.0,-0.0,-0.0,-0.0,-0.0,-0.0,-0.0,-0.0,-0.0,-0.0,-0.0,-0.0,-0.0,-0.0,-0.0,-0.0,-0.0,-0.0,-0.0,-0.0,-0.0,-0.0,-0.0,-0.0,-0.0,-0.0,-0.0,-0.0,-0.0,-0.0,-0.0,-0.0,-0.0,-0.0,-0.0,2.1496,2.1737,2.1937,2.2058,2.2458,2.2712,2.2539,2.2712,2.2859,2.2859,2.271,2.195,2.0308,1.9651,1.8581,1.6842,1.4936,1.3236,1.1852,1.1653,1.1647,1.1714,1.1653,1.1619,1.1619,1.1619,1.1619,1.1619,1.1619,1.1619,1.1619,1.1619,1.1619,1.1619,1.1586,1.1484,1.1335,1.1179,1.1118,1.1104,1.0995,1.1016,1.1111,1.0859,1.0806,1.09,1.0778,1.0751,1.0658,1.0406,1.0321,1.0197,0.9739,0.8988,0.7786,0.5043,0.4192,0.4292,0.4292,0.2146,-0.0,-0.0,-0.0,-0.0,-0.0,-0.0,-0.0,-0.0,-0.0,-0.0,-0.0,-0.0,-0.0,-0.0,-0.0,-0.0,-0.0,-0.0,-0.0,-0.0,-0.0,-0.0,-0.0,-0.0,-0.0,-0.0,-0.0,-0.0,-0.0,-0.0,-0.0,-0.0,-0.0,-0.0,-0.0,-0.0,-0.0,-0.0,-0.0,-0.0,-0.0,-0.0,-0.0,-0.0,-0.0,-0.0,-0.0,-0.0,-0.0,-0.0,-0.0,-0.0,-0.0,-0.0,-0.0,-0.0,2.1309,2.147,2.1657,2.1937,2.2245,2.2485,2.2605,2.2766,2.2859,2.2859,2.3006,2.2618,2.1609,2.0738,1.9492,1.7398,1.5416,1.4014,1.3031,1.2043,1.1619,1.1619,1.1619,1.1619,1.1619,1.1619,1.1619,1.1619,1.1619,1.1619,1.1619,1.1619,1.1619,1.1619,1.1619,1.1491,1.128,1.1274,1.1226,1.1165,1.1158,1.1206,1.1253,1.1104,1.1009,1.0928,1.0772,1.0819,1.0962,1.1337,1.142,1.1497,1.1147,1.0889,1.0302,0.8497,0.7878,0.7942,0.8132,0.6783,0.4894,0.3166,0.2765,0.2345,0.0409,-0.0,-0.0,-0.0,0.2706,0.5159,0.5124,0.3765,0.2551,0.2551,0.2551,0.2551,0.2551,0.2551,0.2551,0.2551,0.2551,0.188,0.0134,0.1612,0.3226,0.4983,0.1882,-0.0,-0.0,-0.0,0.1615,0.4983,0.1749,-0.0,-0.0,-0.0,-0.0,-0.0,-0.0,-0.0,-0.0,-0.0,-0.0,-0.0,-0.0,-0.0,-0.0,-0.0,-0.0,-0.0,-0.0,-0.0,-0.0,-0.0,-0.0,-0.0,2.1109,2.1149,2.1336,2.183,2.1951,2.2151,2.2645,2.2752,2.2779,2.2779,2.2832,2.2859,2.2859,2.1459,1.9773,1.7809,1.6263,1.5274,1.4849,1.3167,1.2043,1.2043,1.1756,1.1619,1.1619,1.1619,1.1619,1.1619,1.1619,1.1619,1.1619,1.1619,1.1619,1.1619,1.1619,1.1477,1.1246,1.1321,1.1294,1.1206,1.1287,1.1328,1.1335,1.1185,1.105,1.0928,1.0772,1.0894,1.1131,1.1185,1.1287,1.1389,1.1389,1.1094,1.0763,1.0717,1.0772,1.0853,1.1118,1.1152,1.0496,0.7539,0.6729,0.6012,0.2771,0.1532,0.0974,0.095,0.559,1.0036,1.0591,0.8349,0.6309,0.6309,0.6309,0.6309,0.6309,0.6309,0.6309,0.6309,0.6309,0.5098,0.2146,0.4021,0.6853,1.0424,0.5242,0.1609,0.0939,0.094,0.3631,0.96,0.4577,0.1478,0.0939,0.0941,0.0941,0.0941,0.0941,0.0538,-0.0,-0.0,-0.0,-0.0,-0.0,-0.0,-0.0,-0.0,-0.0,-0.0,-0.0,-0.0,-0.0,-0.0,-0.0,-0.0,2.1109,2.1309,2.1523,2.159,2.1817,2.2017,2.2098,2.2325,2.2472,2.2472,2.2699,2.2859,2.2859,2.2722,2.1734,1.9912,1.9495,1.8648,1.6967,1.5,1.4014,1.4014,1.2466,1.1619,1.1619,1.1619,1.1619,1.1619,1.1619,1.1619,1.1619,1.1619,1.1619,1.1619,1.1619,1.1599,1.1545,1.1301,1.126,1.1341,1.1104,1.1084,1.1179,1.1029,1.0962,1.0928,1.0772,1.0833,1.1016,1.1274,1.1375,1.1389,1.1389,1.1369,1.1287,1.1029,1.0806,1.0934,1.0955,1.1118,1.1193,1.0614,1.0696,1.0715,1.0125,0.7472,0.5005,0.4652,0.5464,0.7097,1.0149,1.0264,0.9984,0.9984,0.9984,0.9984,0.9984,0.9984,0.9984,0.9984,0.9984,0.9844,0.9303,0.6849,0.6849,1.0404,0.985,0.7937,0.4827,0.4693,0.5098,0.6042,0.821,0.7804,0.4693,0.4693,0.4693,0.4693,0.4693,0.3088,-0.0,-0.0,-0.0,-0.0,-0.0,-0.0,-0.0,-0.0,-0.0,-0.0,-0.0,-0.0,-0.0,-0.0,-0.0,-0.0,2.1109,2.1216,2.1363,2.1523,2.1657,2.1857,2.2178,2.2338,2.2472,2.2645,2.2779,2.2859,2.2859,2.2859,2.2585,2.1734,2.0756,1.9773,1.8938,1.6967,1.5557,1.4432,1.3587,1.2602,1.1619,1.1619,1.1619,1.1619,1.1619,1.1619,1.1619,1.1619,1.1572,1.1491,1.1491,1.1396,1.124,1.1185,1.1158,1.1138,1.109,1.1104,1.1158,1.109,1.107,1.1056,1.0989,1.1063,1.1212,1.1348,1.145,1.1518,1.1518,1.1457,1.1362,1.1233,1.1138,1.109,1.1172,1.1206,1.1406,1.1477,1.1545,1.1558,1.1558,1.0333,0.8922,0.8692,0.8497,0.8872,1.0391,1.0765,1.0758,1.0758,1.0758,1.0758,1.0758,1.0758,1.0758,1.0758,1.0758,1.0765,1.0645,0.9262,0.8989,1.0638,1.0645,0.9958,0.8456,0.8333,0.8339,0.8323,0.9837,0.9977,0.8323,0.8333,0.8344,0.8344,0.8328,0.7522,0.5919,0.3892,0.295,0.2954,0.2954,0.2954,0.2954,0.2954,0.2954,0.2954,0.2954,0.2954,0.2954,0.2954,0.2954,0.2954]},{"header":{"parameterUnit":"m.s-1","parameterCategory":1,"la1":30.6,"la2":28.766,"lo1":-90.7593,"lo2":-88.6598,"dy":0.0162,"dx":0.0183,"nx":116,"ny":114,"refTime":"2024-04-04T12:00:00:Z","depth":0,"parameterNumber":3,"parameterNumberName":"V-component_of_WINDS"},"data":[0.0,0.0,0.0,0.0,0.0,0.0,0.0,0.0,0.0,0.0,0.0,0.0,0.0,0.0,0.0,0.0,0.0,0.0,0.0,0.0,0.0,0.0,0.0,0.0,0.0,0.0,0.0,0.0,0.0,0.0,0.0,0.0,0.0,0.0,0.0,0.0,0.0,0.0,0.0,0.0,0.0,0.0,0.0,0.0,0.0,0.0,0.0,0.0,0.0,0.0,0.0,0.0,0.0,0.0,0.0,0.0,0.0,0.0,0.0,0.0,0.0,0.0,0.0,0.0,0.0,0.0,0.0,0.0,0.0,0.0,0.0,0.0,0.0,0.0,0.0,0.0,0.0,0.0,0.0,0.0,0.0,0.0,0.0,0.0,0.0,0.0,0.0,0.0,0.0,0.0,0.0,0.0,0.0,0.0,0.0,0.0,0.0,0.0,0.0,0.0,0.0,0.0,0.0,0.0,0.0,0.0,0.0,0.0,0.0,0.0,0.0,0.0,0.0,0.0,0.0,0.0,0.0,0.0,0.0,0.0,0.0,0.0,0.0,0.0,0.0,0.0,0.0,0.0,0.0,0.0,0.0,0.0,0.0,0.0,0.0,0.0,0.0,0.0,0.0,0.0,0.0,0.0,0.0,0.0,0.0,0.0,0.0,0.0,0.0,0.0,0.0,0.0,0.0,0.0,0.0,0.0,0.0,0.0,0.0,0.0,0.0,0.0,0.0,0.0,0.0,0.0,0.0,0.0,0.0,0.0,0.0,0.0,0.0,0.0,0.0,0.0,0.0,0.0,0.0,0.0,0.0,0.0,0.0,0.0,0.0,0.0,0.0,0.0,0.0,0.0,0.0,0.0,0.0,0.0,0.0,0.0,0.0,0.0,0.0,0.0,0.0,0.0,0.0,0.0,0.0,0.0,0.0,0.0,0.0,0.0,0.0,0.0,0.0,0.0,0.0,0.0,0.0,0.0,0.0,0.0,0.0,0.0,0.0,0.0,0.0,0.0,0.0,0.0,0.0,0.0,0.0,0.0,0.0,0.0,0.0,0.0,0.0,0.0,0.0,0.0,0.0,0.0,0.0,0.0,0.0,0.0,0.0,0.0,0.0,0.0,0.0,0.0,0.0,0.0,0.0,0.0,0.0,0.0,0.0,0.0,0.0,0.0,0.0,0.0,0.0,0.0,0.0,0.0,0.0,0.0,0.0,0.0,0.0,0.0,0.0,0.0,0.0,0.0,0.0,0.0,0.0,0.0,0.0,0.0,0.0,0.0,0.0,0.0,0.0,0.0,0.0,0.0,0.0,0.0,0.0,0.0,0.0,0.0,0.0,0.0,0.0,0.0,0.0,0.0,0.0,0.0,0.0,0.0,0.0,0.0,0.0,0.0,0.0,0.0,0.0,0.0,0.0,0.0,0.0,0.0,0.0,0.0,0.0,0.0,0.0,0.0,0.0,0.0,0.0,0.0,0.0,0.0,0.0,0.0,0.0,0.0,0.0,0.0,0.0,0.0,0.0,0.0,0.0,0.0,0.0,0.0,0.0,0.0,0.0,0.0,0.0,0.0,0.0,0.0,0.0,0.0,0.0,0.0,0.0,0.0,0.0,0.0,0.0,0.0,0.0,0.0,0.0,0.0,0.0,0.0,0.0,0.0,0.0,0.0,0.0,0.0,0.0,0.0,0.0,0.0,0.0,0.0,0.0,0.0,0.0,0.0,0.0,0.0,0.0,0.0,0.0,0.0,0.0,0.0,0.0,0.0,0.0,0.0,0.0,0.0,0.0,0.0,0.0,0.0,0.0,0.0,0.0,0.0,0.0,0.0,0.0,0.0,0.0,0.0,0.0,0.0,0.0,0.0,0.0,0.0,0.0,0.0,0.0,0.0,0.0,0.0,0.0,0.0,0.0,0.0,0.0,0.0,0.0,0.0,0.0,0.0,0.0,0.0,0.0,0.0,0.0,0.0,0.0,0.0,0.0,0.0,0.0,0.0,0.0,0.0,0.0,0.0,0.0,0.0,0.0,0.0,0.0,0.0,0.0,0.0,0.0,0.0,0.0,0.0,0.0,0.0,0.0,0.0,0.0,0.0,0.0,0.0,0.0,0.0,0.0,0.0,0.0,0.0,0.0,0.0,0.0,0.0,0.0,0.0,0.0,0.0,0.0,0.0,0.0,0.0,0.0,0.0,0.0,0.0,0.0,0.0,0.0,0.0,0.0,0.0,0.0,0.0,0.0,0.0,0.0,0.0,0.0,0.0,0.0,0.0,0.0,0.0,0.0,0.0,0.0,0.0,0.0,0.0,0.0,0.0,0.0,0.0,0.0,0.0,0.0,0.0,0.0,0.0,0.0,0.0,0.0,0.0,0.0,0.0,0.0,0.0,0.0,0.0,0.0,0.0,0.0,0.0,0.0,0.0,0.0,0.0,0.0,0.0,0.0,0.0,0.0,0.0,0.0,0.0,0.0,0.0,0.0,0.0,0.0,0.0,0.0,0.0,0.0,0.0,0.0,0.0,0.0,0.0,0.0,0.0,0.0,0.0,0.0,0.0,0.0,0.0,0.0,0.0,0.0,0.0,0.0,0.0,0.0,0.0,0.0,0.0,0.0,0.0,0.0,0.0,0.0,0.0,0.0,0.0,0.0,0.0,0.0,0.0,0.0,0.0,0.0,0.0,0.0,0.0,0.0,0.0,0.0,0.0,0.0,0.0,0.0,0.0,0.0,0.0,0.0,0.0,0.0,0.0,0.0,0.0,0.0,0.0,0.0,0.0,0.0,0.0,0.0,0.0,0.0,0.0,0.0,0.0,0.0,0.0,0.0,0.0,0.0,0.0,0.0,0.0,0.0,0.0,0.0,0.0,0.0,0.0,0.0,0.0,0.0,0.0,0.0,0.0,0.0,0.0,0.0,0.0,0.0,0.0,0.0,0.0,0.0,0.0,0.0,0.0,0.0,0.0,0.0,0.0,0.0,0.0,0.0,0.0,0.0,0.0,0.0,0.0,0.0,0.0,0.0,0.0,0.0,0.0,0.0,0.0,0.0,0.0,0.0,0.0,0.0,0.0,0.0,0.0,0.0,0.0,0.0,0.0,0.0,0.0,0.0,0.0,0.0,0.0,0.0,0.0,0.0,0.0,0.0,0.0,0.0,0.0,0.0,0.0,0.0,0.0,0.0,0.0,0.0,0.0,0.0,0.0,0.0,0.0,0.0,0.0,0.0,0.0,0.0,0.0,0.0,0.0,0.0,0.0,0.0,0.0,0.0,0.0,0.0,0.0,0.0,0.0,0.0,0.0,0.0,0.0,0.0,0.0,0.0,0.0,0.0,0.0,0.0,0.0,0.0,0.0,0.0,0.0,0.0,0.0,0.0,0.0,0.0,0.0,0.0,0.0,0.0,0.0,0.0,0.0,0.0,0.0,0.0,0.0,0.0,0.0,0.0,0.0,0.0,0.0,0.0,0.0,0.0,0.0,0.0,0.0,0.0,0.0,0.0,0.0,0.0,0.0,0.0,0.0,0.0,0.0,0.0,0.0,0.0,0.0,0.0,0.0,0.0,0.0,0.0,0.0,0.0,0.0,0.0,0.0,0.0,0.0,0.0,0.0,0.0,0.0,0.0,0.0,0.0,0.0,0.0,0.0,0.0,0.0,0.0,0.0,0.0,0.0,0.0,0.0,0.0,0.0,0.0,0.0,0.0,0.0,0.0,0.0,0.0,0.0,0.0,0.0,0.0,0.0,0.0,0.0,0.0,0.0,0.0,0.0,0.0,0.0,0.0,0.0,0.0,0.0,0.0,0.0,0.0,0.0,0.0,0.0,0.0,0.0,0.0,0.0,0.0,0.0,0.0,0.0,0.0,0.0,0.0,0.0,0.0,0.0,0.0,0.0,0.0,0.0,0.0,0.0,0.0,0.0,0.0,0.0,0.0,0.0,0.0,0.0,0.0,0.0,0.0,0.0,0.0,0.0,0.0,0.0,0.0,0.0,0.0,0.0,0.0,0.0,0.0,0.0,0.0,0.0,0.0,0.0,0.0,0.0,0.0,0.0,0.0,0.0,0.0,0.0,0.0,0.0,0.0,0.0,0.0,0.0,0.0,0.0,0.0,0.0,0.0,0.0,0.0,0.0,0.0,0.0,0.0,0.0,0.0,0.0,0.0,0.0,0.0,0.0,0.0,0.0,0.0,0.0,0.0,0.0,0.0,0.0,0.0,0.0,0.0,0.0,0.0,0.0,0.0,0.0,0.0,0.0,0.0,0.0,0.0,0.0,0.0,0.0,0.0,0.0,0.0,0.0,0.0,0.0,0.0,0.0,0.0,0.0,0.0,0.0,0.0,0.0,0.0,0.0,0.0,0.0,0.0,0.0,0.0,0.0,0.0,0.0,0.0,0.0,0.0,0.0,0.0,0.0,0.0,0.0,0.0,0.0,0.0,0.0,0.0,0.0,0.0,0.0,0.0,0.0,0.0,0.0,0.0,0.0,0.0,0.0,0.0,0.0,0.0,0.0,0.0,0.0,0.0,0.0,0.0,0.0,0.0,0.0,0.0,0.0,0.0,0.0,0.0,0.0,0.0,0.0,0.0,0.0,0.0,0.0,0.0,0.0,0.0,0.0,0.0,0.0,0.0,0.0,0.0,0.0,0.0,0.0,0.0,0.0,0.0,0.0,0.0,0.0,0.0,0.0,0.0,0.0,0.0,0.0,0.0,0.0,0.0,0.0,0.0,0.0,0.0,0.0,0.0,0.0,0.0,0.0,0.0,0.0,0.0,0.0,0.0,0.0,0.0,0.0,0.0,0.0,0.0,0.0,0.0,0.0,0.0,0.0,0.0,0.0,0.0,0.0,0.0,0.0,0.0,0.0,0.0,0.0,0.0,0.0,0.0,0.0,0.0,0.0,0.0,0.0,0.0,0.0,0.0,0.0,0.0,0.0,0.0,0.0,0.0,0.0,0.0,0.0,0.0,0.0,0.0,0.0,0.0,0.0,0.0,0.0,0.0,0.0,0.0,0.0,0.0,0.0,0.0,0.0,0.0,0.0,0.0,0.0,0.0,0.0,0.0,0.0,0.0,0.0,0.0,0.0,0.0,0.0,0.0,0.0,0.0,0.0,0.0,0.0,0.0,0.0,0.0,0.0,0.0,0.0,0.0,0.0,0.0,0.0,0.0,0.0,0.0,0.0,0.0,0.0,0.0,0.0,0.0,0.0,0.0,0.0,0.0,0.0,0.0,0.0,0.0,0.0,0.0,0.0,0.0,0.0,0.0,0.0,0.0,0.0,0.0,0.0,0.0,0.0,0.0,0.0,0.0,0.0,0.0,0.0,0.0,0.0,0.0,0.0,0.0,0.0,0.0,0.0,0.0,0.0,0.0,0.0,0.0,0.0,0.0,0.0,0.0,0.0,0.0,0.0,0.0,0.0,0.0,0.0,0.0,0.0,0.0,0.0,0.0,0.0,0.0,0.0,0.0,0.0,0.0,0.0,0.0,0.0,0.0,0.0,0.0,0.0,0.0,0.0,0.0,0.0,0.0,0.0,0.0,0.0,0.0,0.0,0.0,0.0,0.0,0.0,0.0,0.0,0.0,0.0,0.0,0.0,0.0,0.0,0.0,0.0,0.0,0.0,0.0,0.0,0.0,0.0,0.0,0.0,0.0,0.0,0.0,0.0,0.0,0.0,0.0,0.0,0.0,0.0,0.0,0.0,0.0,0.0,0.0,0.0,0.0,0.0,0.0,0.0,0.0,0.0,0.0,0.0,0.0,0.0,0.0,0.0,0.0,0.0,0.0,0.0,0.0,0.0,0.0,0.0,0.0,0.0,0.0,0.0,0.0,0.0,0.0,0.0,0.0,0.0,0.0,0.0,0.0,0.0,0.0,0.0,0.0,0.0,0.0,0.0,0.0,0.0,0.0,0.0,0.0,0.0,0.0,0.0,0.0,0.0,0.0,0.0,0.0,0.0,0.0,0.0,0.0,0.0,0.0,0.0,0.0,0.0,0.0,0.0,0.0,0.0,0.0,0.0,0.0,0.0,0.0,0.0,0.0,0.0,0.0,0.0,0.0,0.0,0.0,0.0,0.0,0.0,0.0,0.0,0.0,0.0,0.0,0.0,0.0,0.0,-5.0854,-4.9612,0.0,0.0,0.0,0.0,0.0,0.0,0.0,0.0,0.0,0.0,0.0,0.0,0.0,0.0,0.0,0.0,0.0,0.0,0.0,0.0,0.0,0.0,0.0,-4.1013,-4.134,-4.134,-4.1603,-4.181,-4.181,0.0,0.0,0.0,0.0,0.0,-4.3497,-4.3497,-4.3497,-4.3497,-4.3497,-4.3277,-4.2873,-4.3277,-4.3718,-4.4085,0.0,0.0,0.0,0.0,0.0,0.0,0.0,0.0,0.0,0.0,0.0,0.0,0.0,0.0,0.0,0.0,0.0,0.0,0.0,0.0,0.0,0.0,0.0,0.0,0.0,0.0,0.0,0.0,0.0,0.0,0.0,0.0,0.0,0.0,0.0,0.0,0.0,0.0,0.0,0.0,0.0,0.0,0.0,0.0,0.0,0.0,0.0,0.0,0.0,0.0,0.0,0.0,0.0,0.0,0.0,0.0,0.0,0.0,0.0,0.0,0.0,0.0,0.0,0.0,0.0,0.0,0.0,0.0,0.0,0.0,-5.4732,-5.2731,0.0,0.0,0.0,0.0,0.0,0.0,0.0,0.0,0.0,0.0,0.0,0.0,0.0,0.0,0.0,0.0,0.0,0.0,0.0,0.0,0.0,-4.0087,-4.0087,-4.048,-4.078,-4.078,-4.1241,-4.1508,-4.1508,-4.1595,-4.1853,-4.2342,-4.2498,-4.277,-4.3178,-4.3321,-4.3356,-4.3356,-4.3573,-4.3828,-4.4121,-4.4268,-4.4782,-4.5553,-4.5516,0.0,0.0,0.0,0.0,0.0,0.0,0.0,0.0,0.0,0.0,0.0,0.0,0.0,0.0,0.0,0.0,0.0,0.0,0.0,0.0,0.0,0.0,0.0,0.0,0.0,0.0,0.0,0.0,0.0,0.0,0.0,0.0,0.0,0.0,0.0,0.0,0.0,0.0,0.0,0.0,0.0,0.0,0.0,0.0,0.0,0.0,0.0,0.0,0.0,0.0,0.0,0.0,0.0,0.0,0.0,0.0,0.0,0.0,0.0,0.0,0.0,0.0,0.0,-6.1363,-6.2805,-6.3537,-6.4532,-6.4624,-6.3804,-6.065,-5.8092,-5.6142,-5.558,0.0,0.0,0.0,0.0,0.0,0.0,0.0,0.0,0.0,0.0,0.0,0.0,0.0,0.0,0.0,0.0,0.0,0.0,0.0,-4.0087,-4.0087,-4.0154,-4.0204,-4.0204,-4.0303,-4.0353,-4.0353,-4.0733,-4.1024,-4.1115,-4.1639,-4.1937,-4.2021,-4.2541,-4.2808,-4.2808,-4.3944,-4.5259,-4.6654,-4.7352,0.0,-4.8783,-4.5333,-4.4929,-4.6691,0.0,0.0,0.0,0.0,0.0,0.0,0.0,0.0,0.0,0.0,0.0,0.0,0.0,0.0,0.0,0.0,0.0,0.0,0.0,0.0,0.0,0.0,0.0,0.0,0.0,0.0,0.0,0.0,0.0,0.0,0.0,0.0,0.0,0.0,0.0,0.0,0.0,0.0,0.0,0.0,0.0,-4.9774,-5.1169,0.0,0.0,0.0,0.0,0.0,0.0,0.0,0.0,0.0,0.0,0.0,0.0,0.0,-5.8835,-6.0399,-6.3219,-6.4782,-6.511,-6.7614,-6.8924,-6.9232,-7.0157,-7.0501,-7.0408,-7.059,0.0,-6.0564,-6.0419,0.0,0.0,0.0,0.0,0.0,0.0,0.0,0.0,0.0,0.0,0.0,0.0,0.0,0.0,0.0,0.0,0.0,0.0,0.0,0.0,0.0,-4.0832,-4.1339,-4.1339,-4.2861,-4.3294,-4.1934,-4.2552,-4.2511,-4.1445,-4.134,-4.1429,-4.181,-4.2062,-4.2597,-4.3343,-4.5148,-4.6434,-4.7094,0.0,0.0,-4.9444,-4.7645,-4.6948,-4.7058,-4.6361,0.0,0.0,0.0,0.0,0.0,0.0,0.0,0.0,0.0,0.0,0.0,0.0,0.0,0.0,0.0,0.0,0.0,0.0,0.0,0.0,0.0,0.0,0.0,0.0,0.0,0.0,0.0,0.0,0.0,0.0,0.0,0.0,0.0,0.0,0.0,0.0,0.0,0.0,0.0,-4.9187,-5.1206,-5.0068,-5.1242,-5.1695,0.0,0.0,0.0,0.0,0.0,0.0,0.0,0.0,0.0,-6.1614,-6.336,-6.4868,-6.6096,-6.8448,-6.99,-7.0491,-7.2675,-7.4013,-7.4615,-7.5581,-7.598,-7.5992,-7.6358,-7.4333,-7.0525,-6.7145,-6.4963,-6.351,0.0,0.0,0.0,0.0,-6.1568,-6.2154,0.0,0.0,0.0,0.0,0.0,0.0,0.0,0.0,0.0,0.0,0.0,0.0,-4.0646,-4.1936,-4.294,-4.3132,-4.5229,-4.5762,-4.3958,-4.3946,-4.3355,-4.1985,-4.1128,-4.092,-4.1375,-4.1858,-4.2971,-4.4735,-4.6722,-4.7939,0.0,0.0,0.0,0.0,0.0,0.0,-4.8636,-4.7792,-4.6838,0.0,0.0,0.0,0.0,0.0,0.0,0.0,0.0,0.0,0.0,0.0,0.0,0.0,0.0,0.0,0.0,0.0,0.0,0.0,0.0,0.0,0.0,0.0,0.0,0.0,0.0,0.0,0.0,0.0,0.0,0.0,0.0,0.0,0.0,0.0,0.0,0.0,0.0,-5.0667,-5.2736,-5.0006,-5.2929,-5.4275,0.0,0.0,0.0,0.0,0.0,0.0,-6.0479,-6.2319,-6.4537,-6.7323,-6.9097,-7.0552,-7.1706,-7.3301,-7.4599,-7.5589,-7.6981,-7.809,-7.8975,-7.9949,-8.0255,-8.0014,-8.044,-8.0165,-7.8912,-7.3158,-7.0167,-6.8975,-6.653,-6.5499,-6.5508,-6.6767,-6.7426,-6.7929,0.0,0.0,0.0,0.0,0.0,0.0,0.0,0.0,0.0,0.0,0.0,-4.0431,-4.2001,-4.3357,-4.4524,-4.5456,-4.5669,-4.5703,-4.5591,-4.3572,-4.2373,-4.2291,-4.0934,-4.0154,-4.0154,-4.1985,-4.4253,-4.6947,0.0,0.0,0.0,0.0,0.0,0.0,0.0,0.0,0.0,-4.9554,-4.8673,-4.9114,0.0,0.0,0.0,0.0,0.0,0.0,0.0,0.0,0.0,0.0,0.0,0.0,0.0,0.0,0.0,0.0,0.0,0.0,0.0,0.0,0.0,0.0,0.0,0.0,0.0,0.0,0.0,0.0,0.0,0.0,0.0,0.0,0.0,0.0,0.0,0.0,0.0,0.0,0.0,-5.3647,-5.7599,0.0,0.0,0.0,0.0,-5.9674,-6.1335,-6.358,-6.6499,-6.7564,-6.9602,-7.2986,-7.3937,-7.5284,-7.7189,-7.8045,-7.9114,-8.0357,-8.0463,-8.0969,-8.1813,-8.2708,-8.2569,-8.1689,-8.3259,-8.3491,-8.2348,-7.7156,-7.4456,-7.3434,-7.0786,-6.9787,-6.9778,-6.9894,-7.0439,-7.1252,0.0,0.0,0.0,0.0,0.0,0.0,0.0,-3.7805,-3.8087,-3.8665,-3.9824,-4.1216,-4.2814,-4.5089,-4.6845,-4.7759,-4.912,-4.9508,-4.846,-4.6374,-4.4946,-4.43,-4.2022,-4.1206,-4.2152,-4.4121,-4.5864,-4.7357,0.0,0.0,0.0,0.0,0.0,0.0,0.0,0.0,0.0,-5.1059,-4.9481,-4.86,-4.6654,-4.5883,0.0,0.0,0.0,0.0,0.0,0.0,0.0,0.0,0.0,0.0,0.0,0.0,0.0,0.0,0.0,0.0,0.0,0.0,0.0,0.0,0.0,0.0,0.0,0.0,0.0,0.0,0.0,0.0,0.0,0.0,0.0,0.0,0.0,0.0,0.0,0.0,0.0,-5.8342,-6.2631,0.0,-6.3296,-6.3435,-6.4123,-6.5394,-6.7034,-6.9135,-7.186,-7.336,-7.5245,-7.7669,-7.8554,-7.97,-8.1077,-8.0931,-8.1538,-8.2962,-8.2554,-8.2737,-8.3419,-8.3731,-8.3641,-8.332,-8.3784,-8.3838,-8.3439,-8.1473,-8.0203,-7.9404,-7.7938,-7.7278,-7.7232,-7.777,-7.8154,-7.8538,0.0,0.0,0.0,0.0,-3.7584,-3.76,-3.7113,-3.7382,-3.7947,-3.8796,-4.0481,-4.2461,-4.463,-4.721,-4.9271,-5.0427,-5.141,-5.1503,-5.039,-4.767,-4.5772,-4.5079,-4.2808,-4.2147,-4.3487,-4.5609,-4.7192,0.0,0.0,0.0,0.0,0.0,0.0,0.0,0.0,0.0,0.0,0.0,-5.0655,-4.9003,-4.7388,-4.7205,-4.7645,0.0,0.0,0.0,0.0,0.0,0.0,0.0,0.0,0.0,0.0,0.0,0.0,0.0,0.0,0.0,0.0,0.0,0.0,0.0,0.0,0.0,0.0,0.0,0.0,0.0,0.0,0.0,0.0,0.0,0.0,0.0,0.0,0.0,0.0,0.0,-6.2151,-6.1912,-6.6954,-6.979,-6.8165,-6.877,-6.974,-7.0871,-7.2514,-7.4361,-7.6399,-7.79,-7.94,-8.1047,-8.1926,-8.27,-8.3387,-8.3563,-8.3944,-8.4629,-8.4248,-8.4223,-8.4544,-8.4841,-8.4593,-8.4061,-8.4753,-8.4786,-8.4247,-8.4401,-8.417,-8.3708,-8.2907,-8.2292,-8.2054,-8.2862,-8.317,-8.3247,0.0,0.0,0.0,-3.6303,-3.6927,-3.732,-3.6805,-3.7388,-3.8259,-3.9376,-4.1489,-4.4083,-4.7358,-4.969,-5.17,-5.341,-5.2164,-5.1225,-5.1163,-4.7011,-4.4531,-4.4401,-4.3062,-4.2898,-4.4029,-4.6385,0.0,0.0,0.0,0.0,0.0,0.0,0.0,0.0,0.0,0.0,0.0,0.0,-5.2307,-5.0765,-4.9077,-4.893,-4.9481,0.0,0.0,0.0,0.0,0.0,0.0,0.0,0.0,0.0,0.0,0.0,0.0,0.0,0.0,0.0,0.0,0.0,0.0,0.0,0.0,0.0,0.0,0.0,0.0,0.0,0.0,0.0,0.0,0.0,0.0,0.0,0.0,0.0,-5.486,-6.0967,-6.5176,-6.445,-7.0537,-7.3899,-7.1475,-7.3476,-7.5284,-7.613,-7.7707,-7.9092,-8.0161,-8.1047,-8.2001,-8.3079,-8.3931,-8.4337,-8.4331,-8.5969,-8.641,-8.5619,-8.5583,-8.5445,-8.5291,-8.6099,-8.5445,-8.3862,-8.6324,-8.6478,-8.5055,-8.5786,-8.6094,-8.6017,-8.5247,-8.4439,-8.3785,-8.4632,-8.4939,-8.4939,0.0,0.0,-3.6303,-3.6303,-3.6486,-3.6787,-3.7217,-3.7152,-3.7753,-3.9766,-4.215,-4.4916,-4.8139,-5.0923,-5.3278,-5.4966,-5.3169,-5.1899,-5.1856,-4.7576,-4.4773,-4.419,-4.4752,-4.5789,-4.7277,0.0,0.0,0.0,0.0,0.0,0.0,0.0,0.0,0.0,0.0,0.0,0.0,0.0,-5.3298,-5.3261,-5.1646,-5.1132,-5.1132,0.0,0.0,0.0,0.0,0.0,0.0,0.0,0.0,0.0,0.0,0.0,0.0,0.0,0.0,0.0,0.0,0.0,0.0,0.0,0.0,0.0,0.0,0.0,0.0,0.0,0.0,0.0,0.0,0.0,0.0,0.0,-5.7662,-6.0418,-5.9693,-6.4719,-6.9289,-7.1516,-7.5686,-7.8438,-7.8515,-7.9131,-8.0008,-8.1008,-8.147,-8.2194,-8.3079,-8.3948,-8.4591,-8.5067,-8.578,-8.6477,-8.7229,-8.6958,-8.7228,-8.8035,-8.7391,-8.6983,-8.6824,-8.7671,-8.744,-8.6401,-8.7094,-8.7132,-8.6671,-8.6286,-8.6094,-8.6094,-8.5863,-8.5632,-8.544,-8.567,-8.5786,-8.5709,0.0,-3.5154,-3.5182,-3.5038,-3.5418,-3.6046,-3.6853,-3.7009,-3.7907,-4.0271,-4.3032,-4.59,-4.8776,-5.1261,-5.3059,-5.4099,-5.236,-5.0873,-5.0083,-4.7308,-4.5471,-4.5043,-4.6464,-4.7802,0.0,0.0,0.0,0.0,0.0,0.0,0.0,0.0,0.0,0.0,0.0,0.0,0.0,0.0,-5.4069,-5.528,-5.3995,-5.3702,-5.3818,-5.2075,-5.164,-5.1892,-5.1093,-5.1805,-5.2975,-5.1939,0.0,0.0,0.0,0.0,0.0,0.0,0.0,0.0,0.0,0.0,0.0,0.0,0.0,0.0,0.0,0.0,0.0,0.0,0.0,0.0,0.0,0.0,0.0,0.0,-6.2727,-6.6096,-6.7016,-7.02,-7.3465,-7.6092,-7.89,-8.0977,-8.197,-8.2378,-8.3024,-8.3977,-8.4403,-8.4997,-8.5984,-8.6455,-8.7174,-8.8126,-8.8763,-8.9321,-8.987,-8.9521,-8.9521,-8.9902,-8.9021,-8.856,-8.8479,-8.8979,-8.8748,-8.794,-8.794,-8.7748,-8.7325,-8.6478,-8.6094,-8.6132,0.0,0.0,0.0,0.0,-8.6401,-8.6017,0.0,-3.3465,-3.355,-3.3225,-3.4076,-3.5109,-3.6009,-3.6817,-3.8212,-4.0671,-4.3791,-4.6654,-4.8967,-5.0809,-5.1932,-5.2159,-5.0686,-4.9043,-4.7407,-4.6747,-4.654,-4.6794,-4.8351,0.0,0.0,0.0,0.0,0.0,0.0,0.0,0.0,0.0,0.0,0.0,0.0,0.0,0.0,0.0,-5.4766,-5.6748,-5.6103,-5.6206,-5.661,-5.4946,-5.5137,-5.6257,-5.5417,-5.5189,-5.5236,-5.4779,0.0,0.0,0.0,0.0,0.0,0.0,0.0,0.0,0.0,0.0,0.0,0.0,0.0,0.0,0.0,0.0,0.0,0.0,0.0,0.0,0.0,0.0,0.0,0.0,-6.8268,-7.2058,-7.5439,-7.6745,-7.7795,-7.8998,-8.0926,-8.2438,-8.3233,-8.4111,-8.4988,-8.5935,-8.6728,-8.766,-8.8814,0.0,0.0,0.0,0.0,-9.2332,-9.2174,-9.2636,-9.2402,-9.1325,-9.0556,-9.0094,-8.9902,-9.0017,-8.9594,-8.8825,-8.8825,-8.8402,-8.7594,-8.6632,-8.6209,-8.6209,-8.7055,-8.6863,-8.6209,-8.7094,-8.6863,-8.6094,0.0,-3.2952,-3.2858,-3.3136,-3.34,-3.3946,-3.5072,-3.5973,-3.7404,-3.9827,-4.2947,-4.5626,-4.7388,-4.9618,-5.1553,-5.2871,-5.0915,-4.92,-4.8148,0.0,-4.7821,0.0,0.0,0.0,0.0,0.0,0.0,0.0,0.0,0.0,0.0,0.0,0.0,0.0,0.0,0.0,0.0,0.0,-5.5794,-5.683,-5.7047,-5.7001,-5.6793,-5.68,-5.6818,-5.6643,-5.5513,-5.7022,-5.9177,-5.6412,-5.6797,-5.8135,-5.6511,0.0,0.0,0.0,0.0,0.0,0.0,0.0,0.0,0.0,0.0,0.0,0.0,0.0,0.0,0.0,0.0,0.0,0.0,0.0,0.0,-6.9423,-7.3626,-7.7548,-8.0978,-8.296,-8.3305,-8.1349,-8.329,-8.4915,-8.5321,-8.6066,-8.7269,-8.9002,-8.9286,-9.01,-9.1715,-9.2263,-9.269,-9.3059,-9.3504,-9.3713,-9.3674,-9.3595,-9.3095,-9.2249,0.0,0.0,-8.994,-9.0633,-9.0479,-8.9671,-8.9671,-8.9594,-8.9286,-8.7786,-8.6748,-8.6209,-8.7055,-8.6863,-8.6209,-8.7094,-8.6863,-8.6094,0.0,-3.2727,-3.2858,-3.2858,-3.3045,-3.3604,-3.4824,-3.5385,-3.6523,-3.8982,-4.1405,-4.3534,-4.5112,-4.6764,-4.7902,-4.8306,-4.7241,-4.7058,0.0,0.0,0.0,0.0,0.0,0.0,0.0,0.0,0.0,0.0,0.0,0.0,0.0,0.0,0.0,0.0,0.0,0.0,0.0,0.0,-5.619,-5.7191,-5.7401,-5.7744,-5.8159,-5.861,-5.8656,-5.8456,-5.8092,-5.9202,-6.0473,-5.8319,-5.8742,-5.9858,-5.8165,-5.678,-5.5686,0.0,0.0,0.0,0.0,0.0,0.0,0.0,0.0,0.0,0.0,0.0,0.0,0.0,0.0,-6.2657,-6.5358,0.0,-7.1154,-7.5853,-7.9215,-8.2277,-8.5274,-8.7367,-8.7746,-8.5328,-8.5896,-8.7029,-8.8476,-8.8967,-8.9972,-9.1796,-9.2344,-9.3164,-9.4492,-9.4847,-9.5141,-9.5441,-9.5518,-9.548,-9.5365,-9.4672,-9.4134,-9.3749,-9.3287,-9.2633,-9.1787,-9.1825,-9.1595,-9.1171,-9.0287,-8.9902,-8.9787,-8.8094,-8.6901,-8.6209,-8.7055,-8.7132,-8.6748,-8.6748,-8.6748,-8.6555,0.0,-3.2516,-3.2865,-3.2565,-3.2827,-3.3412,-3.4483,-3.4852,-3.5834,-3.8175,-3.9863,-4.1442,-4.2873,-4.3754,-4.3975,-4.3314,-4.3681,0.0,0.0,0.0,0.0,0.0,0.0,0.0,0.0,0.0,0.0,0.0,0.0,0.0,0.0,0.0,0.0,0.0,0.0,0.0,0.0,-5.6161,-5.6953,-5.8008,-5.8236,-5.8915,-5.9857,-6.0303,-6.0456,-6.039,-6.0699,-6.0589,-6.0242,-5.9896,-5.9896,-5.9935,-5.9242,-5.8819,-5.8242,-5.6845,-5.6693,0.0,0.0,0.0,0.0,0.0,0.0,0.0,0.0,0.0,-6.0071,-6.2934,-6.507,-6.7786,-7.2353,-7.4133,-7.6622,-8.1948,-8.441,-8.649,-8.8884,-9.071,-9.1334,-9.0133,-8.9252,-8.9531,-9.1601,-9.1953,-9.2695,-9.4297,-9.5078,-9.582,-9.6679,-9.6719,-9.69,-9.7354,-9.708,-9.6826,-9.6596,-9.5711,-9.5172,-9.498,-9.4287,-9.3864,-9.3672,-9.2864,-9.2479,-9.2402,-9.0671,-8.9825,-8.9556,-8.8017,-8.6901,-8.617,-8.694,-8.7325,-8.7363,-8.6632,-8.6709,-8.6863,0.0,-3.2083,-3.2188,-3.2459,-3.2533,-3.2763,-3.334,-3.4316,-3.5642,-3.7404,-3.9019,-4.0377,-4.1295,-4.2103,-4.2543,-4.2433,-4.4378,0.0,0.0,0.0,0.0,0.0,0.0,0.0,0.0,0.0,0.0,0.0,0.0,0.0,0.0,0.0,0.0,0.0,0.0,0.0,0.0,-5.8217,-5.9132,-5.9801,-6.0943,-6.1296,-6.1247,-6.1684,-6.1632,-6.1191,-6.0891,-5.9858,-5.8781,-6.0204,-5.9204,-5.7896,-6.0781,-6.0589,-5.9319,-5.9149,0.0,-5.6592,-5.4839,-5.3928,-5.3968,-5.6049,-5.6626,-5.8088,0.0,0.0,-6.7282,-7.0781,-7.3607,-7.6148,-7.838,-8.0779,-8.3357,-8.6365,-8.8273,-9.0052,-9.1881,-9.2986,-9.4087,-9.5454,-9.4177,-9.3281,-9.3594,-9.4297,-9.5156,-9.6133,-9.6289,-9.6719,-9.7539,-9.7383,-9.7341,-9.7403,-9.6915,-9.6634,-9.6596,-9.6288,-9.5788,-9.498,-9.4903,-9.4441,-9.3672,-9.2864,-9.2479,-9.2402,-9.0671,-8.9479,-8.8748,-8.7786,-8.6901,-8.6132,-8.6478,-8.7055,-8.7632,-8.7363,-8.6824,-8.6209,0.0,0.0,-3.1404,-3.1717,-3.241,-3.3045,-3.3494,-3.3954,-3.4724,-3.5899,-3.6633,-3.7367,-3.8212,-3.9019,-3.968,-4.0157,0.0,0.0,0.0,0.0,0.0,0.0,0.0,0.0,0.0,0.0,0.0,0.0,0.0,0.0,0.0,0.0,0.0,0.0,0.0,0.0,0.0,-5.9612,-6.0344,-6.1168,-6.1693,-6.1869,-6.1838,-6.2041,-6.1055,-5.9626,-5.9926,-5.9588,0.0,0.0,-5.8511,-5.8627,-5.9588,-5.9704,-5.9396,-5.8934,-5.8633,0.0,-5.7021,-5.6444,0.0,0.0,-5.9935,-6.2358,-6.5949,-6.8655,-7.1386,-7.4989,-7.7922,-8.0727,-8.3514,-8.582,-8.8008,0.0,-9.1914,-9.3465,-9.4691,-9.5162,-9.5312,-9.5039,-9.4336,-9.4492,-9.5976,-9.6015,-9.6289,-9.7148,-9.7187,-9.7344,-9.7695,-9.7617,-9.7539,-9.7383,-9.7192,-9.7005,-9.6825,-9.6749,-9.6211,-9.5211,-9.5211,-9.4672,-9.3672,-9.2864,-9.1941,-9.0979,-9.0748,-8.9633,-8.794,-8.8094,-8.7325,-8.6055,-8.5709,-8.6055,-8.6786,-8.6978,-8.6824,-8.6368,0.0,0.0,0.0,-3.1273,-3.2002,-3.2726,-3.3183,-3.3343,-3.372,-3.4557,-3.4629,-3.5023,-3.601,-3.6941,-3.7734,-3.8322,0.0,0.0,0.0,0.0,0.0,0.0,0.0,0.0,0.0,0.0,0.0,0.0,0.0,0.0,0.0,0.0,0.0,0.0,0.0,0.0,0.0,-6.0639,-6.1241,-6.2033,-6.2259,-6.2235,-6.2,-6.1567,-6.0111,-5.8387,-5.9211,-5.8588,0.0,0.0,-5.755,-5.7857,-5.8434,-5.905,-5.9358,-5.855,-5.838,-5.8363,-5.8017,0.0,0.0,-6.0242,-6.332,-6.659,-6.891,-7.1909,-7.5154,-7.8469,-8.0971,-8.3584,-8.6801,-8.8724,-9.0529,-9.2851,-9.4258,-9.5429,-9.6367,-9.6289,-9.5508,-9.375,-9.332,-9.3906,-9.5742,-9.6054,-9.6484,-9.7304,-9.7578,-9.7695,-9.7695,-9.7695,-9.7617,-9.75,-9.7422,-9.7299,-9.7134,-9.6792,-9.6243,-9.547,-9.5238,-9.467,-9.3749,-9.2633,-9.1325,-8.9902,-9.0094,-8.9094,-8.7401,-8.7594,-8.6901,-8.5709,-8.4939,-8.4978,-8.5517,-8.5973,-8.617,-8.606,0.0,0.0,0.0,0.0,-3.1137,-3.1166,-3.1777,-3.223,-3.2816,-3.363,-3.3736,-3.4222,-3.5471,-3.6754,-3.7507,0.0,0.0,0.0,0.0,-4.86,0.0,0.0,0.0,0.0,0.0,0.0,0.0,0.0,0.0,0.0,0.0,0.0,0.0,0.0,0.0,0.0,-6.0456,-6.1227,-6.1865,-6.2444,-6.3264,-6.2885,-6.1727,-6.0138,-5.9005,-5.8311,-5.9179,0.0,0.0,0.0,-5.6088,-5.4087,-5.8165,-5.9473,0.0,-5.855,-5.7126,-5.5972,0.0,0.0,-6.0065,-6.2589,-6.6397,-7.0398,-7.3707,-7.6592,-7.9353,-8.2001,-8.3394,-8.4947,-8.7584,-8.8762,-9.0496,-9.4137,-9.4765,-9.5195,-9.6328,-9.5781,-9.4609,-9.2851,-9.1875,-9.1406,0.0,-9.3789,-9.5586,-9.6484,-9.7265,-9.7695,-9.7695,-9.7695,-9.7695,-9.7695,-9.75,-9.7382,-9.7382,-9.6291,-9.5729,-9.569,-9.4837,-9.4323,-9.4016,-9.2095,-9.0748,-8.9825,-8.8209,-8.7478,-8.7286,-8.567,-8.4978,-8.4863,-8.4209,-8.3939,-8.401,-8.4279,-8.4593,-8.4824,0.0,0.0,0.0,0.0,0.0,-3.1673,-3.1776,-3.1809,-3.2036,-3.2783,-3.3349,0.0,0.0,0.0,0.0,0.0,0.0,0.0,0.0,-4.7205,0.0,0.0,0.0,0.0,0.0,0.0,0.0,0.0,0.0,0.0,0.0,0.0,0.0,0.0,0.0,0.0,-6.2034,-6.2291,-6.2714,-6.3184,-6.2886,-6.2436,-6.1766,-6.0707,-5.8404,-5.5837,0.0,0.0,0.0,0.0,0.0,-5.4203,-5.5049,-5.6088,-5.6934,-5.6665,-5.6549,-5.6857,-5.828,0.0,-6.2757,-6.5897,-6.9898,-7.363,-7.5899,-7.8438,-8.0708,-8.2163,-8.1932,-8.1937,-8.3398,-8.4905,-8.6571,-8.8383,-9.1053,-9.327,-9.4413,-9.4297,-9.3047,-9.0351,-8.9765,0.0,0.0,0.0,0.0,-9.4687,-9.5039,-9.5664,-9.6836,-9.6367,-9.6562,-9.7656,-9.7109,-9.6797,-9.6797,-9.6426,-9.5541,-9.4214,-9.2636,-9.186,-9.1748,-9.0364,-8.9286,-8.844,-8.8325,-8.7286,-8.5747,-8.5829,-8.5214,-8.417,-8.3555,-8.3632,-8.3971,-8.2971,-8.3016,-8.3593,0.0,0.0,0.0,0.0,0.0,0.0,0.0,0.0,0.0,0.0,0.0,0.0,0.0,0.0,0.0,0.0,0.0,0.0,0.0,0.0,0.0,0.0,0.0,0.0,0.0,0.0,0.0,0.0,0.0,0.0,0.0,0.0,0.0,0.0,0.0,0.0,-6.1961,-6.1961,-6.1982,-6.1982,-6.113,-6.0348,-5.9513,-5.8091,-5.592,0.0,0.0,0.0,0.0,0.0,0.0,-5.3976,-5.3746,-5.4396,-5.5364,-5.583,-5.6544,-5.7757,-6.0181,-6.2704,-6.5551,-6.9283,-7.2937,-7.6092,-7.7784,-7.9708,-8.1054,-8.0939,-7.9931,-7.9152,-7.9392,-8.0246,-8.1484,-8.3374,-8.6208,-8.8963,-9.1314,-9.1319,-9.0486,-8.8789,-8.832,-8.7539,0.0,0.0,0.0,-9.2383,-9.3359,-9.4375,-9.5508,-9.5351,-9.5703,-9.6758,-9.6328,-9.6054,-9.6054,-9.5742,-9.4609,-9.2695,-9.1375,-9.0594,-9.0214,-8.8841,-8.7927,-8.7368,-8.7175,-8.6137,-8.4676,-8.5022,-8.4528,-8.3514,-8.2806,-8.2844,-8.318,-8.2097,-8.2033,-8.2548,0.0,0.0,0.0,0.0,0.0,0.0,0.0,0.0,0.0,0.0,0.0,0.0,0.0,0.0,0.0,0.0,0.0,0.0,0.0,0.0,0.0,0.0,0.0,0.0,0.0,0.0,0.0,0.0,0.0,0.0,0.0,0.0,0.0,0.0,0.0,-5.9956,-5.9993,-6.0041,-5.9601,-5.8831,-5.8107,-5.6859,-5.5207,-5.2931,0.0,0.0,0.0,0.0,0.0,0.0,0.0,0.0,0.0,-5.456,-5.4881,-5.614,-5.7063,-5.8596,-6.2427,-6.5333,-6.8256,-7.2552,-7.5515,-7.7784,-7.9361,-8.0362,-8.0477,-7.8669,-7.7515,-7.6553,0.0,0.0,-7.563,-7.9215,-8.076,-8.3034,-8.7376,-8.7435,-8.7312,0.0,0.0,0.0,0.0,0.0,0.0,-8.9922,0.0,-9.375,-9.3906,-9.4648,-9.5117,-9.5195,-9.5156,-9.5117,-9.5117,-9.4219,-9.2929,-9.1289,-9.0976,-9.039,-8.957,-8.7571,-8.6699,-8.6621,-8.4933,-8.417,-8.4093,-8.3324,-8.2999,-8.2876,-8.2046,-8.171,-8.171,-8.1734,-8.1719,-8.1748,0.0,0.0,0.0,0.0,0.0,0.0,0.0,0.0,0.0,0.0,0.0,0.0,0.0,0.0,0.0,0.0,0.0,0.0,0.0,0.0,0.0,0.0,0.0,0.0,0.0,0.0,0.0,0.0,0.0,0.0,0.0,0.0,0.0,0.0,0.0,-5.408,-5.4619,-5.51,-5.5098,-5.4916,0.0,-5.473,-5.3739,0.0,0.0,0.0,0.0,0.0,0.0,0.0,0.0,0.0,0.0,-5.5319,-5.6451,-5.738,-5.8698,-6.0686,-6.4558,-6.7431,-7.0317,-7.4379,-7.6784,-7.8323,-7.8715,-7.9023,-7.8492,-7.613,-7.3014,-7.0244,0.0,0.0,0.0,-7.3899,-7.9208,0.0,-8.6544,-8.8367,0.0,-8.8275,0.0,-8.8828,-8.8242,-8.832,0.0,0.0,-9.0976,-9.1836,-9.3789,-9.3476,-9.3867,-9.5156,-9.457,-9.4219,-9.4219,-9.2734,-9.1758,-9.1289,-8.9336,-8.8594,-8.8867,-8.6315,-8.5501,-8.5994,-8.4743,-8.3871,-8.3286,-8.3239,-8.284,-8.2226,-8.2172,-8.2168,-8.2159,-8.2143,-8.2147,-8.2147,0.0,0.0,0.0,0.0,0.0,0.0,0.0,0.0,0.0,0.0,0.0,0.0,0.0,0.0,0.0,0.0,0.0,0.0,0.0,0.0,0.0,0.0,0.0,0.0,0.0,0.0,0.0,0.0,0.0,0.0,0.0,0.0,0.0,0.0,0.0,-5.0695,-5.1073,0.0,0.0,0.0,0.0,0.0,0.0,0.0,0.0,0.0,0.0,0.0,0.0,0.0,0.0,-5.4653,-5.6106,-5.7188,-5.8346,-6.0411,0.0,-6.3875,-6.8019,-7.0667,-7.3174,-7.6771,-7.8092,-7.8207,-7.7078,-7.6548,-7.5242,-7.1573,-6.8345,0.0,-6.3474,0.0,0.0,0.0,0.0,0.0,-8.4157,-8.6517,-8.806,0.0,-8.9376,0.0,-8.9415,-8.9462,-9.012,0.0,-9.1015,-9.1367,-9.3242,-9.2851,-9.3047,-9.4023,-9.3203,-9.2578,-9.2187,-9.1601,-9.0937,-9.0156,-8.8359,-8.7539,-8.7539,-8.5195,-8.4414,-8.4765,-8.377,-8.3089,-8.2689,-8.2792,-8.259,-8.2154,-8.2276,-8.2304,-8.2304,-8.2287,-8.2288,-8.2288,0.0,0.0,0.0,0.0,0.0,0.0,0.0,0.0,0.0,0.0,-3.1021,-3.163,0.0,0.0,0.0,0.0,0.0,0.0,0.0,0.0,0.0,0.0,0.0,0.0,0.0,0.0,0.0,0.0,0.0,0.0,0.0,0.0,0.0,0.0,0.0,0.0,0.0,0.0,0.0,0.0,0.0,0.0,0.0,0.0,0.0,0.0,0.0,0.0,0.0,0.0,-5.4032,-5.539,-5.8437,-5.9612,-6.0551,-6.4132,-6.5756,-6.7299,-7.1559,-7.3878,-7.5742,-7.865,-7.8775,-7.7501,-7.4835,-7.353,-7.1372,-6.6281,0.0,-6.1733,-5.9435,-6.0512,-6.2743,-6.5743,0.0,-7.5668,-8.1477,-8.3901,-8.5906,-8.8333,-8.9633,-9.0389,-9.0711,-9.0752,-9.128,-9.2468,-9.1832,-9.1758,-9.2578,-9.2695,-9.2656,-9.2422,-9.1679,-9.0898,-9.0,-9.0625,-9.0156,-8.8515,-8.7617,-8.6758,-8.5976,-8.4219,-8.3476,-8.3554,-8.2695,-8.2304,-8.2304,-8.2304,-8.2304,-8.2304,-8.2304,-8.2304,-8.2304,-8.2304,-8.2304,-8.2304,0.0,0.0,0.0,0.0,0.0,0.0,0.0,0.0,0.0,0.0,-3.2408,-3.2374,0.0,0.0,0.0,0.0,0.0,0.0,0.0,0.0,0.0,0.0,0.0,0.0,0.0,0.0,0.0,0.0,0.0,0.0,0.0,0.0,0.0,0.0,0.0,0.0,0.0,0.0,0.0,0.0,0.0,0.0,0.0,0.0,0.0,0.0,0.0,0.0,0.0,0.0,-5.5611,-5.7703,-5.9612,-6.1594,-6.381,-6.6449,-6.7773,-6.9126,-7.2384,-7.3998,-7.5116,-7.6803,-7.6959,-7.5844,-7.2632,-7.0556,0.0,0.0,-5.9777,-5.773,-5.6571,-5.8319,0.0,-6.709,0.0,0.0,0.0,0.0,-8.6094,0.0,0.0,0.0,0.0,0.0,0.0,0.0,0.0,-9.2226,-9.2578,-9.3281,-9.3008,-9.1562,-9.1367,-9.0898,-9.0,-8.9453,-8.8672,-8.7695,-8.6094,-8.5273,-8.5078,-8.332,-8.2929,-8.3554,-8.2695,-8.2304,-8.2304,-8.2304,-8.2304,-8.2304,-8.2304,-8.2304,-8.2304,-8.2304,-8.2304,-8.2304,0.0,0.0,0.0,0.0,0.0,0.0,0.0,-3.2088,-3.3618,-3.5497,-3.5419,-3.5047,-3.4607,-3.4573,-3.4709,0.0,0.0,0.0,0.0,0.0,0.0,0.0,0.0,0.0,0.0,0.0,0.0,0.0,0.0,0.0,0.0,0.0,0.0,0.0,0.0,0.0,0.0,0.0,0.0,0.0,0.0,0.0,0.0,0.0,0.0,0.0,0.0,0.0,0.0,0.0,-5.4693,-5.796,-6.1263,-6.3723,-6.5888,-6.8752,-7.044,-7.1894,-7.4093,-7.5589,-7.6752,-7.7777,-7.6625,-7.4029,-6.9393,0.0,0.0,0.0,-5.5415,-5.4465,-5.356,0.0,0.0,0.0,0.0,0.0,0.0,0.0,0.0,0.0,0.0,0.0,0.0,0.0,0.0,0.0,0.0,-9.2108,-9.2578,-9.2148,-9.1289,-9.0,-9.039,-8.9804,-8.8047,-8.8047,-8.7422,-8.6133,-8.4844,-8.4219,-8.4179,-8.289,-8.2539,-8.289,-8.2461,-8.2304,-8.2304,-8.2304,-8.2304,-8.2304,-8.2304,-8.2304,-8.2304,-8.2304,-8.2304,-8.2304,0.0,0.0,0.0,0.0,0.0,0.0,-3.2502,-3.3423,-3.5065,-3.8322,-3.8751,-3.8248,-3.6933,-3.6356,-3.6062,0.0,0.0,0.0,0.0,0.0,0.0,0.0,0.0,0.0,0.0,0.0,0.0,-4.2194,0.0,0.0,0.0,0.0,0.0,0.0,0.0,0.0,0.0,0.0,0.0,0.0,0.0,0.0,0.0,0.0,0.0,0.0,0.0,0.0,0.0,0.0,-5.2491,-5.6051,-6.0603,-6.3943,-6.6806,-6.9706,-7.1908,-7.375,-7.5254,-7.6865,-7.8163,-7.8479,-7.6169,-7.2284,-6.6484,-6.2563,0.0,0.0,-5.185,-5.1812,-5.1383,0.0,0.0,0.0,0.0,0.0,0.0,0.0,0.0,0.0,0.0,0.0,0.0,0.0,0.0,0.0,0.0,0.0,-9.2126,-9.0584,-8.9258,-8.8398,-8.8906,-8.8125,-8.5937,-8.6601,-8.6172,-8.4609,-8.3945,-8.3515,-8.3281,-8.2617,-8.2304,-8.2304,-8.2304,-8.2304,-8.2304,-8.2304,-8.2304,-8.2304,-8.2304,-8.2304,-8.2304,-8.2304,-8.2304,-8.2304,0.0,0.0,0.0,0.0,0.0,0.0,-3.3809,-3.5651,-3.7948,-4.1089,-4.1649,-4.138,-4.0574,-3.8811,-3.7415,0.0,0.0,0.0,0.0,0.0,0.0,0.0,0.0,0.0,0.0,0.0,0.0,-4.1872,-4.1747,0.0,0.0,0.0,0.0,0.0,0.0,-4.1725,0.0,0.0,0.0,0.0,0.0,0.0,0.0,0.0,0.0,0.0,0.0,0.0,0.0,0.0,0.0,-5.0839,-5.4216,-5.9942,-6.5778,-6.7504,0.0,0.0,-7.4537,-7.6176,-7.7242,-7.653,-7.431,-7.0772,-6.5012,0.0,0.0,-5.1963,-5.0296,-5.011,-5.1102,0.0,0.0,0.0,0.0,-6.5089,0.0,0.0,0.0,0.0,0.0,0.0,0.0,0.0,0.0,0.0,0.0,0.0,-9.0657,-8.9378,-8.8164,-8.7265,-8.6797,-8.6054,-8.5039,-8.5117,-8.4648,-8.3711,-8.3633,-8.3203,-8.2422,-8.2344,-8.2304,-8.2304,-8.2304,-8.2304,-8.2304,-8.2304,-8.2304,-8.2304,-8.2304,-8.2304,-8.2304,-8.2304,-8.2304,-8.2304,0.0,0.0,0.0,0.0,0.0,0.0,-3.3939,-3.5715,-3.8182,-4.1995,-4.2546,-4.2833,-4.3522,-4.1742,-3.9692,-3.7631,0.0,0.0,0.0,0.0,0.0,0.0,0.0,0.0,0.0,0.0,-4.0369,-4.2302,-4.118,0.0,0.0,0.0,0.0,0.0,0.0,-4.2342,-4.2302,0.0,0.0,0.0,0.0,0.0,0.0,0.0,0.0,0.0,0.0,0.0,0.0,0.0,0.0,0.0,-4.9294,-5.2645,0.0,0.0,-6.7063,-7.0183,-7.2753,-7.4992,-7.6497,-7.6166,-7.276,-6.8203,-6.3432,0.0,0.0,-5.012,-4.9196,-4.927,-4.9753,-5.0274,0.0,0.0,0.0,0.0,0.0,0.0,0.0,0.0,0.0,0.0,0.0,0.0,0.0,0.0,0.0,0.0,-8.6326,-8.6101,-8.5766,-8.5439,-8.5166,-8.4659,-8.3761,-8.3893,-8.3515,-8.2656,-8.2773,-8.2656,-8.2304,-8.2304,-8.2304,-8.2304,-8.2304,-8.2304,-8.2304,-8.2304,-8.2304,-8.2304,-8.2304,-8.2304,-8.2304,-8.2304,-8.2304,-8.2304,0.0,0.0,0.0,0.0,0.0,-3.2015,-3.3828,-3.5679,-3.829,-4.2235,-4.2781,-4.3408,-4.5062,-4.3532,-4.158,-3.9606,-3.814,0.0,0.0,0.0,0.0,0.0,0.0,0.0,0.0,0.0,-3.9921,-4.2454,-4.1156,-4.1346,0.0,0.0,-4.3025,-4.2995,0.0,0.0,0.0,0.0,0.0,0.0,0.0,0.0,0.0,0.0,0.0,0.0,0.0,0.0,0.0,0.0,0.0,0.0,0.0,0.0,0.0,0.0,-6.2339,-6.5988,-6.9112,-7.2277,-7.4726,-7.4982,-7.1113,-6.6329,0.0,0.0,0.0,-4.8964,-4.8565,-4.8753,-4.8885,-4.9386,-5.0301,-5.1942,0.0,-5.527,-6.0589,0.0,0.0,0.0,0.0,0.0,0.0,0.0,0.0,0.0,0.0,0.0,-8.2862,-8.317,-8.348,-8.3814,-8.362,-8.3232,-8.2611,-8.2754,-8.2499,-8.1925,-8.2042,-8.2136,-8.2226,-8.2226,-8.2211,-8.2201,-8.2256,-8.2223,-8.2125,-8.2264,-8.2265,-8.2226,-8.2265,-8.2304,-8.2304,-8.2304,-8.2304,-8.2304,0.0,0.0,0.0,0.0,0.0,-3.1935,-3.355,-3.5899,-3.8652,-4.1882,-4.2486,-4.3228,-4.4899,-4.3786,-4.2943,-4.2951,-4.0316,0.0,0.0,0.0,0.0,0.0,0.0,0.0,0.0,0.0,-4.0027,-4.2133,-4.2085,-4.1793,-4.1256,-4.2979,-4.3059,-4.1895,0.0,0.0,0.0,0.0,0.0,0.0,0.0,0.0,0.0,0.0,0.0,0.0,0.0,0.0,0.0,0.0,0.0,0.0,0.0,0.0,0.0,0.0,-5.5861,-6.0308,-6.3199,-6.7583,-7.154,-7.2272,-6.9486,-6.5632,0.0,0.0,0.0,-4.9003,-4.8306,-4.8421,-4.8847,-4.8915,-4.9433,-5.104,-5.2768,-5.5224,-5.9004,0.0,0.0,0.0,0.0,0.0,0.0,0.0,0.0,0.0,0.0,0.0,-8.117,-8.1131,-8.1593,-8.2593,-8.2047,-8.1739,-8.1701,-8.1701,-8.171,-8.1695,-8.1695,-8.1821,-8.1992,-8.1992,-8.1984,-8.2015,-8.2201,-8.2065,-8.1725,-8.2125,-8.2187,-8.2031,-8.2226,-8.2304,-8.2304,-8.2304,-8.2304,-8.2304,0.0,0.0,0.0,0.0,0.0,0.0,-3.355,-3.5422,-3.7845,-4.1075,-4.204,-4.3214,-4.5405,-4.4397,-4.3768,-4.4157,-4.1645,0.0,0.0,0.0,0.0,0.0,0.0,0.0,0.0,0.0,-4.1512,-4.3608,-4.3186,-4.358,-4.4768,-4.4739,-4.4426,-4.3795,-4.4163,-4.4011,0.0,0.0,0.0,0.0,0.0,0.0,0.0,0.0,0.0,0.0,0.0,0.0,0.0,0.0,0.0,0.0,0.0,0.0,0.0,-4.5257,-4.9768,-5.4688,-5.7798,-6.0956,-6.3454,-6.3645,-6.1479,-5.8674,-5.6528,0.0,0.0,0.0,0.0,-4.7684,-4.8384,-4.8709,-4.9612,-5.1855,-5.2862,-5.4325,-5.6931,0.0,0.0,0.0,0.0,0.0,0.0,0.0,0.0,0.0,0.0,-8.1362,-8.1093,-8.1093,-8.1246,-8.1554,-8.14,-8.1285,-8.1285,-8.1439,-8.1514,-8.1504,-8.162,-8.1437,-8.094,-8.1519,-8.1155,-8.0107,-8.0746,-8.0921,-8.0769,-8.034,-8.0545,-8.1054,-8.0547,-8.039,-8.0586,-8.1172,-8.1406,-8.1484,0.0,0.0,0.0,0.0,0.0,0.0,-3.3146,-3.4761,-3.678,-3.9386,-4.0708,-4.2323,-4.4709,-4.4236,-4.4016,-4.4636,-4.2921,0.0,0.0,0.0,0.0,0.0,0.0,0.0,-4.0926,-4.1116,-4.233,-4.475,-4.4696,-4.5303,-4.652,-4.6802,-4.6169,-4.4856,-4.5077,-4.4525,0.0,0.0,0.0,0.0,0.0,0.0,-4.4189,0.0,0.0,0.0,0.0,0.0,0.0,0.0,0.0,0.0,0.0,0.0,0.0,0.0,-4.541,-4.8933,0.0,-5.4959,-5.7162,-5.7388,-5.5866,0.0,0.0,0.0,0.0,0.0,0.0,0.0,-4.8196,-4.8495,-4.9228,-5.0927,-5.169,-5.2806,-5.4828,0.0,0.0,0.0,0.0,0.0,0.0,0.0,0.0,0.0,0.0,-8.0131,-8.0131,-7.9823,-7.9669,-7.9669,-8.0285,-8.0439,-8.0131,-8.0246,-8.0285,-8.0285,-8.04,-8.0277,-7.9807,-8.0353,-8.0027,-7.9076,-7.9698,-7.9868,0.0,-7.9362,-7.9509,-7.9918,-7.9502,-7.9438,-7.9648,-8.0195,-8.0429,-8.0586,0.0,0.0,0.0,0.0,0.0,0.0,0.0,-3.4,-3.5605,-3.7257,-3.8909,-4.0781,-4.3167,-4.3461,-4.3791,-4.4562,-4.3938,0.0,0.0,0.0,0.0,0.0,0.0,0.0,-4.282,-4.1827,-4.267,-4.5441,-4.6325,-4.6847,-4.6882,-4.8889,-4.8143,-4.5192,-4.5734,-4.5039,0.0,0.0,0.0,0.0,-4.4415,-4.4305,0.0,0.0,0.0,0.0,0.0,0.0,0.0,0.0,0.0,0.0,0.0,0.0,0.0,0.0,0.0,0.0,0.0,-4.9611,-5.2183,-5.2799,-5.195,-5.0816,0.0,0.0,0.0,0.0,0.0,0.0,0.0,-4.8269,-4.8458,-4.8962,-4.9738,-5.1028,-5.3075,0.0,0.0,0.0,0.0,0.0,0.0,0.0,0.0,0.0,-7.8323,-7.8323,-7.8323,-7.7592,-7.7169,-7.713,-7.8631,-7.9092,-7.8323,-7.8361,-7.8361,-7.8323,-7.8323,-7.84,-7.8485,-7.8584,-7.8545,-7.843,-7.8729,-7.8652,-7.8246,-7.8699,-7.8738,-7.8527,-7.8806,-7.9003,-7.9136,-7.9179,-7.9375,-7.9609,0.0,0.0,0.0,0.0,0.0,0.0,0.0,0.0,0.0,0.0,-3.8909,-4.0561,-4.2396,-4.313,-4.3571,0.0,0.0,0.0,0.0,0.0,0.0,0.0,0.0,0.0,-4.2253,-4.2125,-4.3186,-4.5626,-4.6431,-4.7295,-4.8335,-4.936,-4.8436,-4.59,-4.6535,-4.559,0.0,0.0,0.0,0.0,-4.4892,-4.4966,0.0,0.0,0.0,0.0,-4.3497,-4.3497,0.0,0.0,0.0,0.0,0.0,0.0,0.0,0.0,-4.2685,-4.2808,-4.3103,0.0,-4.5373,-4.5049,-4.5148,-4.5215,0.0,0.0,0.0,0.0,0.0,0.0,0.0,0.0,-4.8748,-5.0115,-5.1038,-5.2303,-5.4279,0.0,0.0,0.0,0.0,0.0,0.0,0.0,0.0,0.0,-7.6592,-7.6592,-7.6592,-7.6399,-7.6015,-7.5322,-7.5707,-7.613,-7.6592,-7.7246,-7.7246,-7.6592,-7.6592,-7.6245,-7.5707,-7.6361,-7.5938,-7.4784,-7.5466,-7.5668,-7.5592,-7.5707,-7.5822,-7.5899,-7.5967,-7.6118,-7.6379,-7.7185,-7.793,-7.8672,0.0,0.0,0.0,0.0,0.0,0.0,0.0,0.0,0.0,0.0,-3.8358,-3.9974,-4.1589,-4.28,-4.3497,0.0,0.0,0.0,0.0,0.0,0.0,0.0,0.0,-4.1261,-4.2404,-4.2615,-4.3852,-4.6054,-4.7261,-4.8323,-4.9353,-5.0172,-4.9114,-4.6614,-4.5805,-4.4709,0.0,0.0,0.0,0.0,-4.4745,0.0,0.0,0.0,0.0,0.0,-4.3497,-4.3497,0.0,-4.3497,-4.3497,-4.3497,0.0,0.0,0.0,0.0,-4.3069,-4.2921,-4.2382,-4.2652,-4.3022,-4.2687,-4.2722,-4.2914,-4.3437,0.0,0.0,0.0,0.0,0.0,0.0,0.0,0.0,-4.9444,-5.0362,-5.2063,0.0,0.0,0.0,0.0,0.0,0.0,0.0,0.0,-7.4861,-7.4861,-7.4476,-7.4437,-7.4822,-7.4091,-7.3437,-7.2976,-7.2976,-7.3591,-7.4861,-7.5322,-7.5322,-7.4861,-7.4861,-7.463,-7.4168,-7.463,-7.4361,-7.3514,-7.3976,-7.4168,-7.4168,-7.4168,-7.4207,-7.4293,-7.4322,-7.4437,-7.4703,-7.5327,-7.5936,-7.6484,0.0,0.0,0.0,0.0,0.0,0.0,0.0,0.0,0.0,0.0,0.0,0.0,0.0,0.0,0.0,0.0,0.0,0.0,0.0,0.0,0.0,0.0,-4.2297,-4.2363,-4.3172,-4.3185,-4.4262,-4.6531,-4.7919,-4.8993,-4.9723,-5.0627,-4.967,-4.7198,-4.4781,-4.3648,0.0,0.0,0.0,0.0,-4.4452,0.0,0.0,0.0,0.0,0.0,0.0,0.0,0.0,-4.3497,-4.3497,-4.3497,-4.3497,0.0,0.0,0.0,0.0,0.0,-4.3102,-4.3288,-4.3487,-4.2959,-4.2492,-4.2391,-4.3386,0.0,0.0,0.0,0.0,0.0,0.0,0.0,0.0,0.0,0.0,0.0,0.0,0.0,0.0,0.0,0.0,0.0,0.0,-7.2947,-7.2745,-7.2745,-7.2052,-7.1937,-7.2668,-7.1321,-7.0514,-7.0514,-7.0514,-7.1245,-7.2706,-7.3129,-7.3168,-7.2937,-7.3053,-7.3053,-7.2937,-7.2937,-7.286,-7.2745,-7.2745,-7.2745,-7.2745,-7.286,-7.286,-7.2745,-7.286,-7.3014,-7.3196,-7.3486,-7.3777,-7.4134,0.0,0.0,0.0,0.0,0.0,0.0,0.0,0.0,0.0,0.0,0.0,0.0,0.0,0.0,0.0,0.0,0.0,0.0,0.0,0.0,0.0,-4.4382,-4.3208,-4.3224,-4.4623,-4.3535,-4.4143,-4.655,-4.6792,-4.7361,-4.8252,-4.9585,-4.9168,-4.7191,-4.5472,-4.4231,-4.3534,-4.4378,-4.4635,-4.4525,-4.4636,0.0,0.0,0.0,0.0,0.0,0.0,0.0,0.0,-4.3497,-4.3497,-4.3497,-4.3497,0.0,0.0,0.0,0.0,0.0,-4.4198,-4.5406,-4.576,-4.2739,-4.1945,-4.1902,0.0,0.0,0.0,0.0,0.0,0.0,0.0,0.0,0.0,0.0,0.0,0.0,0.0,0.0,0.0,0.0,0.0,0.0,-6.6751,-6.8196,-6.9206,-6.9206,-6.9052,-6.9052,-6.9206,-6.8936,-6.8783,-6.8783,-6.8783,-6.8898,-6.9206,-7.1321,-7.1706,-7.0283,-7.0975,-7.0937,-7.0283,-7.0283,-6.9898,-6.9206,-6.9206,-6.9206,-6.9244,-6.9975,-6.986,-6.9283,-7.0014,-7.0283,-7.0437,-7.1321,-7.2207,-7.3181,0.0,0.0,0.0,0.0,0.0,0.0,0.0,0.0,0.0,0.0,0.0,0.0,0.0,0.0,0.0,0.0,0.0,0.0,0.0,0.0,-4.3864,-4.4672,-4.4127,-4.4126,-4.4816,-4.4736,-4.5633,-4.7665,-4.8553,-4.9256,-4.9625,-4.8993,-4.7809,-4.606,-4.4869,-4.401,-4.3497,-4.3901,-4.4048,-4.4048,0.0,0.0,0.0,0.0,0.0,0.0,0.0,0.0,0.0,0.0,-4.3497,-4.3497,-4.3497,0.0,0.0,0.0,0.0,0.0,-4.3938,-4.4599,-4.4858,-4.3681,-4.4448,-4.5258,0.0,0.0,0.0,0.0,0.0,0.0,0.0,0.0,0.0,0.0,0.0,0.0,0.0,0.0,0.0,0.0,0.0,-6.6011,-6.6434,-6.6825,-6.7244,-6.7667,-6.7282,-6.7244,-6.7667,-6.7282,-6.7244,-6.7667,-6.7282,-6.7051,-6.7051,-6.8629,-6.9283,-6.9013,-6.936,-6.936,-6.9013,-6.9013,-6.8783,-6.8398,-6.8398,-6.8398,-6.8436,-6.8821,-6.8783,-6.8436,-6.8859,-6.9013,-6.909,-6.9629,-7.0272,-7.1,0.0,0.0,0.0,0.0,0.0,0.0,0.0,0.0,0.0,0.0,0.0,0.0,0.0,0.0,0.0,0.0,0.0,0.0,0.0,-4.3608,-4.3938,-4.4966,-4.4819,-4.4892,-4.5259,-4.6015,-4.7072,-4.8532,-5.0092,-5.0936,-5.1051,-4.9053,-4.7227,-4.5595,-4.4713,-4.401,-4.3497,-4.3497,-4.3497,-4.3497,0.0,0.0,0.0,0.0,0.0,0.0,0.0,0.0,0.0,0.0,0.0,0.0,0.0,0.0,0.0,-4.3497,-4.3497,-4.3534,-4.3718,-4.3901,-4.4158,-4.4599,0.0,0.0,0.0,0.0,0.0,0.0,0.0,0.0,0.0,0.0,0.0,0.0,0.0,-5.6235,-5.8033,-5.8585,-5.9892,-6.278,-6.3878,-6.4889,-6.6281,-6.5723,-6.5551,-6.6167,-6.5628,-6.5551,-6.6167,-6.5628,-6.5551,-6.6205,-6.559,-6.5282,-6.5282,-6.5897,-6.6744,-6.7821,-6.7821,-6.7705,-6.7513,-6.7513,-6.7398,-6.7205,-6.7205,-6.7205,-6.7205,-6.7205,-6.7205,-6.7205,-6.7205,-6.7475,-6.7859,-6.809,-6.8584,-6.9249,0.0,0.0,0.0,0.0,0.0,0.0,0.0,0.0,0.0,0.0,0.0,0.0,0.0,0.0,0.0,0.0,0.0,0.0,0.0,-4.3901,-4.4195,-4.5736,-4.5112,-4.5406,-4.6911,-4.702,-4.7554,-4.8576,-4.9433,-5.0259,-5.1086,-5.015,-4.8816,-4.7111,-4.6284,-4.5062,-4.3497,-4.3497,-4.3497,-4.3497,-4.3497,0.0,0.0,0.0,0.0,0.0,0.0,0.0,0.0,0.0,0.0,0.0,0.0,0.0,-4.3497,-4.3497,-4.3497,-4.3644,-4.4415,-4.5149,-4.5553,-4.4892,0.0,0.0,0.0,0.0,0.0,0.0,0.0,0.0,0.0,0.0,0.0,0.0,0.0,-5.6418,-5.8804,0.0,-5.9706,-6.1204,-6.1807,-6.2318,-6.2895,-6.3269,-6.3512,-6.3589,-6.3512,-6.3512,-6.3589,-6.3512,-6.3512,-6.3589,-6.3512,-6.3512,-6.3512,-6.3551,-6.4436,-6.609,-6.609,-6.5667,-6.4859,-6.4859,-6.4436,-6.3666,-6.3666,-6.3666,-6.3666,-6.3666,-6.3666,-6.3666,-6.3666,-6.4666,-6.6128,-6.6461,-6.7589,-6.8983,0.0,0.0,0.0,0.0,0.0,0.0,0.0,0.0,0.0,0.0,0.0,0.0,0.0,0.0,0.0,0.0,0.0,0.0,0.0,-4.3387,-4.3975,-4.5112,-4.4856,-4.5223,-4.6324,-4.7865,-4.9328,-5.0696,-5.1456,-5.2055,-5.2422,-5.0665,-4.8964,-4.7227,-4.6008,-4.4953,-4.4195,-4.3718,-4.3791,-4.4195,-4.3681,-4.3497,0.0,0.0,0.0,0.0,0.0,0.0,0.0,0.0,-4.3497,-4.3497,-4.3497,-4.3497,-4.3497,-4.3497,-4.3497,-4.3571,-4.3864,-4.4731,0.0,0.0,0.0,0.0,0.0,0.0,0.0,0.0,0.0,0.0,0.0,0.0,0.0,0.0,-5.5317,-5.6859,-5.8253,-5.8877,-5.9595,-6.0563,-6.1172,-6.1657,-6.2091,-6.2124,-6.2245,-6.2551,-6.2551,-6.2551,-6.2551,-6.2551,-6.2781,-6.3281,-6.282,-6.2781,-6.332,-6.282,-6.2858,-6.3551,-6.4051,-6.4128,-6.3782,-6.3782,-6.3628,-6.332,-6.332,-6.332,-6.332,-6.332,-6.332,-6.332,-6.332,-6.3782,-6.4512,-6.4628,-6.518,-6.6024,0.0,0.0,0.0,0.0,0.0,0.0,0.0,0.0,0.0,0.0,0.0,0.0,0.0,0.0,0.0,0.0,0.0,0.0,-4.2286,-4.28,-4.3571,-4.4672,-4.4709,-4.5223,-4.625,-4.7939,-4.9591,-5.1242,-5.2564,-5.3083,-5.2872,-5.1238,-4.9604,-4.7922,-4.6622,-4.5802,-4.5406,-4.4342,-4.4195,-4.4635,-4.3828,-4.3497,0.0,0.0,0.0,0.0,0.0,0.0,0.0,0.0,-4.3497,-4.3497,-4.3497,-4.3497,-4.3497,-4.3497,-4.3497,-4.3495,-4.3631,-4.4257,-4.4916,0.0,0.0,0.0,0.0,0.0,0.0,0.0,0.0,0.0,0.0,0.0,0.0,0.0,-5.538,-5.6751,-5.7566,-5.8116,-5.8745,-5.9603,-6.0142,-6.0678,-6.1262,-6.1256,-6.1364,-6.1666,-6.1666,-6.155,-6.1281,-6.1281,-6.1435,-6.1704,-6.1204,-6.1166,-6.1743,-6.1166,-6.0896,-6.0896,-6.1473,-6.2012,-6.2512,-6.2512,-6.2512,-6.2512,-6.2512,-6.2512,-6.2512,-6.2512,-6.2551,-6.2589,-6.2589,-6.2858,-6.3243,-6.332,-6.368,-6.4166,0.0,0.0,0.0,0.0,0.0,0.0,0.0,0.0,-4.0194,-4.1001,-4.0414,0.0,0.0,0.0,0.0,0.0,0.0,0.0,-4.2213,-4.2286,-4.302,-4.4635,-4.4672,-4.5443,-4.7058,-4.7095,-4.7902,-4.9591,-5.1977,-5.2747,-5.1977,-5.1977,-5.1096,-4.9444,-4.8673,-4.7865,-4.6947,-4.5406,-4.4709,-4.4635,-4.3828,-4.3497,-4.3497,0.0,0.0,0.0,0.0,0.0,0.0,0.0,-4.3497,-4.3497,-4.3497,-4.3497,-4.3497,-4.3497,-4.3497,-4.3563,-4.3912,-4.3998,0.0,0.0,0.0,0.0,0.0,0.0,0.0,0.0,0.0,0.0,0.0,0.0,0.0,-5.2793,-5.4603,-5.5961,-5.6756,-5.6907,-5.7171,-5.7997,-5.8501,-5.915,-5.9989,-6.0508,-6.0781,-6.0781,-6.0781,-6.0396,-5.955,-5.9473,-5.9127,-5.8319,-5.8319,-5.8319,-5.8319,-5.8319,-5.8319,-5.8319,-5.8319,-5.9165,-6.0781,-6.0781,-6.0781,-6.0781,-6.0781,-6.0781,-6.0781,-6.0781,-6.0858,-6.0973,-6.0973,-6.1612,-6.2483,-6.2698,-6.3344,-6.4078,0.0,0.0,0.0,0.0,0.0,0.0,0.0,0.0,-4.0194,-4.1001,-4.0414,0.0,0.0,0.0,0.0,0.0,0.0,0.0,-4.0598,-4.1148,-4.1919,-4.2983,-4.302,-4.3497,-4.4562,-4.5663,-4.7352,-4.9591,-5.0325,-5.0839,-5.1132,-5.0508,-4.9664,-4.8636,-4.8416,-4.7535,-4.6177,-4.5149,-4.4709,-4.4635,-4.3828,-4.3497,-4.3497,0.0,0.0,0.0,0.0,0.0,0.0,0.0,0.0,0.0,-4.3497,-4.3497,-4.3497,-4.3497,-4.3497,-4.3563,-4.3912,-4.4616,0.0,0.0,0.0,0.0,0.0,0.0,0.0,0.0,0.0,0.0,0.0,0.0,0.0,-5.3164,-5.4635,-5.5772,-5.5998,-5.653,-5.6983,-5.7209,-5.738,-5.7946,-5.9083,-5.8814,-5.8924,-5.9796,-5.9358,-5.8934,-5.8665,-5.8665,-5.855,-5.8319,-5.8319,-5.8319,-5.8319,-5.8319,-5.8319,-5.8319,-5.8319,-5.855,-5.905,-5.905,-5.905,-5.905,-5.905,-5.905,-5.9088,-5.9665,-5.9973,-6.0104,-6.0104,-6.0435,-6.0896,-6.0935,-6.1569,-6.2421,0.0,0.0,0.0,0.0,0.0,0.0,0.0,0.0,-4.0194,-4.1001,-4.012,-3.9863,0.0,0.0,0.0,0.0,0.0,0.0,0.0,-4.0341,-4.1001,-4.1809,-4.2139,-4.269,-4.3461,-4.4745,-4.6177,-4.7645,-4.86,-4.9334,-4.9811,-4.9958,-4.9774,-4.9297,-4.9627,-4.8893,-4.7278,-4.614,-4.5296,-4.4635,-4.3828,-4.3497,-4.3497,0.0,0.0,0.0,0.0,0.0,0.0,0.0,0.0,0.0,-4.3497,-4.3497,-4.3497,-4.3497,-4.3376,-4.3352,-4.4042,0.0,0.0,0.0,0.0,0.0,0.0,0.0,0.0,0.0,0.0,0.0,-5.4998,-5.4428,0.0,-5.3742,-5.4846,-5.5579,-5.5275,-5.5922,-5.6273,-5.5969,-5.6501,-5.7225,-5.8004,-5.7966,-5.8221,-5.895,-5.8588,-5.8165,-5.778,-5.7473,-5.7126,-5.6819,-5.6434,-5.628,-5.628,-5.628,-5.628,-5.628,-5.6626,-5.678,-5.6819,-5.7857,-5.8319,-5.8319,-5.8319,-5.8319,-5.8357,-5.8896,-5.9181,-5.9311,-5.935,-5.9573,-5.9852,-6.0162,-6.0668,-6.1211,0.0,0.0,-3.6806,-3.876,0.0,0.0,0.0,0.0,-4.0042,-4.1001,-3.9717,-3.9276,0.0,0.0,0.0,0.0,0.0,0.0,0.0,-3.979,-4.0194,-4.1075,-4.2029,-4.291,-4.3681,-4.4378,-4.4709,-4.4709,-4.6911,-4.8012,-4.8122,-4.9738,-5.0508,-5.0618,-5.1353,-5.0802,-4.926,-4.7609,-4.5993,-4.4525,-4.3791,-4.3497,-4.3497,-4.3497,0.0,0.0,0.0,0.0,0.0,0.0,0.0,0.0,-4.3497,-4.3497,-4.3532,-4.3566,-4.3204,-4.3088,-4.432,0.0,0.0,0.0,0.0,0.0,0.0,0.0,0.0,0.0,0.0,-5.4934,-5.5588,-5.4472,-5.3703,-5.4511,-5.528,-5.5472,-5.4741,-5.528,-5.5472,-5.4741,-5.5972,-5.6917,-5.6917,-5.7588,-5.805,-5.805,-5.805,-5.7703,-5.6896,-5.6049,-5.5241,-5.4511,-5.3664,-5.3203,-5.3203,-5.3203,-5.3203,-5.3203,-5.401,-5.4434,-5.4587,-5.6973,-5.805,-5.805,-5.805,-5.8127,-5.8204,-5.8357,-5.8473,-5.8611,-5.8735,-5.8881,-5.918,-5.9883,-6.0234,-6.039,0.0,0.0,-3.9153,-3.9111,0.0,0.0,0.0,0.0,0.0,0.0,0.0,0.0,0.0,0.0,0.0,0.0,0.0,0.0,0.0,-3.8946,-3.9606,-4.1038,-4.3094,-4.4562,-4.5369,-4.4929,-4.4709,-4.4709,-4.5223,-4.581,-4.6434,-4.7425,-4.8233,-4.8857,-4.904,-4.8563,-4.7535,-4.592,-4.4672,-4.3718,-4.3571,-4.3497,-4.3497,-4.3497,-4.3497,0.0,0.0,0.0,0.0,0.0,0.0,0.0,-4.3497,-4.3497,-4.3529,-4.3818,-4.3385,-4.3146,0.0,0.0,0.0,0.0,0.0,0.0,0.0,0.0,0.0,-5.5395,-5.5934,-5.6319,-5.5934,-5.5549,-5.5434,-5.5801,-5.5994,-5.6032,-5.5878,-5.5976,-5.6036,-5.584,-5.6015,-5.613,-5.613,-5.6225,-5.6242,-5.6242,-5.6242,-5.6165,-5.5972,-5.5203,-5.4664,-5.4511,-5.3664,-5.3203,-5.3203,-5.3203,-5.3203,-5.3203,-5.3395,-5.3857,-5.4549,-5.5703,-5.6242,-5.6242,-5.6242,-5.6665,-5.728,-5.7434,-5.7545,-5.7683,-5.785,-5.8012,-5.8203,-5.8359,-5.8867,-5.9492,0.0,0.0,0.0,0.0,0.0,0.0,0.0,0.0,0.0,0.0,0.0,0.0,0.0,0.0,0.0,0.0,0.0,0.0,0.0,0.0,-3.9019,-4.1038,-4.3057,-4.4305,-4.4745,-4.4342,-4.4121,-4.4121,-4.4121,-4.4525,-4.5333,-4.614,-4.6948,-4.7755,-4.8122,-4.7645,-4.6471,-4.5626,-4.4599,-4.3497,-4.3497,-4.3497,-4.3497,-4.3497,-4.3497,-4.3497,-4.3497,0.0,0.0,0.0,0.0,0.0,0.0,0.0,-4.3791,-4.3974,-4.3671,-4.353,0.0,0.0,0.0,0.0,0.0,0.0,0.0,0.0,0.0,-5.5164,-5.5818,-5.6357,-5.5972,-5.6,-5.6062,-5.6195,-5.583,-5.5598,-5.5598,-5.5575,-5.542,-5.4994,-5.5226,-5.526,-5.4842,-5.4685,-5.4608,-5.4587,-5.4549,-5.4511,-5.4511,-5.3703,-5.328,-5.328,-5.2433,-5.201,-5.201,-5.201,-5.201,-5.201,-5.2395,-5.3049,-5.3933,-5.5126,-5.5703,-5.5703,-5.5703,-5.5972,-5.6357,-5.6203,-5.6381,-5.6792,-5.6574,-5.6815,-5.7344,-5.7734,-5.8203,-5.8633,0.0,0.0,0.0,0.0,0.0,0.0,0.0,0.0,0.0,0.0,0.0,0.0,0.0,0.0,0.0,0.0,0.0,0.0,0.0,0.0,0.0,-4.1222,-4.2837,-4.3718,-4.3718,-4.3571,-4.3497,-4.3497,-4.3351,0.0,0.0,-4.5369,-4.614,-4.6948,-4.7462,-4.7021,-4.5883,-4.559,-4.4709,-4.3497,-4.3497,-4.3497,-4.3497,-4.3497,-4.3497,-4.3497,-4.3497,-4.3497,-4.3497,-4.3497,0.0,0.0,0.0,0.0,-4.4028,-4.3959,-4.3781,-4.3781,0.0,0.0,0.0,0.0,0.0,0.0,0.0,0.0,-5.5703,-5.5703,-5.5818,-5.5899,-5.5943,-5.611,-5.6224,-5.629,-5.5559,-5.4966,-5.4966,-5.4966,-5.4702,-5.397,-5.4507,-5.4575,-5.373,-5.351,-5.3359,-5.3203,-5.3203,-5.3203,-5.3203,-5.2395,-5.1895,-5.1895,-5.1125,-5.0625,-5.0471,-5.0471,-5.0394,-5.024,-5.1241,-5.2164,-5.3049,-5.4587,-5.528,-5.528,-5.528,-5.528,-5.5241,-5.4836,-5.5105,-5.5706,-5.5257,-5.5625,-5.6445,-5.7187,-5.7539,-5.7773,0.0,0.0,0.0,0.0,0.0,0.0,0.0,0.0,0.0,0.0,-3.9379,-3.9019,0.0,0.0,0.0,0.0,0.0,0.0,-3.747,0.0,0.0,-4.2103,-4.3681,-4.4562,-4.4562,-4.3864,-4.3497,-4.3497,-4.28,0.0,0.0,0.0,0.0,-4.603,-4.5443,-4.5443,-4.581,-4.4415,-4.3681,-4.3497,-4.3497,-4.3497,-4.3497,-4.3497,-4.3497,-4.3497,-4.3497,-4.3497,-4.3497,-4.3497,-4.3497,0.0,0.0,0.0,-4.3968,-4.3867,-4.3276,-4.2945,0.0,0.0,0.0,0.0,0.0,0.0,0.0,0.0,-5.5703,0.0,-5.5818,-5.5924,-5.6123,-5.6295,-5.6404,-5.654,-5.5817,-5.5231,-5.5231,-5.5231,-5.5192,-5.5075,-5.5075,-5.472,-5.3854,-5.365,-5.3208,-5.2358,-5.2974,-5.33,-5.3203,-5.2395,-5.1895,-5.1895,-5.1125,-5.0317,-4.9586,-4.9586,-4.9202,-4.8471,-5.0087,-5.1279,-5.2125,-5.3087,-5.3549,-5.3549,-5.3549,-5.3549,-5.3549,-5.3699,-5.3851,-5.3945,-5.4125,-5.4726,-5.5508,-5.5586,-5.6133,-5.6797,0.0,0.0,0.0,0.0,0.0,0.0,0.0,0.0,0.0,0.0,0.0,-3.8836,0.0,0.0,0.0,-3.5642,-3.5165,-3.5459,-3.6743,-3.8689,-4.012,-4.0928,-4.2066,-4.269,-4.269,-4.2359,-4.2176,-4.2176,0.0,0.0,0.0,-4.4488,-4.5149,0.0,0.0,0.0,-4.5113,0.0,0.0,-4.3426,-4.281,-4.2734,-4.2995,-4.2696,-4.2734,-4.2995,-4.2657,-4.2958,-4.3463,-4.3142,-4.325,-4.3563,-4.3912,0.0,0.0,0.0,-4.3655,-4.3713,-4.4761,0.0,0.0,0.0,0.0,0.0,0.0,0.0,-5.5703,-5.5703,-5.5818,-5.5962,-5.6173,-5.6378,-5.6386,-5.5935,-5.5156,-5.457,-5.457,-5.4141,-5.4023,-5.4492,-5.4101,-5.3594,-5.3203,-5.2602,-5.2083,-5.1615,-5.1866,-5.1953,-5.1895,-5.1471,-5.1241,-5.1241,-5.0394,-4.9779,-4.9394,-4.8933,-4.8509,-4.8221,-4.9067,-4.9663,-5.0009,-5.0298,-5.1471,-5.3203,-5.3203,-5.3241,-5.3297,-5.2969,-5.3186,-5.3662,-5.3401,-5.4101,-5.5312,-5.5312,-5.5859,-5.6601,0.0,0.0,0.0,0.0,0.0,0.0,0.0,0.0,0.0,0.0,0.0,0.0,0.0,0.0,0.0,0.0,-3.4284,-3.4431,-3.5862,-3.7477,-3.8762,-3.957,-4.0377,-4.0818,-4.0818,-4.0818,-4.0818,0.0,0.0,0.0,-4.3497,-4.4525,-4.5443,0.0,-4.5149,0.0,0.0,0.0,0.0,0.0,-4.2282,-4.198,-4.233,-4.1736,-4.1675,-4.1884,-4.1837,-4.2282,-4.2958,-4.2736,-4.3105,-4.3693,-4.4028,-4.425,0.0,0.0,0.0,-4.3816,0.0,0.0,0.0,0.0,0.0,0.0,0.0,0.0,-5.5434,0.0,-5.5818,-5.5943,-5.6093,-5.6374,-5.6328,-5.5703,-5.4687,-5.3984,-5.3984,-5.3242,-5.293,-5.3594,-5.3086,-5.2695,-5.2695,-5.1836,-5.125,-5.1211,-5.1044,-5.0851,-5.0587,-5.0491,-5.0279,-5.0048,-4.9394,-4.8971,-4.8779,-4.7971,-4.7679,-4.8028,-4.8111,-4.8304,-4.848,-4.8381,-4.9697,-5.201,-5.2164,-5.2202,-5.2087,-5.1779,-5.2127,-5.2762,-5.2283,-5.3125,-5.4687,-5.4883,-5.5508,-5.6289,0.0,0.0,0.0,0.0,0.0,0.0,0.0,0.0,0.0,0.0,0.0,0.0,-3.8615,-3.7257,-3.5936,-3.5064,-3.4284,-3.4174,-3.499,-3.6633,-3.7918,-3.8726,-3.9533,0.0,-3.9974,-3.9974,-3.9974,0.0,0.0,0.0,-4.3534,-4.5112,-4.6287,-4.6985,-4.5406,-4.4709,-4.4672,0.0,0.0,0.0,-4.2377,-4.154,-4.1502,-4.0962,-4.0334,-3.9949,-4.1321,-4.1725,-4.1685,-4.2441,-4.3246,-4.4028,-4.4428,-4.4232,-4.3764,0.0,0.0,0.0,0.0,-4.3778,0.0,0.0,0.0,0.0,0.0,0.0,-5.478,-5.5549,-5.5818,-5.5917,-5.5899,-5.6203,-5.6406,-5.6367,-5.5039,-5.3984,-5.3984,-5.3242,-5.2734,-5.2773,-5.2734,-5.2695,-5.2695,-5.1914,-5.1328,-5.1211,-5.1171,-5.0738,-4.9738,-4.9644,-4.9221,-4.8279,-4.8202,-4.7817,-4.7124,-4.6411,-4.6428,-4.7271,-4.7271,-4.769,-4.8476,-4.8487,-4.8567,-4.8779,-4.9356,-4.9202,-4.8643,-4.9537,-5.0026,-5.02,-5.0299,-5.1367,-5.293,-5.375,-5.4609,-5.5508,0.0,0.0,0.0,0.0,0.0,0.0,0.0,0.0,0.0,0.0,0.0,0.0,0.0,-3.7257,-3.6156,-3.5862,-3.5055,-3.4945,-3.5789,-3.689,-3.7845,-3.8652,-3.8982,-3.9129,-3.9129,-3.9129,0.0,0.0,0.0,-4.1793,-4.305,-4.4483,-4.5296,-4.559,-4.5516,-4.548,-4.5333,-4.3688,0.0,0.0,-4.1746,-4.1124,-4.1283,-3.9876,-3.9434,-3.9545,-3.9694,0.0,-4.1578,-4.2086,-4.3041,-4.4117,-4.4713,-4.4417,-4.3594,-4.2595,-4.1662,-4.1085,-4.1662,0.0,0.0,0.0,0.0,-4.8702,-5.0394,-5.1818,-5.2933,-5.3203,-5.4203,-5.5011,-5.5011,-5.5255,-5.5447,-5.5436,-5.4021,-5.2929,-5.2929,-5.2188,-5.1674,-5.1718,-5.1758,-5.1758,-5.1875,-5.1562,-5.1343,-5.1202,-5.0733,-5.0171,-4.9622,-4.9085,-4.8605,-4.8221,-4.7702,-4.7031,-4.6305,-4.6121,-4.6188,-4.6496,-4.658,-4.6772,-4.7081,-4.7011,-4.6965,-4.6991,-4.7685,-4.8183,-4.8606,-4.896,-4.9523,-5.0147,-5.0188,-5.1211,-5.2734,-5.3047,-5.3711,-5.4609,0.0,0.0,0.0,0.0,0.0,-4.3096,-4.1163,-4.0466,-3.9727,-3.8462,0.0,0.0,0.0,0.0,-3.6597,-3.6303,-3.5789,-3.5679,-3.6266,-3.678,-3.7441,-3.8248,-3.8579,-3.8836,-3.9093,-3.9093,0.0,0.0,0.0,0.0,0.0,-4.3734,-4.4485,-4.4881,-4.5331,-4.5516,0.0,0.0,0.0,-4.3721,-4.171,-4.1124,-4.1283,0.0,-3.9399,-3.958,-3.9659,0.0,-4.1758,-4.1928,-4.2848,-4.3966,-4.4182,-4.3708,-4.291,-4.1728,-4.0931,-4.0623,-4.12,-4.1585,0.0,0.0,0.0,-4.6971,-4.8933,0.0,-5.1241,-5.1779,-5.3049,-5.4049,-5.4049,-5.4223,-5.442,-5.4784,-5.343,-5.2305,-5.2318,-5.1606,-5.1136,-5.1147,-5.1167,-5.1081,-5.0937,-5.0937,-5.0793,-5.0428,-4.9885,-4.9382,-4.889,-4.8277,-4.779,-4.748,-4.6981,-4.6468,-4.598,-4.6096,-4.6174,-4.6185,-4.6257,-4.6289,-4.6289,-4.6201,-4.616,-4.6189,-4.6698,-4.7275,-4.7857,-4.8145,-4.8848,-4.9766,-4.9766,-5.0781,-5.2305,-5.2578,-5.3086,-5.3672,0.0,0.0,-4.5686,-4.518,-4.4849,-4.4218,-4.3005,-4.1206,-3.9968,-3.9937,0.0,0.0,0.0,0.0,0.0,-3.645,-3.6376,-3.6376,-3.6413,-3.6376,-3.6707,-3.7544,-3.8322,-3.9093,-3.9895,-3.9932,0.0,0.0,0.0,0.0,0.0,0.0,-4.4099,-4.519,-4.4841,-4.4707,-4.4635,0.0,-4.3938,-4.449,0.0,-4.1505,-4.1467,0.0,0.0,0.0,-4.1292,-4.1933,-4.2095,-4.1992,-4.2791,-4.3683,-4.2789,-4.2201,-4.1662,-4.0777,-4.0508,-4.0508,0.0,0.0,0.0,0.0,0.0,0.0,-4.8663,-4.9279,-4.9779,-5.1433,-5.251,-5.3126,-5.3126,-5.3164,-5.3492,-5.4457,-5.33,-5.2279,-5.2319,-5.1626,-5.1106,-5.1106,-5.1087,-5.0821,-5.0114,-5.0,-4.9687,-4.8984,-4.8766,-4.8291,-4.7409,-4.7234,-4.6791,-4.5939,-4.6032,-4.6116,-4.6116,-4.6215,-4.6289,-4.6289,-4.6289,-4.6289,-4.6289,-4.6289,-4.6289,-4.6289,-4.6287,-4.6213,-4.6177,-4.7068,-4.7994,-4.8906,-4.8945,-4.9961,-5.1484,-5.2344,-5.2656,-5.2773,0.0,-4.6351,-4.6411,-4.5419,-4.5065,-4.4473,-4.2996,-4.2337,-4.1711,0.0,0.0,0.0,-3.9606,-3.8836,-3.8285,-3.8065,-3.8028,-3.8285,-3.8872,-3.8358,-3.8395,-3.9203,-3.946,-3.9798,-4.0243,-4.0799,-4.0999,0.0,0.0,0.0,0.0,-4.3622,0.0,0.0,-4.4693,-4.4461,-4.4151,-4.3708,0.0,-4.3718,-4.2553,-4.2079,0.0,0.0,0.0,0.0,0.0,-4.1565,-4.2226,-4.3074,-4.3961,-4.4527,-4.3388,-4.2919,-4.2524,-4.1062,-4.1008,-4.1316,-4.0662,0.0,0.0,0.0,0.0,0.0,-4.5432,-4.6701,-4.774,-4.8202,-4.9933,-5.1395,-5.1395,-5.1856,-5.2356,-5.2646,-5.1818,-5.1587,-5.28,-5.1722,-5.0875,-5.0952,-5.0948,-5.0913,-5.0801,-5.0327,-4.9813,-4.9446,-4.8392,-4.7563,-4.7066,-4.6538,-4.6177,-4.6051,-4.6169,-4.6236,-4.6236,-4.6284,-4.6289,-4.6289,-4.6289,-4.6289,-4.6289,-4.6289,-4.6289,-4.6289,-4.6282,-4.6264,-4.6314,-4.7206,-4.8063,-4.8945,-4.9609,-5.0469,-5.1445,-5.168,-5.1758,-5.1953,-4.6128,-4.6309,-4.6467,-4.6082,-4.5763,-4.5422,-4.4889,-4.41,-4.3249,0.0,0.0,0.0,0.0,-4.0267,-4.0084,-3.9753,-3.9717,-3.9816,-4.0074,-3.963,-3.9497,-3.9751,-4.0448,-4.0933,-4.1113,-4.1764,-4.2033,-4.1882,0.0,0.0,-4.2611,-4.3324,-4.399,-4.4599,-4.4401,-4.4204,0.0,0.0,0.0,0.0,-4.2983,0.0,0.0,-4.1938,-4.1718,0.0,-4.211,-4.2932,-4.3867,-4.3855,-4.4055,-4.4116,-4.3436,-4.3179,-4.3002,-4.2094,-4.2079,-4.2294,-4.1832,0.0,0.0,-4.3272,0.0,0.0,-4.4662,-4.5624,-4.6355,-4.6355,-4.8086,-4.9625,-4.9625,-5.0317,-5.0971,-5.1356,-5.0702,-5.0625,-5.1972,-5.1318,-5.0741,-5.0837,-5.0837,-5.0741,-5.051,-4.9756,-4.91,-4.8629,-4.7455,-4.666,-4.6471,-4.6154,-4.6034,-4.6173,-4.6261,-4.6289,-4.6289,-4.6289,-4.6289,-4.6289,-4.6289,-4.6289,-4.6289,-4.6289,-4.6289,-4.6289,-4.6289,-4.6289,-4.6367,-4.7226,-4.7891,-4.8437,-4.9336,-5.0156,-5.0937,-5.1289,-5.1406,-5.1562,0.0,-4.6236,-4.6413,-4.7041,-4.6779,-4.6724,-4.7487,-4.6074,-4.4863,0.0,-4.3154,-4.2017,-4.1756,-4.2136,-4.2176,-4.1552,-4.1368,-4.1088,-4.0737,-4.0542,-4.0296,-4.0033,-4.1429,-4.2246,-4.2308,-4.2752,-4.3072,-4.329,-4.2092,0.0,0.0,0.0,-4.3304,-4.4599,-4.4233,-4.4028,-4.3998,0.0,0.0,-4.3497,-4.3497,-4.3497,0.0,0.0,-4.3693,-4.3998,-4.4058,-4.4987,-4.5938,-4.4489,-4.3752,-4.3393,-4.3371,-4.3294,-4.3256,-4.3381,-4.3381,0.0,0.0,0.0,0.0,-4.5186,-4.5021,0.0,-4.5372,-4.5642,-4.5757,-4.5642,-4.6855,-4.7971,-4.7971,-4.8663,-4.951,-5.0279,-4.9817,-4.974,-5.0702,-5.0741,-5.0702,-5.0702,-5.0702,-5.0433,-4.9798,-4.8952,-4.8128,-4.7349,-4.6351,-4.5796,-4.5911,-4.602,-4.6132,-4.6289,-4.6289,-4.6289,-4.6289,-4.6289,-4.6289,-4.6289,-4.6289,-4.6289,-4.6289,-4.6289,-4.6289,-4.6289,-4.6289,-4.6289,-4.6367,-4.7148,-4.75,-4.7695,-4.8555,-4.9414,-5.0273,-5.1016,-5.1328,-5.1406,-4.7305,-4.7674,-4.8033,-4.8176,-4.7933,-4.7721,-4.7624,-4.7266,-4.7124,-4.7494,-4.6427,0.0,0.0,-4.414,-4.3461,-4.3975,-4.28,-4.241,-4.3223,-4.206,-4.1696,-4.2523,-4.2888,-4.3199,-4.3547,-4.402,-4.3943,-4.3303,-4.3713,0.0,0.0,0.0,0.0,-4.4599,-4.4546,-4.429,-4.3998,0.0,0.0,-4.3497,-4.3497,-4.3497,-4.3497,-4.3497,-4.3693,-4.4028,-4.4346,-4.4852,-4.535,-4.5266,-4.5243,-4.5124,-4.4453,-4.4239,-4.4102,-4.3564,-4.3811,-4.4106,-4.3546,-4.3909,-4.4311,-4.3968,-4.479,0.0,-4.5021,-4.5885,-4.6617,-4.5911,-4.6471,-4.7124,-4.7124,-4.7817,-4.8394,-4.8586,-4.9048,-4.9933,-5.1471,-5.1125,-5.0702,-5.0702,-5.0702,-5.0625,-5.051,-4.9798,-4.8951,-4.7979,-4.6485,-4.5719,-4.5911,-4.5908,-4.6041,-4.6289,-4.6289,-4.6289,-4.6289,-4.6289,-4.6289,-4.6289,-4.6289,-4.6289,-4.6289,-4.6289,-4.6289,-4.6289,-4.6289,-4.6289,-4.6328,-4.6484,-4.6953,-4.7695,-4.8555,-4.9414,-5.0234,-5.0391,-5.0859,-5.1484,-4.7501,-4.803,-4.872,-4.9507,-4.9163,-4.8971,-4.9656,-4.9405,-4.9166,-4.9239,-4.8551,0.0,0.0,0.0,-4.4912,-4.4709,-4.3608,-4.3041,-4.3379,-4.2627,-4.2425,-4.289,-4.3331,-4.3716,-4.4078,-4.4417,-4.4398,-4.3945,-4.4017,0.0,0.0,0.0,0.0,0.0,0.0,-4.398,0.0,0.0,-4.3823,-4.3497,-4.3497,0.0,-4.3497,-4.3497,-4.3855,-4.4318,-4.4546,-4.4919,-4.5419,-4.605,-4.6009,-4.5624,-4.5278,-4.5086,-4.4987,-4.4718,-4.4901,-4.5126,-4.4811,-4.5078,-4.5411,-4.5414,-4.5686,0.0,0.0,-4.5958,-4.6267,-4.5439,-4.5873,-4.6394,-4.6394,-4.674,-4.7142,-4.7489,-4.7912,-4.8605,-4.9817,-5.0394,-5.0702,-5.0702,-5.0702,-5.0702,-5.0702,-4.9586,-4.8298,-4.6932,-4.6124,-4.5757,-4.5911,-4.595,-4.6104,-4.6289,-4.6289,-4.6289,-4.6289,-4.6289,-4.6289,-4.6289,-4.6289,-4.6289,-4.6289,-4.6289,-4.6289,-4.6289,-4.6289,-4.6289,-4.6289,-4.6289,-4.6562,-4.7031,-4.7891,-4.8516,-4.9023,-4.9883,-5.0469,-5.0937,-4.7422,-4.8106,-4.9032,-5.0125,-4.9952,-5.0048,-5.1241,-5.101,-5.0642,-5.0466,-5.0304,0.0,0.0,0.0,0.0,0.0,-4.4562,-4.3704,-4.372,-4.3304,-4.2987,-4.2889,-4.3558,-4.4069,-4.4365,-4.4445,-4.4455,-4.4455,-4.3823,0.0,0.0,0.0,0.0,0.0,0.0,0.0,0.0,0.0,0.0,-4.3497,0.0,-4.3497,-4.3532,-4.3563,-4.4004,-4.4624,-4.4751,-4.512,-4.5701,-4.6394,-4.6163,-4.5624,-4.5719,-4.5778,-4.5893,-4.6103,-4.6148,-4.623,-4.6553,-4.6523,-4.6562,-4.7266,-4.6963,-4.641,0.0,0.0,0.0,-4.5144,-4.5486,-4.5912,-4.5912,-4.5912,-4.6082,-4.6715,-4.6921,-4.7237,-4.7835,-4.9259,-5.0298,-5.0433,-5.0279,-5.0279,-5.0433,-4.8894,-4.7317,-4.597,-4.5834,-4.5834,-4.595,-4.6026,-4.615,-4.6289,-4.6289,-4.6289,-4.6289,-4.6289,-4.6289,-4.6289,-4.6289,-4.6289,-4.6289,-4.6289,-4.6289,-4.6289,-4.6289,-4.6289,-4.6289,-4.6289,-4.6289,-4.6367,-4.707,-4.7461,-4.7773,-4.918,-4.9805,-5.0078,-4.7378,-4.8526,-4.9296,-4.87,-4.9682,-5.0356,-4.9779,-5.024,-5.0933,0.0,0.0,0.0,0.0,0.0,0.0,0.0,-4.6728,-4.5289,-4.7024,-4.5084,-4.3988,-4.4348,-4.4487,-4.4525,-4.4575,-4.4252,-4.4058,-4.4058,-4.366,-4.3497,0.0,0.0,0.0,0.0,-4.2757,0.0,0.0,0.0,-4.2871,0.0,-4.3497,-4.3497,-4.3529,-4.3818,-4.4204,-4.4701,-4.5263,-4.555,-4.5624,-4.5701,-4.5663,-4.5586,-4.5624,-4.6124,-4.6778,-4.6968,-4.7058,-4.7298,-4.8301,-4.8008,-4.7461,-4.7539,-4.8085,-4.8162,-4.6639,0.0,-4.6989,-4.6126,0.0,-4.592,-4.592,0.0,0.0,-4.5998,-4.6665,-4.7178,-4.7122,-4.7969,-4.8797,-4.9471,-4.8856,-4.8702,-4.9471,-4.8009,-4.6971,-4.6855,-4.6201,-4.5873,-4.6065,-4.6103,-4.615,-4.6289,-4.6289,-4.6289,-4.6289,-4.6289,-4.6289,-4.6289,-4.6289,-4.6289,-4.6289,-4.6289,-4.6289,-4.6289,-4.6289,-4.6289,-4.6289,-4.6289,-4.6289,-4.6328,-4.6406,-4.6914,-4.7617,-4.7812,-4.8398,-4.918,-4.7139,-4.8489,-4.9471,-4.9028,-4.949,-4.9971,-5.0125,-5.1279,-5.2279,0.0,0.0,0.0,0.0,0.0,0.0,0.0,0.0,-4.625,-4.6648,-4.5244,-4.4554,-4.4945,-4.4495,-4.4571,-4.5289,-4.4466,-4.3998,-4.3998,-4.366,-4.3497,-4.3497,-4.3497,0.0,0.0,-4.2947,0.0,-4.28,0.0,-4.3167,0.0,0.0,-4.3631,-4.3823,-4.3974,-4.4373,-4.4943,-4.5438,-4.5586,-4.5586,-4.5586,-4.5586,-4.5586,-4.568,-4.6296,-4.7027,-4.7181,-4.7276,-4.7417,-4.7917,-4.783,-4.7617,-4.7617,-4.7891,-4.7969,-4.7226,-4.685,-4.6522,-4.6173,0.0,0.0,0.0,0.0,0.0,0.0,-4.6171,-4.6255,-4.5647,-4.595,-4.6817,-4.8432,-4.8317,-4.8086,-4.8009,-4.7355,-4.6778,-4.6394,-4.6142,-4.6026,-4.6103,-4.6169,-4.6231,-4.6289,-4.6289,-4.6289,-4.6289,-4.6289,-4.6289,-4.6289,-4.6289,-4.6289,-4.6289,-4.6289,-4.6289,-4.6289,-4.6289,-4.6289,-4.6289,-4.6289,-4.6289,-4.6289,-4.6289,-4.6523,-4.6914,-4.7422,-4.7812,-4.8359,-4.6624,-4.8028,-4.9028,-4.8471,-4.874,-4.9356,-5.0202,-5.1395,-5.2395,0.0,0.0,0.0,-5.2999,-5.1607,0.0,0.0,-4.9444,-4.7976,-4.7609,-4.5993,-4.5033,-4.5074,-4.448,-4.4526,-4.5169,-4.4526,-4.4072,-4.3849,-4.3631,-4.3497,-4.3497,-4.3597,-4.3302,0.0,0.0,-4.3266,-4.2653,0.0,-4.3497,-4.3532,-4.3597,-4.3912,-4.4318,-4.4318,-4.4688,-4.5263,-4.5571,-4.5624,-4.5663,-4.568,-4.568,-4.5719,-4.5796,-4.6436,-4.7133,-4.7237,-4.7317,-4.7465,-4.7752,-4.7879,-4.7891,-4.7656,-4.776,-4.7762,-4.7294,-4.7134,-4.6954,-4.6506,-4.6883,0.0,0.0,0.0,-4.679,-4.6289,0.0,-4.6189,-4.503,-4.4954,-4.5645,-4.7314,-4.7702,-4.7548,-4.6778,-4.6706,-4.6491,-4.5988,-4.6026,-4.6127,-4.6151,-4.624,-4.6284,-4.624,-4.6236,-4.6264,-4.625,-4.625,-4.625,-4.6289,-4.6289,-4.6289,-4.6289,-4.6289,-4.6289,-4.6289,-4.6289,-4.6289,-4.6289,-4.6289,-4.6289,-4.6289,-4.6289,-4.6289,-4.6367,-4.6992,-4.7226,-4.75,-4.5624,-4.7009,-4.7625,-4.6009,-4.7048,-4.8432,-4.9317,-4.9471,-5.0394,0.0,0.0,0.0,0.0,0.0,-5.4422,-5.6389,-5.2968,-5.0986,-5.1756,-4.8049,-4.5516,-4.4745,-4.4672,-4.434,-4.3603,-4.4303,-4.4303,-4.3532,-4.3532,-4.3497,-4.3532,-4.3818,-4.3786,-4.3495,-4.3818,-4.3786,-4.3461,-4.3497,-4.3497,-4.3532,-4.3849,-4.4428,-4.5055,-4.5055,-4.5263,-4.5586,-4.574,-4.5796,-4.5796,-4.5873,-4.5911,-4.5911,-4.5911,-4.6499,-4.7232,-4.7333,-4.7375,-4.7593,-4.8599,-4.8867,-4.8672,-4.7812,-4.8124,-4.821,-4.654,-4.7918,-4.9123,-4.7486,-4.9124,-5.0334,-4.87,-4.9067,-4.9067,-4.7426,-4.7846,0.0,0.0,-4.5811,-4.5884,-4.5973,-4.6722,-4.6876,-4.6026,-4.5944,-4.5991,-4.61,-4.6103,-4.6164,-4.6286,-4.6289,-4.6226,-4.6095,-4.6116,-4.6108,-4.6094,-4.6094,-4.6172,-4.6289,-4.6289,-4.6289,-4.6289,-4.6289,-4.6289,-4.6289,-4.6289,-4.6289,-4.6289,-4.6289,-4.6289,-4.6289,-4.6289,-4.6289,-4.6289,-4.6328,-4.6328,-4.6601,-4.6471,0.0,-4.7586,0.0,0.0,-4.7586,-4.8394,-4.9971,-5.1972,0.0,-5.4732,0.0,0.0,-5.6764,-5.6108,-5.6765,-5.4583,-5.2858,-5.205,-5.0215,-4.8783,-4.7976,-4.7388,-4.6948,-4.6691,-4.5883,-4.5112,-4.4305,-4.3754,-4.3889,-4.4697,-4.4197,-4.4356,-4.499,0.0,-4.4175,0.0,0.0,0.0,0.0,0.0,-4.52,-4.5862,-4.5553,-4.5552,-4.5757,-4.5796,-4.5819,-4.5863,-4.5902,-4.5902,-4.5905,-4.6012,-4.6645,-4.7378,-4.7486,-4.7924,-4.8488,-4.8825,-4.9726,-5.0234,-4.8828,-4.9472,-5.0018,-4.821,-4.9219,-5.0044,-4.8279,-4.9433,-5.0452,-4.9317,-4.9317,-4.9125,-4.7989,-4.8102,-4.7571,0.0,-4.5045,-4.5113,-4.5117,-4.5789,-4.6164,-4.5858,-4.5308,-4.5258,-4.5937,-4.5469,-4.5424,-4.5986,-4.6059,-4.5998,-4.598,-4.5982,-4.5966,-4.598,-4.5959,-4.5981,-4.6059,-4.6059,-4.6062,-4.6172,-4.6172,-4.6211,-4.6289,-4.6289,-4.6289,-4.6289,-4.6289,-4.6289,-4.6289,-4.6289,-4.6289,-4.6289,-4.6289,-4.6314,-4.6535,-4.7317,-4.7509,0.0,0.0,0.0,0.0,0.0,-5.0548,0.0,0.0,-5.6844,0.0,-6.0297,-5.945,-5.8574,-5.8215,-5.6821,-5.5143,-5.3222,-5.221,-5.1169,-5.0068,-4.9481,-4.893,-4.8306,-4.7572,-4.6544,-4.5149,-4.5031,-4.5263,-4.5699,-4.5077,-4.516,-4.5795,0.0,-4.4745,-4.4035,-4.4333,-4.4258,0.0,0.0,-4.5524,-4.6107,-4.5801,-4.5893,-4.6201,-4.5988,-4.5935,-4.5964,-4.602,-4.602,-4.604,-4.6134,-4.679,-4.7485,-4.7567,-4.8203,-4.8906,-4.8906,-5.0117,-5.1052,-4.9601,-5.0516,-5.1239,-4.9423,-5.047,-5.1355,-4.9875,-5.0894,-5.1972,-5.1702,-5.1164,-5.0356,-4.9202,-4.8854,-4.7815,0.0,-4.5037,-4.5103,-4.5103,-4.5538,-4.5852,-4.5852,-4.5345,-4.511,-4.5431,-4.5281,-4.5219,-4.5464,-4.5735,-4.5891,-4.5852,-4.5866,-4.5873,-4.5873,-4.5866,-4.5891,-4.5891,-4.5891,-4.5949,-4.6047,-4.6019,-4.6085,-4.6211,-4.6211,-4.625,-4.6289,-4.6289,-4.6289,-4.6289,-4.6289,-4.6289,-4.6289,-4.6318,-4.6491,-4.6891,-4.8125,-4.7548,0.0,0.0,-4.7009,0.0,0.0,0.0,-5.4203,0.0,-5.9077,-6.1,-6.2612,-6.2411,-6.1795,-6.0896,-5.9628,-5.79,-5.5473,-5.4152,-5.2757,-5.1136,-5.1103,-5.0291,-4.86,-4.9299,-4.8491,-4.6067,-4.7151,-4.7271,-4.6589,-4.6392,-4.6121,0.0,-4.6145,0.0,-4.4095,-4.4878,-4.4766,-4.4117,-4.4849,-4.5418,-4.5873,-4.5834,-4.6313,-4.6908,-4.6313,-4.61,-4.6143,-4.6257,-4.6289,-4.6287,-4.6326,-4.6913,-4.7578,-4.7617,-4.8242,-4.8945,-4.8945,-5.0195,-5.1268,-5.0267,-5.1254,-5.1981,-5.02,-5.1644,-5.3087,-5.2164,-5.3356,-5.478,-5.5434,-5.428,-5.2626,-5.0933,-4.9817,-4.8394,-4.6103,-4.5796,-4.5834,-4.5873,-4.5873,-4.5911,-4.5911,-4.5834,-4.5522,-4.4816,-4.5406,-4.5509,-4.4799,-4.547,-4.5873,-4.5796,-4.5834,-4.5834,-4.5796,-4.5834,-4.5873,-4.5911,-4.5911,-4.5911,-4.5928,-4.5902,-4.5969,-4.6092,-4.6094,-4.6172,-4.6289,-4.6289,-4.6289,-4.6289,-4.6289,-4.6289,-4.6285,-4.6293,-4.6733,-4.7447,-4.8355,-4.8971,-4.9702,0.0,-4.8663,-4.8317,0.0,0.0,0.0,0.0,-6.1555,-6.397,-6.5283,-6.4769,-6.3883,-6.2593,-6.109,-5.9662,-5.8455,-5.7449,-5.6295,-5.4946,-5.521,-5.4317,-5.1977,-5.1342,-5.0231,-4.8636,-4.7411,-4.7137,-4.7738,-4.6757,0.0,0.0,0.0,-4.5413,-4.4849,-4.5038,-4.5038,-4.4872,-4.5418,-4.6032,-4.6624,-4.618,-4.6487,-4.706,-4.6366,-4.6162,-4.6253,-4.6286,-4.6215,-4.6255,-4.6897,-4.719,-4.7423,-4.8086,-4.8911,-4.9574,-4.9574,-5.134,-5.2967,-5.2069,-5.3183,-5.4188,-5.2874,-5.401,-5.486,-5.3203,-5.4203,-5.5049,-5.4049,-5.3587,-5.2587,-5.0125,-4.7971,-4.6355,-4.574,-4.5624,-4.5893,-4.6547,-4.6047,-4.568,-4.568,-4.5086,-4.491,-4.5351,-4.4949,-4.4893,-4.5355,-4.5547,-4.568,-4.5624,-4.6278,-4.6317,-4.5663,-4.6278,-4.6355,-4.5834,-4.5834,-4.5911,-4.6026,-4.6066,-4.6134,-4.6254,-4.6257,-4.6289,-4.6289,-4.6289,-4.6289,-4.6289,-4.6289,-4.6289,-4.6289,-4.6303,-4.6377,-4.6544,-4.9433,-5.0625,0.0,-5.2279,0.0,0.0,-5.2779,-5.4087,0.0,-5.9627,-6.2704,-6.4859,-6.5523,-6.6174,-6.6,-6.4457,-6.2591,-6.105,-5.9874,-5.911,-5.8229,-5.719,-5.7363,-5.6657,-5.4912,-5.3489,-5.2289,-5.1225,-4.9084,-4.8362,-4.8996,-4.7335,0.0,0.0,0.0,-4.5956,-4.5611,-4.5611,-4.5665,-4.5703,-4.5784,-4.6142,0.0,-4.6162,-4.6309,-4.6703,-4.6601,-4.6639,-4.6679,-4.6679,-4.69,-4.7216,-4.7738,-4.8111,-4.8449,-4.8914,-4.9921,-5.0903,-5.0956,-5.2636,-5.4234,-5.3745,-5.4736,-5.5514,-5.4397,-5.4901,-5.536,-5.4667,-5.4955,-5.5416,-5.5549,-5.4434,-5.2626,-4.9913,-4.7625,-4.6163,-4.6163,-4.5817,-4.5778,-4.6278,-4.624,-4.6009,-4.5624,-4.5163,-4.4893,-4.5009,-4.4932,-4.4932,-4.5009,-4.5393,-4.5586,-4.5586,-4.6778,-4.7048,-4.6257,-4.7489,-4.772,-4.6985,-4.6568,-4.646,-4.6577,-4.6176,-4.609,-4.6215,-4.6191,-4.624,-4.6289,-4.6289,-4.6289,-4.6289,-4.6289,-4.6289,-4.6289,-4.6289,-4.621,-4.6212,-5.0856,0.0,0.0,0.0,0.0,0.0,0.0,-5.678,0.0,-6.105,0.0,-6.5397,-6.5282,-6.7128,-6.7782,-6.6205,-6.4096,-6.2213,-6.0714,-6.0083,-5.937,-5.8472,-5.85,-5.8121,-5.7192,-5.5599,-5.4314,-5.3482,-5.1152,-4.9973,-4.9883,-4.7836,0.0,0.0,0.0,0.0,0.0,-4.6211,-4.6282,-4.6351,-4.5975,-4.5979,-4.6215,-4.6124,-4.623,-4.6488,-4.7106,-4.7303,-4.7229,-4.7345,-4.7861,-4.8487,-4.8596,-4.9163,-4.976,-4.9913,-5.099,-5.2144,-5.2281,-5.3591,-5.4946,-5.4942,-5.5661,-5.6206,-5.5311,-5.5084,-5.5325,-5.604,-5.5596,-5.5731,-5.7811,-5.5576,-5.2647,-5.0183,-4.8355,-4.724,-4.724,-4.6471,-4.597,-4.6086,-4.6663,0.0,-4.6009,-4.5817,-4.5432,-4.4547,-4.5201,-4.5278,-4.4547,-4.524,-4.5624,-4.5624,-4.7278,-4.7874,-4.7276,-4.8831,-4.9311,-4.8694,-4.7791,-4.7397,-4.7369,-4.6512,-4.624,-4.6437,-4.6244,-4.6241,-4.6445,-4.6367,-4.6289,-4.6289,-4.6289,-4.6289,-4.6289,-4.6289,-4.6289,-4.6366,0.0,0.0,0.0,0.0,0.0,-5.9704,-6.1666,-6.2589,-6.3512,-6.482,-6.7782,-6.9552,-6.8898,-6.8552,-6.7975,-6.6974,-6.5269,-6.3822,-6.2823,-6.2043,-6.1081,-5.9824,-6.0147,-5.9616,-5.7989,-5.6709,-5.5484,-5.4289,-5.1456,-4.9706,-4.8996,-4.7568,0.0,0.0,0.0,0.0,-4.5724,-4.584,-4.5916,-4.5936,-4.6009,-4.643,-4.7029,-4.7101,-4.7444,-4.7932,-4.8068,-4.7738,-4.7328,-4.8043,-4.8291,-4.8446,-4.9163,-4.9413,-4.9625,-5.0471,-5.0894,-5.1164,-5.1316,-5.2646,-5.4034,-5.4039,-5.5311,-5.6484,-5.6206,-5.6156,-5.6157,-5.6169,-5.6083,-5.5877,-5.5631,-5.3934,-5.2214,-5.1029,-4.9875,-4.9105,-4.8971,-4.8202,-4.7932,-4.8663,-4.8335,-4.7989,-4.7855,-4.7124,-4.6355,-4.5603,-4.568,-4.5719,-4.5642,-4.5757,-4.5834,-4.5834,-4.7524,-4.8354,-4.8279,-4.9276,-4.9782,-4.9714,-4.8839,-4.8494,-4.8588,-4.769,-4.7725,-4.834,-4.6892,-4.6671,-4.7305,-4.6601,-4.6289,-4.6289,-4.6289,-4.6289,-4.6289,-4.6289,-4.6758,-4.7226,0.0,0.0,0.0,0.0,0.0,0.0,0.0,-6.6744,-6.7398,-6.6051,-6.7282,-6.8167,-6.7782,-6.8129,-6.8244,-6.7821,-6.582,-6.4436,-6.4012,-6.3205,-6.2246,-6.1172,-6.1363,-6.0866,-5.9588,-5.8145,-5.6843,-5.5782,-5.2609,-5.0418,-4.9171,-4.7665,-4.6509,-4.5796,0.0,-4.6681,0.0,-4.7181,-4.724,-4.7296,-4.7317,-4.7617,-4.7967,-4.7902,-4.8049,-4.8414,-4.924,-4.9317,-4.899,-4.899,-4.949,-5.0144,-5.0164,-5.0433,-5.0818,-5.1337,-5.1838,-5.2338,-5.3012,-5.4128,-5.5171,-5.5236,-5.5938,-5.6562,-5.6523,-5.6484,-5.6482,-5.6406,-5.6397,-5.6123,-5.526,-5.4016,-5.3136,-5.3186,-5.1595,-5.0606,-5.1376,-5.0029,-4.8951,-4.8856,-4.8605,-4.8039,-4.7157,-4.7041,-4.6738,-4.5928,-4.5834,-4.5867,-4.5906,-4.5906,-4.5906,-4.5906,-4.8038,-4.8987,-4.8605,-5.0323,-5.1037,-5.0711,-4.9893,-4.9508,-4.9531,-4.8672,-4.8516,-4.8867,-4.8008,-4.7891,-4.8242,-4.7812,-4.7656,-4.7656,-4.7656,-4.7383,-4.7031,-4.7461,-4.7617,-4.7539,0.0,-5.7396,0.0,0.0,-6.3051,-6.5205,-6.6859,-6.9398,-7.0167,-6.7321,-6.6974,-6.6974,-6.6974,-6.7975,-6.8667,-6.8667,-6.6667,-6.5243,-6.4897,-6.4243,-6.3435,-6.2459,-6.2421,-6.2113,-6.1458,-5.9781,-5.8434,-5.7357,-5.4126,-5.1548,-4.9606,-4.8039,-4.6815,-4.5928,0.0,-4.7851,-4.8514,-4.8736,-4.899,-4.9255,-4.9133,-4.927,-4.9433,-4.9221,-4.9221,-4.949,-5.0779,-5.1241,-5.1125,-5.0433,-5.1087,-5.2087,-5.1433,-5.1702,-5.2202,-5.2165,-5.2781,-5.3649,-5.4381,-5.5365,-5.6185,-5.6312,-5.6445,-5.6601,-5.6601,-5.6601,-5.6601,-5.6601,-5.6601,-5.6328,-5.5469,-5.4961,-5.4687,-5.4805,-5.3351,-5.2459,-5.3086,-5.1683,-5.0105,-4.8789,-4.889,-4.8304,-4.638,-4.6872,-4.6911,-4.6061,-4.597,-4.5969,-4.5981,-4.5988,-4.5988,-4.5988,-4.8334,-4.943,-4.9019,-5.1177,-5.2053,-5.168,-5.0859,-5.0547,-5.0703,-4.9844,-4.9648,-4.9961,-4.9414,-4.9062,-4.8906,-4.8906,-4.8906,-4.8906,-4.8906,-4.8476,-4.7969,-4.8633,-4.8594,-4.8164,0.0,0.0,0.0,0.0,0.0,-6.8667,-6.7282,-6.9937,-7.1668,-7.0591,-7.0437,-7.0437,-7.0437,-6.9937,-6.959,-6.959,-6.8629,-6.7398,-6.5859,-6.5705,-6.4974,-6.3498,-6.346,-6.3484,-6.3531,-6.1905,-6.0204,-5.8543,-5.5917,-5.2954,-4.976,-4.88,-4.7495,-4.5969,-4.7651,-4.8438,-4.8574,-4.9459,-5.0331,-5.1073,-5.1128,-5.146,-5.197,-5.1951,-5.2259,-5.2779,-5.2895,-5.2972,-5.2933,-5.2856,-5.2972,-5.3087,-5.301,-5.3107,-5.3128,-5.2473,-5.2974,-5.3619,-5.3074,-5.4134,-5.5425,-5.5429,-5.6015,-5.6601,-5.6601,-5.6601,-5.6601,-5.6601,-5.6601,-5.6328,-5.5469,-5.6523,-5.6719,-5.4297,-5.5037,-5.5083,-5.2746,-5.2884,-5.2373,-4.9959,-5.0426,-4.999,-4.7491,-4.743,-4.7183,-4.6331,-4.6155,-4.6123,-4.6246,-4.6248,-4.6248,-4.6248,-4.8045,-4.9333,-5.0033,-5.1008,-5.1872,-5.2578,-5.1719,-5.1719,-5.2422,-5.1562,-5.2031,-5.3398,-5.1094,-4.9648,-4.8906,-4.8906,-4.8906,-4.8906,-4.8906,-4.8867,-4.8789,-4.8867,-4.9336,-4.9961,0.0,0.0,0.0,0.0,0.0,0.0,0.0,-7.2091,-7.2668,-7.1783,-7.1206,-7.0898,-7.0898,-7.0167,-6.9744,-6.9783,-6.8936,-6.8205,-6.7705,-6.7654,-6.7116,-6.6101,-6.6051,-6.5597,-6.4605,-6.3929,-6.2244,-5.9481,-5.7963,-5.5449,-5.2146,-5.0301,-4.8805,-4.7787,-4.9466,-5.052,-5.1105,-5.2584,-5.3065,-5.2961,-5.3431,-5.3455,-5.3195,-5.3121,-5.3241,-5.351,-5.4031,-5.4223,-5.43,-5.4839,-5.4608,-5.4031,-5.3492,-5.3762,-5.4262,-5.4053,-5.4265,-5.4636,-5.4974,-5.5547,-5.6094,-5.6094,-5.6328,-5.6601,-5.6601,-5.6601,-5.6601,-5.6601,-5.6601,-5.6484,-5.6133,-5.6211,-5.6328,-5.6289,-5.5976,-5.5506,-5.4853,-5.4216,-5.2835,-5.0162,-4.9843,-4.901,-4.6915,-4.6805,-4.6904,-4.7086,-4.6534,-4.6236,-4.6289,-4.6289,-4.6289,-4.6289,-4.8008,-4.9062,-4.9414,-5.0742,-5.1562,-5.1914,-5.2109,-5.2344,-5.2695,-5.2891,-5.3359,-5.3945,-5.293,-5.2266,-5.1953,-5.1953,-5.1953,-5.1953,-5.1953,-5.1641,-5.125,-5.1758,-5.1836,-5.1797,-6.6551,0.0,-6.7282,0.0,-7.0552,-7.1283,-7.3206,-7.3707,-7.3553,-7.2706,-7.2052,-7.1552,-7.1321,-7.0783,-7.0591,-7.1002,-6.9937,-6.936,-6.9629,-6.9331,-6.8838,-6.8167,-6.8123,-6.7592,-6.6369,-6.6143,-6.4575,-6.1642,-6.0504,-5.8247,-5.4957,-5.264,-5.1131,-5.0469,-5.2187,-5.3281,-5.3945,-5.543,-5.5859,-5.5547,-5.582,-5.5547,-5.492,-5.4547,-5.4397,-5.4434,-5.507,-5.5264,-5.5379,-5.5998,-5.5731,-5.5111,-5.4417,-5.4728,-5.5318,-5.517,-5.5316,-5.5641,-5.6083,-5.6406,-5.6601,-5.6601,-5.6601,-5.6601,-5.6601,-5.6601,-5.6601,-5.6601,-5.6601,-5.6601,-5.6601,-5.6328,-5.6289,-5.7031,-5.6523,-5.5898,-5.539,-5.4765,-5.3292,-5.0336,-4.9763,-4.8876,-4.6862,-4.6694,-4.6836,-4.7187,-4.6641,-4.6406,-4.668,-4.6445,-4.6406,-4.668,-4.8125,-4.9023,-4.9297,-5.0703,-5.1523,-5.1797,-5.2422,-5.2969,-5.3476,-5.4375,-5.4609,-5.4375,-5.4375,-5.4258,-5.3984,-5.3984,-5.3984,-5.3984,-5.3984,-5.3633,-5.3203,-5.4062,-5.3984,-5.3555,-6.8052,-6.9706,-7.1091,-7.2014,-7.4245,-7.5361,-7.3745,-7.4168,-7.4399,-7.3591,-7.3476,-7.3129,-7.2283,-7.2168,-7.2591,-7.3658,-7.2195,-7.1245,-7.1464,-7.0641,-6.986,-6.9219,-6.9194,-6.9239,-6.9335,-6.8555,-6.7305,-6.5547,-6.3789,-6.1211,-5.7812,-5.6054,-5.4765,-5.4023,-5.5742,-5.6523,-5.6601,-5.75,-5.8359,-5.9062,-5.8203,-5.7773,-5.7578,-5.6679,-5.6289,-5.6191,-5.6191,-5.6191,-5.6191,-5.6191,-5.6265,-5.6367,-5.6201,-5.6265,-5.6225,-5.5357,-5.5808,-5.6406,-5.5547,-5.5937,-5.6601,-5.6601,-5.6601,-5.6601,-5.6601,-5.6601,-5.6601,-5.6601,-5.6601,-5.6601,-5.6601,-5.7305,-5.7305,-5.5625,-5.6758,-5.668,-5.3242,-5.4219,-5.4023,-5.0586,-5.0898,-5.0351,-4.7812,-4.7578,-4.7226,-4.6367,-4.6328,-4.668,-4.7539,-4.6758,-4.668,-4.7578,-4.8437,-4.9297,-5.0195,-5.0976,-5.1836,-5.2695,-5.2695,-5.3594,-5.5312,-5.6172,-5.6094,-5.5273,-5.5273,-5.4805,-5.3984,-5.3984,-5.3984,-5.3984,-5.3984,-5.3984,-5.4101,-5.4961,-5.5273,-5.5273,-6.9898,-7.1475,-7.2745,-7.3053,-7.4707,-7.5822,-7.5284,-7.5438,-7.5284,-7.4437,-7.4861,-7.4861,-7.4014,-7.3399,-7.3245,-7.3696,-7.2734,-7.222,-7.2482,-7.1702,-7.1183,-7.1105,-7.1113,-7.0855,-7.0312,-6.9453,-6.8203,-6.6484,-6.4726,-6.1836,-5.789,-5.7344,-5.6601,-5.5859,-5.7578,-5.8672,-5.9258,-6.0117,-6.0312,-6.0,-5.9726,-5.9258,-5.8633,-5.7734,-5.7418,-5.7285,-5.6696,-5.6462,-5.6454,-5.6485,-5.6513,-5.6536,-5.6502,-5.6486,-5.6478,-5.6205,-5.6344,-5.6523,-5.625,-5.6406,-5.6601,-5.6601,-5.6601,-5.6601,-5.6601,-5.6601,-5.6601,-5.6601,-5.6601,-5.6601,-5.6601,-5.6836,-5.6836,-5.6289,-5.664,-5.6211,-5.3906,-5.3555,-5.2461,-4.9648,-4.9531,-4.9141,-4.7734,-4.7617,-4.7734,-4.8047,-4.6953,-4.6406,-4.6719,-4.6992,-4.7305,-4.7578,-4.9023,-5.0195,-5.1016,-5.1875,-5.2734,-5.3594,-5.418,-5.5078,-5.6211,-5.6484,-5.6445,-5.6172,-5.6172,-5.6015,-5.5781,-5.5781,-5.5781,-5.582,-5.6445,-5.664,-5.6758,-5.7656,-5.7969,-5.7969,-7.0744,-7.2052,-7.3129,-7.3437,-7.463,-7.5515,-7.5515,-7.5515,-7.5322,-7.4784,-7.4899,-7.4976,-7.4745,-7.3976,-7.3707,-7.4158,-7.3168,-7.2612,-7.2912,-7.2368,-7.1991,-7.1825,-7.1871,-7.164,-7.1094,-7.0625,-6.9531,-6.7851,-6.5781,-6.3086,-5.9805,-5.9805,-5.9336,-5.8555,-5.9648,-6.043,-6.0937,-6.1484,-6.1406,-6.0859,-6.0547,-6.0117,-5.957,-5.8711,-5.8203,-5.7812,-5.7265,-5.7109,-5.7108,-5.7099,-5.7099,-5.7094,-5.7094,-5.7095,-5.7031,-5.6719,-5.6836,-5.7031,-5.668,-5.6836,-5.6992,-5.668,-5.6836,-5.6992,-5.668,-5.6601,-5.6601,-5.6601,-5.6601,-5.6601,-5.6601,-5.6601,-5.6601,-5.6601,-5.6328,-5.5508,-5.375,-5.2773,-5.1523,-4.9609,-4.9375,-4.918,-4.8633,-4.8867,-4.8867,-4.8437,-4.8008,-4.7461,-4.6836,-4.7305,-4.7891,-4.8555,-4.9922,-5.1211,-5.2383,-5.293,-5.3633,-5.4492,-5.5351,-5.6055,-5.6601,-5.6953,-5.7109,-5.7109,-5.7422,-5.7578,-5.7578,-5.7578,-5.7578,-5.7617,-5.8164,-5.8398,-5.8476,-5.9336,-5.9648,-5.9648,-7.0744,-7.1591,-7.2476,-7.336,-7.413,-7.463,-7.4707,-7.4668,-7.463,-7.463,-7.3976,-7.3783,-7.4553,-7.3899,-7.3783,-7.4735,-7.337,-7.2558,-7.2788,-7.2701,-7.2259,-7.152,-7.1618,-7.1675,-7.1678,-7.1836,-7.1055,-6.9336,-6.6836,-6.4726,-6.3086,-6.3047,-6.2539,-6.1719,-6.1719,-6.1719,-6.1719,-6.1719,-6.1719,-6.164,-6.082,-6.0508,-6.039,-5.9609,-5.8789,-5.8086,-5.8008,-5.8008,-5.8008,-5.8008,-5.8008,-5.7969,-5.793,-5.7969,-5.789,-5.6953,-5.7305,-5.7812,-5.6992,-5.7383,-5.7812,-5.6992,-5.7383,-5.7773,-5.6953,-5.6719,-5.668,-5.668,-5.664,-5.6601,-5.6601,-5.6601,-5.6562,-5.6523,-5.5781,-5.4609,-5.2851,-5.1875,-5.1016,-5.0195,-5.0195,-5.0273,-5.0195,-5.0937,-5.043,-4.8047,-4.9258,-4.9414,-4.7851,-4.7812,-4.8594,-5.0234,-5.1055,-5.2344,-5.4062,-5.4101,-5.4531,-5.539,-5.6289,-5.668,-5.6719,-5.7578,-5.8008,-5.8047,-5.8867,-5.9219,-5.9219,-5.9219,-5.9219,-5.9219,-5.9258,-5.9297,-5.9375,-6.0195,-6.0508,-6.0508,-7.0591,-7.1591,-7.2476,-7.336,-7.3668,-7.4014,-7.463,-7.4168,-7.3783,-7.3783,-7.363,-7.3591,-7.3783,-7.3014,-7.2591,-7.2822,-7.2629,-7.2531,-7.2572,-7.2056,-7.1695,-7.1502,-7.1523,-7.1547,-7.1555,-7.1073,-7.0078,-6.8476,-6.6562,-6.5039,-6.3984,-6.332,-6.2539,-6.1719,-6.1719,-6.1719,-6.1719,-6.1719,-6.1719,-6.168,-6.1484,-6.1406,-6.1289,-6.043,-6.0,-5.9726,-5.9101,-5.8906,-5.8906,-5.8906,-5.8906,-5.8789,-5.8125,-5.8789,-5.9531,-5.8047,-5.8203,-5.8867,-5.8633,-5.875,-5.8828,-5.8633,-5.875,-5.8828,-5.8633,-5.8086,-5.7578,-5.7578,-5.707,-5.6601,-5.6601,-5.6601,-5.6367,-5.5703,-5.4883,-5.3711,-5.1953,-5.1016,-5.0156,-4.9297,-5.0351,-5.0859,-5.0273,-5.0937,-5.1133,-5.0547,-4.9687,-4.9336,-4.957,-5.0156,-5.0703,-5.1094,-5.1953,-5.3242,-5.4961,-5.5,-5.543,-5.6289,-5.7187,-5.7578,-5.7617,-5.8476,-5.8906,-5.8906,-5.9101,-5.9219,-5.9219,-5.9219,-5.9219,-5.9258,-5.9883,-6.0117,-6.0234,-6.1094,-6.1406,-6.1406,-7.009,-7.1014,-7.186,-7.2745,-7.2899,-7.3053,-7.3476,-7.3206,-7.2899,-7.2899,-7.2552,-7.2476,-7.286,-7.2129,-7.1591,-7.1591,-7.2052,-7.2206,-7.1794,-7.1822,-7.1629,-7.1245,-7.1283,-7.1351,-7.1358,-7.1116,-7.0208,-6.8672,-6.6914,-6.5469,-6.4297,-6.3828,-6.293,-6.1719,-6.1719,-6.1719,-6.1719,-6.1719,-6.1719,-6.1719,-6.1719,-6.1719,-6.164,-6.1172,-6.0742,-6.0351,-5.9922,-5.9765,-5.9765,-5.9765,-5.9765,-5.9687,-5.918,-5.9687,-6.0234,-5.9297,-5.9375,-5.9687,-5.9297,-5.9453,-5.9765,-5.9765,-5.9453,-5.9219,-5.9219,-5.8828,-5.8476,-5.8476,-5.8125,-5.7773,-5.7773,-5.7461,-5.6797,-5.5508,-5.4219,-5.2656,-5.0547,-4.9883,-4.957,-4.9492,-5.0625,-5.1523,-5.1914,-5.2695,-5.2851,-5.2031,-5.1523,-5.125,-5.1328,-5.1758,-5.1992,-5.1992,-5.3242,-5.4531,-5.5898,-5.6289,-5.6719,-5.7187,-5.8086,-5.8476,-5.8515,-5.9375,-5.9765,-5.9765,-6.0156,-6.0351,-6.0312,-5.9922,-5.9961,-6.0351,-6.039,-6.0625,-6.1055,-6.1523,-6.1719,-6.1719,-6.9513,-7.0244,-7.1014,-7.2014,-7.2091,-7.2052,-7.2168,-7.2091,-7.2014,-7.2014,-7.136,-7.1168,-7.1898,-7.1321,-7.0898,-7.0898,-7.1591,-7.1668,-7.0937,-7.1591,-7.1668,-7.0937,-7.1052,-7.1129,-7.1129,-7.1091,-7.037,-6.8961,-6.7372,-6.5779,-6.4258,-6.4258,-6.3359,-6.1719,-6.1719,-6.1719,-6.1719,-6.1719,-6.1719,-6.1719,-6.1719,-6.1719,-6.1719,-6.1719,-6.125,-6.0586,-6.0586,-6.0586,-6.0586,-6.0586,-6.0586,-6.0586,-6.043,-6.0508,-6.0586,-6.043,-6.0508,-6.0469,-5.9765,-6.0078,-6.0586,-6.0586,-6.0078,-5.957,-5.957,-5.9492,-5.9375,-5.9375,-5.9297,-5.914,-5.9023,-5.8398,-5.7305,-5.539,-5.3633,-5.1641,-4.9258,-4.9023,-4.9375,-5.0117,-5.125,-5.2539,-5.3867,-5.4805,-5.4687,-5.3203,-5.3672,-5.3711,-5.3125,-5.3086,-5.3086,-5.3086,-5.4531,-5.5781,-5.6797,-5.7539,-5.7969,-5.8125,-5.8984,-5.9375,-5.9414,-6.0234,-6.0586,-6.0625,-6.1367,-6.1719,-6.164,-6.0898,-6.1015,-6.164,-6.0898,-6.1055,-6.1719,-6.1719,-6.1719,-6.1719,-6.9398,-6.9821,-7.0398,-7.1937,-7.1591,-7.136,-7.2091,-7.1552,-7.1091,-7.1091,-7.0975,-7.0937,-7.1091,-7.0975,-7.0898,-7.0898,-7.1014,-7.1052,-7.0898,-7.1014,-7.1052,-7.0898,-7.0937,-7.0937,-7.0937,-6.9706,-6.8655,-6.7922,-6.6917,-6.5627,-6.414,-6.414,-6.3242,-6.1719,-6.1719,-6.1719,-6.1719,-6.1719,-6.1719,-6.1719,-6.1719,-6.1719,-6.1719,-6.1719,-6.1601,-6.1484,-6.1484,-6.1484,-6.1484,-6.1484,-6.1484,-6.1367,-6.0625,-6.0898,-6.1367,-6.0625,-6.0937,-6.1484,-6.1367,-6.1406,-6.1484,-6.1484,-6.1406,-6.1328,-6.1328,-6.0742,-6.0195,-6.0195,-5.9687,-5.8984,-5.8242,-5.8008,-5.7109,-5.4609,-5.2734,-5.0976,-4.9141,-4.9531,-5.0039,-5.0195,-5.2851,-5.4492,-5.4062,-5.4805,-5.5195,-5.4922,-5.4336,-5.4258,-5.4844,-5.4883,-5.4883,-5.4883,-5.5156,-5.6055,-5.7695,-5.7812,-5.8281,-5.9023,-5.9805,-6.0195,-6.0234,-6.1094,-6.1484,-6.1523,-6.164,-6.1719,-6.168,-6.1562,-6.1562,-6.168,-6.1562,-6.1562,-6.1719,-6.1719,-6.1719,-6.1719,-6.7714,-6.8441,-6.9314,-7.0612,-7.086,-7.1052,-7.1437,-7.1168,-7.0898,-7.0898,-7.0898,-7.0898,-7.0898,-7.0898,-7.0898,-7.0898,-7.0898,-7.0898,-7.0898,-7.0898,-7.0898,-7.0898,-7.0898,-7.0706,-7.0244,-6.909,-6.8167,-6.7539,-6.6664,-6.5678,-6.4623,-6.4177,-6.333,-6.2265,-6.1797,-6.164,-6.1719,-6.1719,-6.1719,-6.1719,-6.1719,-6.1719,-6.1719,-6.1719,-6.1719,-6.1719,-6.1719,-6.1719,-6.1719,-6.1719,-6.1719,-6.164,-6.1211,-6.1367,-6.1601,-6.1211,-6.1367,-6.1719,-6.1719,-6.1719,-6.1719,-6.1719,-6.1719,-6.1719,-6.1719,-6.1406,-6.1094,-6.1094,-6.0781,-6.043,-6.0039,-5.9219,-5.8047,-5.6367,-5.3476,-5.1133,-5.0351,-5.0234,-5.0547,-5.1445,-5.3789,-5.5312,-5.539,-5.5742,-5.6172,-5.668,-5.5469,-5.5273,-5.664,-5.582,-5.5508,-5.5976,-5.6015,-5.6601,-5.789,-5.8359,-5.9023,-5.9844,-6.0703,-6.1094,-6.1094,-6.1523,-6.1719,-6.1719,-6.1719,-6.1719,-6.164,-6.1172,-6.1289,-6.164,-6.1172,-6.1289,-6.1719,-6.1719,-6.1719,-6.1719,-6.6083,-6.6961,-6.7867,-6.8893,-6.9719,-7.0286,-7.0412,-7.0594,-7.0777,-7.0898,-7.0898,-7.0898,-7.0898,-7.0898,-7.0898,-7.0898,-7.0898,-7.0898,-7.0898,-7.0898,-7.0898,-7.0898,-7.0706,-7.0244,-6.9436,-6.8552,-6.7744,-6.7051,-6.6359,-6.5705,-6.5013,-6.4346,-6.357,-6.2686,-6.2049,-6.1713,-6.164,-6.164,-6.168,-6.1719,-6.1719,-6.1719,-6.1719,-6.1719,-6.1719,-6.1719,-6.1719,-6.1719,-6.1719,-6.1719,-6.1719,-6.1719,-6.1719,-6.1719,-6.1719,-6.1719,-6.1719,-6.1719,-6.1719,-6.1719,-6.1719,-6.1719,-6.1719,-6.1719,-6.1719,-6.1719,-6.1719,-6.1719,-6.1719,-6.164,-6.1445,-6.0351,-5.9062,-5.7812,-5.4609,-5.2187,-5.1758,-5.1523,-5.1875,-5.3164,-5.5039,-5.6406,-5.6875,-5.7109,-5.7383,-5.7851,-5.6836,-5.6797,-5.8125,-5.6758,-5.6133,-5.6601,-5.6601,-5.7031,-5.789,-5.875,-5.9609,-6.039,-6.1289,-6.1719,-6.1719,-6.1719,-6.1719,-6.1719,-6.1719,-6.1719,-6.164,-6.0976,-6.1094,-6.164,-6.0976,-6.1094,-6.1719,-6.1719,-6.1719,-6.1719,-6.5351,-6.5729,-6.6069,-6.6938,-6.777,-6.8451,-6.8984,-6.9666,-7.033,-7.0805,-7.0898,-7.0898,-7.0898,-7.0898,-7.0898,-7.0898,-7.0898,-7.0898,-7.0898,-7.0898,-7.0898,-7.0898,-7.0206,-6.9398,-6.8513,-6.7628,-6.6821,-6.6013,-6.5936,-6.5551,-6.4834,-6.4768,-6.3954,-6.2523,-6.2444,-6.2109,-6.1523,-6.1523,-6.1601,-6.1719,-6.1719,-6.1719,-6.1719,-6.1719,-6.1719,-6.1719,-6.1719,-6.1719,-6.1719,-6.1719,-6.1719,-6.1719,-6.1719,-6.1719,-6.1719,-6.1719,-6.1719,-6.1719,-6.1719,-6.1719,-6.1719,-6.1719,-6.1719,-6.1719,-6.1719,-6.1719,-6.1719,-6.1719,-6.1719,-6.1445,-6.0625,-6.039,-5.9531,-5.7109,-5.5742,-5.4453,-5.2812,-5.3945,-5.4961,-5.5078,-5.7344,-5.8633,-5.789,-5.8515,-5.8711,-5.7969,-5.8515,-5.8984,-5.9101,-5.8203,-5.7383,-5.6601,-5.6601,-5.7031,-5.789,-5.875,-5.9609,-6.039,-6.1289,-6.1719,-6.1719,-6.1719,-6.1719,-6.1719,-6.1719,-6.1719,-6.1719,-6.164,-6.164,-6.168,-6.164,-6.164,-6.1719,-6.1719,-6.1719,-6.1719,-6.3443,-6.3749,-6.4345,-6.5839,-6.6327,-6.693,-6.8224,-6.8261,-6.8671,-7.0178,-6.9973,-6.9949,-7.0794,-7.0898,-7.0898,-7.0898,-7.0898,-7.0898,-7.0898,-7.0898,-7.0898,-7.0898,-7.0129,-6.9283,-6.8436,-6.7552,-6.6705,-6.5897,-6.5897,-6.5743,-6.5474,-6.4936,-6.4436,-6.3883,-6.2856,-6.2271,-6.208,-6.1607,-6.1451,-6.1562,-6.1562,-6.164,-6.1719,-6.1719,-6.1719,-6.1719,-6.1719,-6.1719,-6.1719,-6.1719,-6.1719,-6.1719,-6.1719,-6.1719,-6.1719,-6.1719,-6.1719,-6.1719,-6.1719,-6.1719,-6.1719,-6.1719,-6.1719,-6.1719,-6.1719,-6.1719,-6.1719,-6.1719,-6.1719,-6.1601,-6.1289,-6.0742,-6.0273,-5.9844,-5.7695,-5.625,-5.668,-5.6367,-5.6328,-5.6836,-5.8281,-5.9062,-5.875,-5.9023,-5.9258,-5.9453,-5.9297,-5.9414,-5.9922,-5.914,-5.832,-5.7422,-5.7422,-5.7812,-5.8711,-5.9023,-5.9883,-6.1211,-6.1523,-6.1719,-6.1719,-6.1719,-6.1719,-6.1719,-6.1719,-6.1719,-6.1719,-6.1719,-6.1719,-6.1719,-6.1719,-6.1719,-6.1719,-6.1719,-6.1719,-6.1719,-6.1974,-6.2288,-6.2915,-6.4481,-6.4918,-6.5515,-6.6879,-6.6849,-6.7237,-6.8899,-6.896,-6.9266,-7.0162,-7.0651,-7.0898,-7.0898,-7.0898,-7.0783,-7.0552,-7.0283,-7.0244,-7.0514,-6.9744,-6.8898,-6.8013,-6.7167,-6.6436,-6.5897,-6.5897,-6.5897,-6.5897,-6.5282,-6.4936,-6.468,-6.3267,-6.256,-6.239,-6.1578,-6.1304,-6.1439,-6.1447,-6.1514,-6.164,-6.164,-6.164,-6.1719,-6.1719,-6.1719,-6.1719,-6.1719,-6.1719,-6.1719,-6.1719,-6.1719,-6.1719,-6.1719,-6.1719,-6.1719,-6.1719,-6.1719,-6.1719,-6.1719,-6.1719,-6.1719,-6.1719,-6.1719,-6.1719,-6.1719,-6.1719,-6.1719,-6.1719,-6.1211,-6.0898,-6.125,-5.9336,-5.8125,-5.9062,-5.8398,-5.8008,-5.8594,-5.9453,-5.9883,-5.9609,-5.9805,-6.0117,-6.039,-6.0156,-6.0117,-6.039,-5.9883,-5.918,-5.8359,-5.832,-5.8711,-5.957,-5.9336,-5.9883,-6.1289,-6.1562,-6.1719,-6.1719,-6.1719,-6.1719,-6.1719,-6.1719,-6.1719,-6.1719,-6.1719,-6.1719,-6.1719,-6.1719,-6.1719,-6.1719,-6.1719,-6.1719,-6.1719,-6.1263,-6.1594,-6.1851,-6.2658,-6.3503,-6.4267,-6.4815,-6.5576,-6.6282,-6.6821,-6.8063,-6.8869,-6.8869,-7.0056,-7.0898,-7.0898,-7.0898,-7.0552,-6.9744,-6.8898,-6.8783,-6.9629,-6.8859,-6.7975,-6.7128,-6.632,-6.5897,-6.5897,-6.5897,-6.5897,-6.5897,-6.5897,-6.5436,-6.4589,-6.3705,-6.2959,-6.2252,-6.1381,-6.1112,-6.1312,-6.1298,-6.1393,-6.1484,-6.1484,-6.1562,-6.1719,-6.1719,-6.1719,-6.1719,-6.1719,-6.1719,-6.1719,-6.1719,-6.1719,-6.1719,-6.1719,-6.1719,-6.1719,-6.1719,-6.1719,-6.1719,-6.1719,-6.1719,-6.1719,-6.1719,-6.1719,-6.1719,-6.1719,-6.1719,-6.1719,-6.1719,-6.1719,-6.1406,-6.0547,-6.039,-6.0117,-5.9336,-5.9922,-6.039,-6.039,-6.1172,-6.1367,-6.0508,-6.1172,-6.1328,-6.0469,-6.1211,-6.1328,-6.0469,-6.039,-6.0039,-5.9219,-5.9219,-5.9609,-6.039,-5.9609,-5.9609,-6.043,-6.1289,-6.1719,-6.1719,-6.1719,-6.1719,-6.1719,-6.1719,-6.1719,-6.1719,-6.1719,-6.1719,-6.1719,-6.1719,-6.1719,-6.1719,-6.1719,-6.1719,-6.1719,-6.0566,-6.119,-6.1851,-6.2658,-6.3025,-6.3443,-6.4242,-6.4021,-6.4372,-6.6089,-6.6721,-6.72,-6.7926,-6.8852,-6.9344,-6.9179,-6.9167,-6.9052,-6.8821,-6.8552,-6.8244,-6.7898,-6.7628,-6.7667,-6.8013,-6.6628,-6.5897,-6.5897,-6.5897,-6.5897,-6.5897,-6.5897,-6.5743,-6.5474,-6.4589,-6.3743,-6.2935,-6.2127,-6.1512,-6.1074,-6.1095,-6.1214,-6.1368,-6.1344,-6.137,-6.1409,-6.1409,-6.1486,-6.1562,-6.1562,-6.1601,-6.1797,-6.2422,-6.2187,-6.1836,-6.2422,-6.2187,-6.1719,-6.1719,-6.1719,-6.1719,-6.1719,-6.1719,-6.1719,-6.1719,-6.1719,-6.1719,-6.1719,-6.1719,-6.1719,-6.1719,-6.1719,-6.1601,-6.1367,-6.1328,-6.1211,-6.0976,-6.1172,-6.1328,-6.1328,-6.1523,-6.1601,-6.1328,-6.1562,-6.1601,-6.1328,-6.1562,-6.1601,-6.1328,-6.1328,-6.0937,-6.0078,-6.0039,-6.0156,-6.039,-6.0156,-6.0469,-6.1328,-6.1562,-6.1719,-6.1719,-6.1719,-6.1719,-6.1719,-6.1719,-6.1719,-6.1719,-6.1719,-6.1719,-6.1719,-6.1719,-6.1719,-6.1719,-6.1719,-6.1719,-6.1719,-5.9795,-6.0309,-6.1006,-6.2144,-6.2328,-6.2622,-6.3466,-6.3135,-6.3284,-6.4641,-6.5291,-6.5839,-6.6447,-6.7604,-6.8247,-6.8071,-6.7972,-6.8052,-6.8398,-6.7782,-6.7475,-6.7628,-6.6974,-6.6859,-6.7398,-6.6436,-6.5897,-6.5897,-6.5897,-6.5897,-6.5897,-6.5897,-6.5897,-6.5859,-6.4974,-6.4128,-6.3243,-6.2435,-6.182,-6.1435,-6.1435,-6.1535,-6.1697,-6.1715,-6.153,-6.1297,-6.1297,-6.1344,-6.147,-6.1777,-6.1954,-6.211,-6.2657,-6.2256,-6.1719,-6.2265,-6.207,-6.1719,-6.1719,-6.1719,-6.1719,-6.1719,-6.1719,-6.1719,-6.1719,-6.1719,-6.1719,-6.1719,-6.1719,-6.1719,-6.1719,-6.1719,-6.1719,-6.1719,-6.1719,-6.1719,-6.1719,-6.1719,-6.1719,-6.1719,-6.1719,-6.1719,-6.1719,-6.1719,-6.1719,-6.1719,-6.1719,-6.1719,-6.1719,-6.1719,-6.1445,-6.0937,-6.0898,-6.0898,-6.0898,-6.0898,-6.1172,-6.1719,-6.1719,-6.1719,-6.1719,-6.1719,-6.1719,-6.1719,-6.1719,-6.1719,-6.1719,-6.1719,-6.1719,-6.1719,-6.1719,-6.1719,-6.1719,-6.1719,-6.1719,-6.1719,-5.9061,-5.9281,-5.9795,-6.1227,-6.1594,-6.1924,-6.2585,-6.2768,-6.2805,-6.2805,-6.3965,-6.4823,-6.4793,-6.6333,-6.7326,-6.7316,-6.7075,-6.7295,-6.8129,-6.6744,-6.659,-6.8129,-6.6705,-6.5897,-6.5897,-6.5897,-6.5897,-6.5897,-6.5897,-6.5897,-6.5897,-6.5897,-6.5897,-6.5859,-6.5051,-6.4243,-6.3358,-6.2551,-6.2204,-6.2204,-6.2127,-6.2228,-6.2367,-6.2329,-6.1882,-6.1381,-6.1304,-6.1266,-6.1412,-6.2222,-6.251,-6.2497,-6.2575,-6.2118,-6.1594,-6.1599,-6.1638,-6.1677,-6.1677,-6.1679,-6.1719,-6.1797,-6.1797,-6.1797,-6.1719,-6.1719,-6.1719,-6.1719,-6.1719,-6.1719,-6.1719,-6.1719,-6.1719,-6.1719,-6.1719,-6.1719,-6.1719,-6.1719,-6.1719,-6.1719,-6.1719,-6.1719,-6.1719,-6.1719,-6.1719,-6.1719,-6.1719,-6.1719,-6.1719,-6.1719,-6.1719,-6.1719,-6.1719,-6.1719,-6.1719,-6.1719,-6.1719,-6.1719,-6.1719,-6.1719,-6.1719,-6.1719,-6.1719,-6.1719,-6.1719,-6.1719,-6.1719,-6.1719,-6.1719,-6.1719,-6.1719,-6.1719,-6.1719,-6.1719,-6.1719,-6.1719,-5.9061,-5.9722,-6.0272,-6.0603,-6.1704,-6.2401,-6.1924,-6.2401,-6.2805,-6.2805,-6.3689,-6.4203,-6.3922,-6.478,-6.5339,-6.5123,-6.5346,-6.5791,-6.6372,-6.609,-6.6051,-6.6436,-6.609,-6.5897,-6.5897,-6.5897,-6.5897,-6.5897,-6.5897,-6.5897,-6.5897,-6.5897,-6.5897,-6.5897,-6.5705,-6.5128,-6.4282,-6.3397,-6.3051,-6.2974,-6.2358,-6.2474,-6.3012,-6.2382,-6.2074,-6.182,-6.1127,-6.0973,-6.1228,-6.2182,-6.2513,-6.2612,-6.3278,-6.2955,-6.2289,-6.2335,-6.1889,-6.1373,-6.1373,-6.1447,-6.1719,-6.2383,-6.2656,-6.2539,-6.1875,-6.1719,-6.1719,-6.1719,-6.1719,-6.1719,-6.1719,-6.1719,-6.1719,-6.1719,-6.1719,-6.1719,-6.1719,-6.1719,-6.1719,-6.1719,-6.1719,-6.1719,-6.1719,-6.1719,-6.1719,-6.1719,-6.1719,-6.1719,-6.1719,-6.1719,-6.1719,-6.1719,-6.1719,-6.1719,-6.1719,-6.1719,-6.1719,-6.1719,-6.1719,-6.1719,-6.1719,-6.1719,-6.1719,-6.1719,-6.1719,-6.1719,-6.1719,-6.1719,-6.1719,-6.1719,-6.1719,-6.1719,-6.1719,-6.1719,-6.1719,-6.1719,-5.8547,-5.8988,-5.9501,-6.0272,-6.1117,-6.1777,-6.2108,-6.2548,-6.2805,-6.2805,-6.3209,-6.3432,-6.3205,-6.3825,-6.4257,-6.437,-6.4833,-6.523,-6.5513,-6.5781,-6.5897,-6.5897,-6.5897,-6.5897,-6.5897,-6.5897,-6.5897,-6.5897,-6.5897,-6.5897,-6.5897,-6.5897,-6.5897,-6.5897,-6.5897,-6.5166,-6.3974,-6.3935,-6.3666,-6.332,-6.3281,-6.3551,-6.382,-6.2974,-6.2435,-6.1973,-6.1089,-6.1358,-6.2166,-6.2694,-6.3155,-6.3578,-6.4037,-6.3368,-6.2397,-6.2432,-6.1923,-6.1363,-6.1772,-6.1934,-6.219,-6.3045,-6.3338,-6.3199,-6.2499,-6.2656,-6.2695,-6.1875,-6.1972,-6.2091,-6.1662,-6.1564,-6.1509,-6.1509,-6.1509,-6.1509,-6.1509,-6.1509,-6.1509,-6.1509,-6.1509,-6.1534,-6.1601,-6.1541,-6.1556,-6.1596,-6.1612,-6.1601,-6.1601,-6.168,-6.1658,-6.1596,-6.1655,-6.168,-6.1601,-6.168,-6.1719,-6.1719,-6.1719,-6.1719,-6.1719,-6.1719,-6.1719,-6.1719,-6.1719,-6.1719,-6.1719,-6.1719,-6.1719,-6.1719,-6.1719,-6.1719,-6.1719,-6.1719,-6.1719,-6.1719,-5.7997,-5.8107,-5.8621,-5.9979,-6.0309,-6.086,-6.2218,-6.2511,-6.2585,-6.2585,-6.2732,-6.2805,-6.2805,-6.3215,-6.368,-6.4217,-6.4626,-6.4866,-6.4965,-6.5446,-6.5781,-6.5781,-6.5833,-6.5897,-6.5897,-6.5897,-6.5897,-6.5897,-6.5897,-6.5897,-6.5897,-6.5897,-6.5897,-6.5897,-6.5897,-6.5089,-6.3782,-6.4205,-6.4051,-6.3551,-6.4012,-6.4243,-6.4282,-6.3435,-6.2666,-6.1973,-6.1089,-6.1781,-6.3128,-6.3435,-6.4012,-6.4589,-6.4589,-6.3729,-6.2637,-6.2367,-6.1882,-6.155,-6.2257,-6.2449,-6.2721,-6.3696,-6.4022,-6.3897,-6.3455,-6.381,-6.3742,-6.218,-6.2328,-6.248,-6.1636,-6.1348,-6.1317,-6.1317,-6.1317,-6.1317,-6.1317,-6.1317,-6.1317,-6.1317,-6.1317,-6.1351,-6.1447,-6.1353,-6.1337,-6.1466,-6.1456,-6.1463,-6.1477,-6.1555,-6.1573,-6.1481,-6.1588,-6.1584,-6.1477,-6.1594,-6.1633,-6.1633,-6.1633,-6.1677,-6.1719,-6.168,-6.168,-6.1719,-6.1719,-6.1719,-6.1719,-6.1719,-6.1719,-6.1719,-6.1719,-6.1719,-6.1719,-6.1719,-6.1719,-6.1719,-5.7997,-5.8547,-5.9134,-5.9318,-5.9942,-6.0493,-6.0713,-6.1337,-6.1741,-6.1741,-6.2365,-6.2805,-6.2805,-6.2855,-6.3121,-6.3637,-6.3766,-6.3978,-6.4444,-6.4971,-6.523,-6.523,-6.5663,-6.5897,-6.5897,-6.5897,-6.5897,-6.5897,-6.5897,-6.5897,-6.5897,-6.5897,-6.5897,-6.5897,-6.5897,-6.5782,-6.5474,-6.4089,-6.3858,-6.432,-6.2974,-6.2858,-6.3397,-6.2551,-6.2166,-6.1973,-6.1089,-6.1435,-6.2474,-6.3935,-6.4512,-6.4589,-6.4589,-6.4474,-6.4012,-6.2551,-6.2074,-6.2012,-6.2127,-6.2257,-6.268,-6.4286,-6.4787,-6.4902,-6.4839,-6.4333,-6.3592,-6.2601,-6.2457,-6.2292,-6.1472,-6.1334,-6.1302,-6.1302,-6.1302,-6.1302,-6.1302,-6.1302,-6.1302,-6.1302,-6.1302,-6.1285,-6.133,-6.1298,-6.1298,-6.135,-6.1323,-6.1324,-6.1334,-6.1344,-6.1351,-6.1344,-6.1328,-6.1341,-6.1344,-6.1344,-6.1344,-6.1344,-6.1344,-6.1485,-6.1719,-6.1562,-6.1601,-6.1719,-6.1719,-6.1719,-6.1719,-6.1719,-6.1719,-6.1719,-6.1719,-6.1719,-6.1719,-6.1719,-6.1719,-6.1719,-5.7997,-5.829,-5.8694,-5.9134,-5.9501,-6.0052,-6.0933,-6.1374,-6.1741,-6.2218,-6.2585,-6.2805,-6.2805,-6.2805,-6.2904,-6.3121,-6.3408,-6.368,-6.3934,-6.4444,-6.4799,-6.5099,-6.5321,-6.5597,-6.5897,-6.5897,-6.5897,-6.5897,-6.5897,-6.5897,-6.5897,-6.5897,-6.5628,-6.5166,-6.5166,-6.4628,-6.3743,-6.3435,-6.3281,-6.3166,-6.2897,-6.2974,-6.3281,-6.2897,-6.2781,-6.2704,-6.232,-6.2743,-6.3589,-6.4359,-6.4936,-6.532,-6.532,-6.4974,-6.4436,-6.3705,-6.3166,-6.2897,-6.3358,-6.3551,-6.3872,-6.5089,-6.5474,-6.5551,-6.5551,-6.5241,-6.4503,-6.2839,-6.2432,-6.2143,-6.1273,-6.105,-6.1012,-6.1012,-6.1012,-6.1012,-6.1012,-6.1012,-6.1012,-6.1012,-6.1012,-6.105,-6.1151,-6.1059,-6.106,-6.1112,-6.1151,-6.1147,-6.1137,-6.1232,-6.1271,-6.1155,-6.1246,-6.1263,-6.1155,-6.1232,-6.131,-6.131,-6.1194,-6.1259,-6.1473,-6.1439,-6.1413,-6.1491,-6.1491,-6.1491,-6.1491,-6.1491,-6.1491,-6.1491,-6.1491,-6.1491,-6.1491,-6.1491,-6.1491,-6.1491]}]]